[[{"header":{"parameterUnit":"m.s-1","parameterCategory":1,"la1":31.0,"la2":29.5877,"lo1":-88.7671,"lo2":-86.6584,"dy":0.0162,"dx":0.0185,"nx":115,"ny":88,"refTime":"2023-06-05T06:00:00:Z","depth":0,"parameterNumber":2,"parameterNumberName":"U-component_of_WINDS"},"data":[0.0,0.0,0.0,0.0,0.0,0.0,0.0,0.0,0.0,0.0,0.0,0.0,0.0,0.0,0.0,0.0,0.0,0.0,0.0,0.0,0.0,0.0,0.0,0.0,0.0,0.0,0.0,0.0,0.0,0.0,0.0,0.0,0.0,0.0,0.0,0.0,0.0,0.0,0.0,0.0,0.0,0.0,0.0,0.0,0.0,0.0,0.0,0.0,0.0,0.0,0.0,0.0,0.0,0.0,0.0,0.0,0.0,0.0,0.0,0.0,0.0,0.0,0.0,0.0,0.0,0.0,0.0,0.0,0.0,0.0,0.0,0.0,0.0,0.0,0.0,0.0,0.0,0.0,0.0,0.0,0.0,0.0,0.0,0.0,0.0,0.0,0.0,0.0,0.0,0.0,0.0,0.0,0.0,0.0,0.0,0.0,0.0,0.0,0.0,0.0,0.0,0.0,0.0,0.0,0.0,0.0,0.0,0.0,0.0,0.0,0.0,0.0,0.0,0.0,0.0,0.0,0.0,0.0,0.0,0.0,0.0,0.0,0.0,0.0,0.0,0.0,0.0,0.0,0.0,0.0,0.0,0.0,0.0,0.0,0.0,0.0,0.0,0.0,0.0,0.0,0.0,0.0,0.0,0.0,0.0,0.0,0.0,0.0,0.0,0.0,0.0,0.0,0.0,0.0,0.0,0.0,0.0,0.0,0.0,0.0,0.0,0.0,0.0,0.0,0.0,0.0,0.0,0.0,0.0,0.0,0.0,0.0,0.0,0.0,0.0,0.0,0.0,0.0,0.0,0.0,0.0,0.0,0.0,0.0,0.0,0.0,0.0,0.0,0.0,0.0,0.0,0.0,0.0,0.0,0.0,0.0,0.0,0.0,0.0,0.0,0.0,0.0,0.0,0.0,0.0,0.0,0.0,0.0,0.0,0.0,0.0,0.0,0.0,0.0,0.0,0.0,0.0,0.0,0.0,0.0,0.0,0.0,0.0,0.0,0.0,0.0,0.0,0.0,0.0,0.0,0.0,0.0,0.0,0.0,0.0,0.0,0.0,0.0,0.0,0.0,0.0,0.0,0.0,0.0,0.0,0.0,0.0,0.0,0.0,0.0,0.0,0.0,0.0,0.0,0.0,0.0,0.0,0.0,0.0,0.0,0.0,0.0,0.0,0.0,0.0,0.0,0.0,0.0,0.0,0.0,0.0,0.0,0.0,0.0,0.0,0.0,0.0,0.0,0.0,0.0,0.0,0.0,0.0,0.0,0.0,0.0,0.0,0.0,0.0,0.0,0.0,0.0,0.0,0.0,0.0,0.0,0.0,0.0,0.0,0.0,0.0,0.0,0.0,0.0,0.0,0.0,0.0,0.0,0.0,0.0,0.0,0.0,0.0,0.0,0.0,0.0,0.0,0.0,0.0,0.0,0.0,0.0,0.0,0.0,0.0,0.0,0.0,0.0,0.0,0.0,0.0,0.0,0.0,0.0,0.0,0.0,0.0,0.0,0.0,0.0,0.0,0.0,0.0,0.0,0.0,0.0,0.0,0.0,0.0,0.0,0.0,0.0,0.0,0.0,0.0,0.0,0.0,0.0,0.0,0.0,0.0,0.0,0.0,0.0,0.0,0.0,0.0,0.0,0.0,0.0,0.0,0.0,0.0,0.0,0.0,0.0,0.0,0.0,0.0,0.0,0.0,0.0,0.0,0.0,0.0,0.0,0.0,0.0,0.0,0.0,0.0,0.0,0.0,0.0,0.0,0.0,0.0,0.0,0.0,0.0,0.0,0.0,0.0,0.0,0.0,0.0,0.0,0.0,0.0,0.0,0.0,0.0,0.0,0.0,0.0,0.0,0.0,0.0,0.0,0.0,0.0,0.0,0.0,0.0,0.0,0.0,0.0,0.0,0.0,0.0,0.0,0.0,0.0,0.0,0.0,0.0,0.0,0.0,0.0,0.0,0.0,0.0,0.0,0.0,0.0,0.0,0.0,0.0,0.0,0.0,0.0,0.0,0.0,0.0,0.0,0.0,0.0,0.0,0.0,0.0,0.0,0.0,0.0,0.0,0.0,0.0,0.0,0.0,0.0,0.0,0.0,0.0,0.0,0.0,0.0,0.0,0.0,0.0,0.0,0.0,0.0,0.0,0.0,0.0,0.0,0.0,0.0,0.0,0.0,0.0,0.0,0.0,0.0,0.0,0.0,0.0,0.0,0.0,0.0,0.0,0.0,0.0,0.0,0.0,0.0,0.0,0.0,0.0,0.0,0.0,0.0,0.0,0.0,0.0,0.0,0.0,0.0,0.0,0.0,0.0,0.0,0.0,0.0,0.0,0.0,0.0,0.0,0.0,0.0,0.0,0.0,0.0,0.0,0.0,0.0,0.0,0.0,0.0,0.0,0.0,0.0,0.0,0.0,0.0,0.0,0.0,0.0,0.0,0.0,0.0,0.0,0.0,0.0,0.0,0.0,0.0,0.0,0.0,0.0,0.0,0.0,0.0,0.0,0.0,0.0,0.0,0.0,0.0,0.0,0.0,0.0,0.0,0.0,0.0,0.0,0.0,0.0,0.0,0.0,0.0,0.0,0.0,0.0,0.0,0.0,0.0,0.0,0.0,0.0,0.0,0.0,0.0,0.0,0.0,0.0,0.0,0.0,0.0,0.0,0.0,0.0,0.0,0.0,0.0,0.0,0.0,0.0,0.0,0.0,0.0,0.0,0.0,0.0,0.0,0.0,0.0,0.0,0.0,0.0,0.0,0.0,0.0,0.0,0.0,0.0,0.0,0.0,0.0,0.0,0.0,0.0,0.0,0.0,0.0,0.0,0.0,0.0,0.0,0.0,0.0,0.0,0.0,0.0,0.0,0.0,0.0,0.0,0.0,0.0,0.0,0.0,0.0,0.0,0.0,0.0,0.0,0.0,0.0,0.0,0.0,0.0,0.0,0.0,0.0,0.0,0.0,0.0,0.0,0.0,0.0,0.0,0.0,0.0,0.0,0.0,0.0,0.0,0.0,0.0,0.0,0.0,0.0,0.0,0.0,0.0,0.0,0.0,0.0,0.0,0.0,0.0,0.0,0.0,0.0,0.0,0.0,0.0,0.0,0.0,0.0,0.0,0.0,0.0,0.0,0.0,0.0,0.0,0.0,0.0,0.0,0.0,0.0,0.0,0.0,0.0,0.0,0.0,0.0,0.0,0.0,0.0,0.0,0.0,0.0,0.0,0.0,0.0,0.0,0.0,0.0,0.0,0.0,0.0,0.0,0.0,0.0,0.0,0.0,0.0,0.0,0.0,0.0,0.0,0.0,0.0,0.0,0.0,0.0,0.0,0.0,0.0,0.0,0.0,0.0,0.0,0.0,0.0,0.0,0.0,0.0,0.0,0.0,0.0,0.0,0.0,0.0,0.0,0.0,0.0,0.0,0.0,0.0,0.0,0.0,0.0,0.0,0.0,0.0,0.0,0.0,0.0,0.0,0.0,0.0,0.0,0.0,0.0,0.0,0.0,0.0,0.0,0.0,0.0,0.0,0.0,0.0,0.0,0.0,0.0,0.0,0.0,0.0,0.0,0.0,0.0,0.0,0.0,0.0,0.0,0.0,0.0,0.0,0.0,0.0,0.0,0.0,0.0,0.0,0.0,0.0,0.0,0.0,0.0,0.0,0.0,0.0,0.0,0.0,0.0,0.0,0.0,0.0,0.0,0.0,0.0,0.0,0.0,0.0,0.0,0.0,0.0,0.0,0.0,0.0,0.0,0.0,0.0,0.0,0.0,0.0,0.0,0.0,0.0,0.0,0.0,0.0,0.0,0.0,0.0,0.0,0.0,0.0,0.0,0.0,0.0,0.0,0.0,0.0,0.0,0.0,0.0,0.0,0.0,0.0,0.0,0.0,0.0,0.0,0.0,0.0,0.0,0.0,0.0,0.0,0.0,0.0,0.0,0.0,0.0,0.0,0.0,0.0,0.0,0.0,0.0,0.0,0.0,0.0,0.0,0.0,0.0,0.0,0.0,0.0,0.0,0.0,0.0,0.0,0.0,0.0,0.0,0.0,0.0,0.0,0.0,0.0,0.0,0.0,0.0,0.0,0.0,0.0,0.0,0.0,0.0,0.0,0.0,0.0,0.0,0.0,0.0,0.0,0.0,0.0,0.0,0.0,0.0,0.0,0.0,0.0,0.0,0.0,0.0,0.0,0.0,0.0,0.0,0.0,0.0,0.0,0.0,0.0,0.0,0.0,0.0,0.0,0.0,0.0,0.0,0.0,0.0,0.0,0.0,0.0,0.0,0.0,1.932,0.0,0.0,0.0,0.0,0.0,0.0,0.0,0.0,0.0,0.0,0.0,0.0,0.0,0.0,0.0,0.0,0.0,0.0,0.0,0.0,0.0,0.0,0.0,0.0,0.0,0.0,0.0,0.0,0.0,0.0,0.0,0.0,0.0,0.0,0.0,0.0,0.0,0.0,0.0,0.0,0.0,0.0,0.0,0.0,0.0,0.0,0.0,0.0,0.0,0.0,0.0,0.0,0.0,0.0,0.0,0.0,0.0,0.0,0.0,0.0,0.0,0.0,0.0,0.0,0.0,0.0,0.0,0.0,0.0,0.0,0.0,0.0,0.0,0.0,0.0,0.0,0.0,0.0,0.0,0.0,0.0,0.0,0.0,0.0,0.0,0.0,0.0,0.0,0.0,0.0,0.0,0.0,0.0,0.0,0.0,0.0,0.0,0.0,0.0,0.0,0.0,0.0,0.0,0.0,0.0,0.0,0.0,0.0,0.0,0.0,2.0856,2.0856,2.0369,2.0052,1.9886,0.0,0.0,0.0,0.0,0.0,0.0,0.0,0.0,0.0,0.0,0.0,0.0,0.0,0.0,0.0,0.0,0.0,0.0,0.0,0.0,0.0,0.0,0.0,0.0,0.0,0.0,0.0,0.0,0.0,0.0,0.0,0.0,0.0,0.0,0.0,0.0,0.0,0.0,0.0,0.0,0.0,0.0,0.0,0.0,0.0,0.0,0.0,0.0,0.0,0.0,0.0,0.0,0.0,0.0,0.0,0.0,0.0,0.0,0.0,0.0,0.0,0.0,0.0,0.0,0.0,0.0,0.0,0.0,0.0,0.0,0.0,0.0,0.0,0.0,0.0,0.0,0.0,0.0,0.0,0.0,0.0,0.0,0.0,0.0,0.0,0.0,0.0,0.0,0.0,0.0,0.0,0.0,0.0,0.0,0.0,0.0,0.0,0.0,0.0,0.0,0.0,0.0,0.0,0.0,0.0,0.0,0.0,0.0,0.0,0.0,0.0,0.0,2.1242,2.0721,2.0403,0.0,0.0,0.0,0.0,0.0,0.0,0.0,0.0,0.0,0.0,0.0,0.0,0.0,0.0,0.0,0.0,0.0,0.0,0.0,0.0,0.0,0.0,0.0,0.0,0.0,0.0,0.0,0.0,0.0,0.0,0.0,0.0,0.0,0.0,0.0,0.0,0.0,0.0,0.0,0.0,0.0,0.0,0.0,0.0,0.0,0.0,0.0,0.0,0.0,0.0,0.0,0.0,0.0,0.0,0.0,0.0,0.0,0.0,0.0,0.0,0.0,0.0,0.0,0.0,0.0,0.0,0.0,0.0,0.0,0.0,0.0,0.0,0.0,0.0,0.0,0.0,0.0,0.0,0.0,0.0,0.0,0.0,0.0,0.0,0.0,0.0,0.0,0.0,0.0,0.0,0.0,0.0,0.0,0.0,0.0,0.0,0.0,0.0,0.0,0.0,0.0,0.0,0.0,0.0,0.0,0.0,0.0,0.0,0.0,0.0,2.2001,2.2001,2.1793,0.0,2.0421,0.0,0.0,0.0,0.0,0.0,0.0,0.0,0.0,0.0,0.0,0.0,0.0,0.0,0.0,0.0,0.0,0.0,0.0,0.0,0.0,0.0,0.0,0.0,0.0,0.0,0.0,0.0,0.0,0.0,0.0,0.0,0.0,0.0,0.0,0.0,0.0,0.0,0.0,0.0,0.0,0.0,0.0,0.0,0.0,0.0,0.0,0.0,0.0,0.0,0.0,0.0,0.0,0.0,0.0,0.0,0.0,0.0,0.0,0.0,0.0,0.0,0.0,0.0,0.0,0.0,0.0,0.0,0.0,0.0,0.0,0.0,0.0,0.0,0.0,0.0,0.0,0.0,0.0,0.0,0.0,0.0,0.0,0.0,0.0,0.0,0.0,0.0,0.0,0.0,0.0,0.0,0.0,0.0,0.0,0.0,0.0,0.0,0.0,0.0,0.0,0.0,0.0,0.0,0.0,0.0,0.0,0.0,0.0,0.0,0.0,2.3429,2.3481,2.2382,2.1379,0.0,0.0,0.0,0.0,0.0,0.0,0.0,0.0,0.0,0.0,0.0,0.0,0.0,0.0,0.0,0.0,0.0,0.0,0.0,0.0,0.0,0.0,0.0,0.0,0.0,0.0,0.0,0.0,0.0,0.0,0.0,0.0,0.0,0.0,0.0,0.0,0.0,0.0,0.0,0.0,0.0,0.0,0.0,0.0,0.0,0.0,0.0,0.0,0.0,0.0,0.0,0.0,0.0,0.0,0.0,0.0,0.0,0.0,0.0,0.0,0.0,0.0,0.0,0.0,0.0,0.0,0.0,0.0,0.0,0.0,0.0,0.0,0.0,0.0,0.0,0.0,0.0,0.0,0.0,0.0,0.0,0.0,0.0,0.0,0.0,0.0,0.0,0.0,0.0,0.0,0.0,0.0,0.0,0.0,0.0,0.0,0.0,0.0,0.0,0.0,0.0,0.0,0.0,0.0,0.0,0.0,0.0,0.0,0.0,0.0,2.4131,2.4446,2.4444,2.2989,2.1745,2.0871,0.0,0.0,0.0,0.0,0.0,0.0,0.0,0.0,0.0,0.0,0.0,0.0,0.0,0.0,0.0,0.0,0.0,0.0,0.0,0.0,0.0,0.0,0.0,0.0,0.0,0.0,0.0,0.0,0.0,0.0,0.0,0.0,0.0,0.0,0.0,0.0,0.0,0.0,0.0,0.0,0.0,0.0,0.0,0.0,0.0,0.0,0.0,0.0,0.0,0.0,0.0,0.0,0.0,0.0,0.0,0.0,0.0,0.0,0.0,0.0,0.0,0.0,0.0,0.0,0.0,0.0,0.0,0.0,0.0,0.0,0.0,0.0,0.0,0.0,0.0,0.0,0.0,0.0,0.0,0.0,0.0,0.0,0.0,0.0,0.0,0.0,0.0,0.0,0.0,0.0,0.0,0.0,0.0,0.0,0.0,0.0,0.0,0.0,0.0,0.0,0.0,0.0,0.0,0.0,0.0,0.0,0.0,0.0,0.0,2.4476,2.4497,2.45,2.356,2.2606,0.0,0.0,0.0,0.0,0.0,0.0,0.0,0.0,0.0,0.0,0.0,0.0,0.0,0.0,0.0,0.0,0.0,0.0,0.0,0.0,0.0,0.0,0.0,0.0,0.0,0.0,0.0,0.0,0.0,0.0,0.0,0.0,0.0,0.0,0.0,0.0,0.0,0.0,0.0,0.0,0.0,0.0,0.0,0.0,0.0,0.0,0.0,0.0,0.0,0.0,0.0,0.0,0.0,0.0,0.0,0.0,0.0,0.0,0.0,0.0,0.0,0.0,0.0,0.0,0.0,0.0,0.0,0.0,0.0,0.0,0.0,0.0,0.0,0.0,0.0,0.0,0.0,0.0,0.0,0.0,0.0,0.0,0.0,0.0,0.0,0.0,0.0,0.0,0.0,0.0,0.0,0.0,0.0,0.0,0.0,0.0,0.0,0.0,0.0,0.0,0.0,0.0,0.0,0.0,0.0,0.0,0.0,0.0,0.0,2.4502,2.5035,2.5349,2.5297,2.4464,2.3302,0.0,0.0,0.0,0.0,0.0,0.0,0.0,0.0,0.0,0.0,0.0,0.0,0.0,0.0,0.0,0.0,0.0,0.0,0.0,0.0,0.0,0.0,0.0,0.0,0.0,0.0,0.0,0.0,0.0,0.0,0.0,0.0,0.0,0.0,0.0,0.0,0.0,0.0,0.0,0.0,0.0,0.0,0.0,0.0,0.0,0.0,0.0,0.0,0.0,0.0,0.0,0.0,0.0,0.0,0.0,0.0,0.0,0.0,0.0,0.0,0.0,0.0,0.0,0.0,0.0,0.0,0.0,0.0,0.0,0.0,0.0,0.0,0.0,0.0,0.0,0.0,0.0,0.0,0.0,0.0,0.0,0.0,0.0,0.0,0.0,0.0,0.0,0.0,0.0,0.0,0.0,0.0,0.0,0.0,0.0,0.0,0.0,0.0,0.0,0.0,0.0,0.0,0.0,0.0,0.0,0.0,0.0,0.0,0.0,2.4911,0.0,2.6188,0.0,2.5281,2.4135,0.0,0.0,0.0,0.0,0.0,0.0,0.0,0.0,0.0,0.0,0.0,0.0,0.0,0.0,0.0,0.0,0.0,0.0,0.0,0.0,0.0,0.0,0.0,0.0,0.0,0.0,0.0,0.0,0.0,0.0,0.0,0.0,0.0,0.0,0.0,0.0,0.0,0.0,0.0,0.0,0.0,0.0,0.0,0.0,0.0,0.0,0.0,0.0,0.0,0.0,0.0,0.0,0.0,0.0,0.0,0.0,0.0,0.0,0.0,0.0,0.0,0.0,0.0,0.0,0.0,0.0,0.0,0.0,0.0,0.0,0.0,0.0,0.0,0.0,0.0,0.0,0.0,0.0,0.0,0.0,0.0,0.0,0.0,0.0,0.0,0.0,0.0,0.0,0.0,0.0,0.0,0.0,0.0,0.0,0.0,0.0,0.0,0.0,0.0,0.0,0.0,0.0,0.0,0.0,0.0,0.0,0.0,0.0,2.4782,2.569,2.6563,2.6991,2.6991,2.6061,2.5115,0.0,0.0,0.0,0.0,0.0,0.0,0.0,0.0,0.0,0.0,0.0,0.0,0.0,0.0,0.0,0.0,0.0,0.0,0.0,0.0,0.0,0.0,0.0,0.0,0.0,0.0,0.0,0.0,0.0,0.0,0.0,0.0,0.0,0.0,0.0,0.0,0.0,0.0,0.0,0.0,0.0,0.0,0.0,0.0,0.0,0.0,0.0,0.0,0.0,0.0,0.0,0.0,0.0,0.0,0.0,0.0,0.0,0.0,0.0,0.0,0.0,0.0,0.0,0.0,0.0,0.0,0.0,0.0,0.0,0.0,0.0,0.0,0.0,0.0,0.0,0.0,0.0,0.0,0.0,0.0,0.0,0.0,0.0,0.0,0.0,0.0,0.0,0.0,0.0,0.0,0.0,0.0,0.0,0.0,0.0,0.0,0.0,0.0,0.0,0.0,0.0,0.0,0.0,0.0,0.0,0.0,0.0,0.0,0.0,2.7362,2.7604,2.7772,2.7715,2.6877,2.5706,0.0,0.0,0.0,0.0,0.0,0.0,0.0,0.0,0.0,0.0,0.0,0.0,0.0,0.0,0.0,0.0,0.0,0.0,0.0,0.0,0.0,0.0,0.0,0.0,0.0,0.0,0.0,0.0,0.0,0.0,0.0,0.0,0.0,0.0,0.0,0.0,0.0,0.0,0.0,0.0,0.0,0.0,0.0,0.0,0.0,0.0,0.0,0.0,0.0,0.0,0.0,0.0,0.0,0.0,0.0,0.0,0.0,0.0,0.0,0.0,0.0,0.0,0.0,0.0,0.0,0.0,0.0,0.0,0.0,0.0,0.0,0.0,0.0,0.0,0.0,0.0,0.0,0.0,0.0,0.0,0.0,0.0,0.0,0.0,0.0,0.0,0.0,0.0,0.0,0.0,0.0,0.0,0.0,0.0,0.0,0.0,0.0,0.0,0.0,0.0,0.0,0.0,0.0,0.0,0.0,0.0,0.0,0.0,0.0,2.8827,2.8635,2.8528,2.8509,2.7374,2.624,2.5109,0.0,0.0,0.0,0.0,0.0,0.0,0.0,0.0,0.0,0.0,0.0,0.0,0.0,0.0,0.0,0.0,0.0,0.0,0.0,0.0,0.0,0.0,0.0,0.0,0.0,0.0,0.0,0.0,0.0,0.0,0.0,0.0,0.0,0.0,0.0,0.0,0.0,0.0,0.0,0.0,0.0,0.0,0.0,0.0,0.0,0.0,0.0,0.0,0.0,0.0,0.0,0.0,0.0,0.0,0.0,0.0,0.0,0.0,0.0,0.0,0.0,0.0,0.0,0.0,0.0,0.0,0.0,0.0,0.0,0.0,0.0,0.0,0.0,0.0,0.0,0.0,0.0,0.0,0.0,0.0,0.0,0.0,0.0,0.0,0.0,0.0,0.0,0.0,0.0,0.0,0.0,0.0,0.0,0.0,0.0,0.0,0.0,0.0,0.0,0.0,0.0,0.0,0.0,0.0,0.0,0.0,0.0,0.0,3.0027,2.9527,2.9252,2.9215,2.7696,2.6749,0.0,0.0,0.0,0.0,0.0,0.0,0.0,0.0,0.0,0.0,0.0,0.0,0.0,0.0,0.0,0.0,0.0,0.0,0.0,0.0,0.0,0.0,0.0,0.0,0.0,0.0,0.0,0.0,0.0,0.0,0.0,0.0,0.0,0.0,0.0,0.0,0.0,0.0,0.0,0.0,0.0,0.0,0.0,0.0,0.0,0.0,0.0,0.0,0.0,0.0,0.0,0.0,0.0,0.0,0.0,0.0,0.0,0.0,0.0,0.0,0.0,0.0,0.0,0.0,0.0,0.0,0.0,0.0,0.0,0.0,0.0,0.0,0.0,0.0,0.0,0.0,0.0,0.0,0.0,0.0,0.0,0.0,0.0,0.0,0.0,0.0,0.0,0.0,0.0,0.0,0.0,0.0,0.0,0.0,0.0,0.0,0.0,0.0,0.0,0.0,0.0,0.0,0.0,0.0,0.0,0.0,0.0,0.0,0.0,2.9699,2.9744,2.9759,2.9837,2.8842,2.7698,0.0,0.0,0.0,0.0,0.0,0.0,0.0,0.0,0.0,0.0,0.0,0.0,0.0,0.0,0.0,0.0,0.0,0.0,0.0,0.0,0.0,0.0,0.0,0.0,0.0,0.0,0.0,0.0,0.0,0.0,0.0,0.0,0.0,0.0,0.0,0.0,0.0,0.0,0.0,0.0,0.0,0.0,0.0,0.0,0.0,0.0,0.0,0.0,0.0,0.0,0.0,0.0,0.0,0.0,0.0,0.0,0.0,0.0,0.0,0.0,0.0,0.0,0.0,0.0,0.0,0.0,0.0,0.0,0.0,0.0,0.0,0.0,0.0,0.0,0.0,0.0,0.0,0.0,0.0,0.0,0.0,0.0,0.0,0.0,0.0,0.0,0.0,0.0,0.0,0.0,0.0,0.0,0.0,0.0,0.0,0.0,0.0,0.0,0.0,0.0,0.0,0.0,0.0,0.0,0.0,0.0,0.0,0.0,2.828,3.0088,3.0486,3.0613,3.0412,2.9387,2.8044,0.0,0.0,0.0,0.0,0.0,0.0,0.0,0.0,0.0,0.0,0.0,0.0,0.0,0.0,0.0,0.0,0.0,0.0,0.0,0.0,0.0,0.0,0.0,0.0,0.0,0.0,0.0,0.0,0.0,0.0,0.0,0.0,0.0,0.0,0.0,0.0,0.0,0.0,0.0,0.0,0.0,0.0,0.0,0.0,0.0,0.0,0.0,0.0,0.0,0.0,0.0,0.0,0.0,0.0,0.0,0.0,0.0,0.0,0.0,0.0,0.0,0.0,0.0,0.0,0.0,0.0,0.0,0.0,0.0,0.0,0.0,0.0,0.0,0.0,0.0,0.0,0.0,0.0,0.0,0.0,0.0,0.0,0.0,0.0,0.0,0.0,0.0,0.0,0.0,0.0,0.0,0.0,0.0,0.0,0.0,0.0,0.0,0.0,0.0,0.0,0.0,0.0,0.0,0.0,0.0,0.0,0.0,0.0,2.8902,3.0617,3.1374,3.1476,3.0894,2.9663,2.8136,0.0,0.0,0.0,0.0,0.0,0.0,0.0,0.0,0.0,0.0,0.0,0.0,0.0,0.0,0.0,0.0,0.0,0.0,0.0,0.0,0.0,0.0,0.0,0.0,0.0,0.0,0.0,0.0,0.0,0.0,0.0,0.0,0.0,0.0,0.0,0.0,0.0,0.0,0.0,0.0,0.0,0.0,0.0,0.0,0.0,0.0,0.0,0.0,0.0,0.0,0.0,0.0,0.0,0.0,0.0,0.0,0.0,0.0,0.0,0.0,0.0,0.0,0.0,0.0,0.0,0.0,0.0,0.0,0.0,0.0,0.0,0.0,0.0,0.0,0.0,0.0,0.0,0.0,0.0,0.0,0.0,0.0,0.0,0.0,0.0,0.0,0.0,0.0,0.0,0.0,0.0,0.0,0.0,0.0,0.0,0.0,0.0,0.0,0.0,0.0,0.0,0.0,0.0,0.0,0.0,0.0,0.0,0.0,2.8611,3.0256,3.108,3.1493,3.1523,3.0826,2.9104,0.0,0.0,0.0,0.0,0.0,0.0,0.0,0.0,0.0,0.0,0.0,0.0,0.0,0.0,0.0,0.0,0.0,0.0,0.0,0.0,0.0,0.0,0.0,0.0,0.0,0.0,0.0,0.0,0.0,0.0,0.0,0.0,0.0,0.0,0.0,0.0,0.0,0.0,0.0,0.0,0.0,0.0,0.0,0.0,0.0,0.0,0.0,0.0,2.1774,0.0,0.0,0.0,0.0,0.0,0.0,0.0,0.0,0.0,0.0,0.0,0.0,0.0,0.0,0.0,0.0,0.0,0.0,0.0,0.0,0.0,0.0,0.0,0.0,0.0,0.0,0.0,0.0,0.0,0.0,0.0,0.0,0.0,0.0,0.0,0.0,0.0,0.0,0.0,0.0,0.0,0.0,0.0,0.0,0.0,0.0,0.0,0.0,0.0,0.0,0.0,0.0,0.0,0.0,0.0,0.0,0.0,0.0,0.0,2.9103,3.0021,3.1175,3.1696,3.1505,3.0945,2.9357,0.0,0.0,0.0,0.0,0.0,0.0,0.0,0.0,0.0,0.0,0.0,0.0,0.0,0.0,0.0,0.0,0.0,0.0,0.0,0.0,0.0,0.0,0.0,0.0,0.0,0.0,0.0,0.0,0.0,0.0,0.0,0.0,0.0,0.0,0.0,0.0,0.0,0.0,0.0,0.0,0.0,0.0,0.0,0.0,0.0,0.0,0.0,0.0,0.0,0.0,0.0,0.0,0.0,0.0,0.0,0.0,0.0,0.0,0.0,0.0,0.0,0.0,0.0,0.0,0.0,0.0,0.0,0.0,0.0,0.0,0.0,0.0,0.0,0.0,0.0,0.0,0.0,0.0,0.0,0.0,0.0,0.0,0.0,0.0,0.0,0.0,0.0,0.0,0.0,0.0,0.0,0.0,0.0,0.0,0.0,0.0,0.0,0.0,0.0,0.0,0.0,0.0,0.0,0.0,0.0,0.0,0.0,2.7989,2.9659,2.9761,3.1307,3.1899,3.1421,3.0638,2.939,2.7565,0.0,0.0,0.0,0.0,0.0,0.0,0.0,0.0,0.0,0.0,0.0,0.0,0.0,0.0,0.0,0.0,0.0,0.0,0.0,0.0,0.0,0.0,0.0,0.0,0.0,0.0,0.0,0.0,0.0,0.0,0.0,0.0,0.0,0.0,0.0,0.0,0.0,0.0,1.9812,2.0621,0.0,0.0,0.0,0.0,0.0,0.0,0.0,0.0,2.3005,0.0,0.0,0.0,0.0,0.0,0.0,0.0,0.0,0.0,0.0,0.0,0.0,0.0,0.0,0.0,0.0,0.0,0.0,0.0,0.0,0.0,0.0,0.0,0.0,0.0,0.0,0.0,0.0,0.0,0.0,0.0,0.0,0.0,0.0,0.0,0.0,0.0,0.0,0.0,0.0,0.0,0.0,0.0,0.0,0.0,0.0,0.0,0.0,0.0,0.0,0.0,0.0,0.0,0.0,0.0,0.0,2.4571,2.7623,2.9211,2.935,3.1007,3.1913,3.1934,3.0707,2.9624,2.8688,0.0,0.0,0.0,0.0,0.0,0.0,0.0,0.0,0.0,0.0,0.0,0.0,0.0,0.0,0.0,0.0,0.0,0.0,0.0,0.0,0.0,0.0,0.0,0.0,0.0,0.0,0.0,0.0,0.0,0.0,0.0,0.0,0.0,0.0,0.0,0.0,0.0,0.0,0.0,2.0854,2.1565,0.0,0.0,0.0,0.0,0.0,0.0,0.0,0.0,2.3127,0.0,0.0,0.0,0.0,0.0,0.0,0.0,0.0,0.0,0.0,0.0,0.0,0.0,0.0,0.0,0.0,0.0,0.0,0.0,0.0,0.0,0.0,0.0,0.0,0.0,0.0,0.0,0.0,0.0,0.0,0.0,0.0,0.0,0.0,0.0,0.0,0.0,0.0,0.0,0.0,0.0,0.0,0.0,0.0,0.0,0.0,0.0,0.0,0.0,0.0,0.0,0.0,0.0,0.0,0.0,2.5497,2.7735,2.909,2.959,3.0848,3.1617,3.1748,3.0404,2.9395,0.0,0.0,0.0,0.0,0.0,0.0,0.0,0.0,0.0,0.0,0.0,0.0,0.0,0.0,0.0,0.0,0.0,0.0,0.0,0.0,0.0,0.0,0.0,0.0,0.0,0.0,0.0,0.0,0.0,0.0,0.0,0.0,0.0,0.0,0.0,0.0,0.0,0.0,0.0,0.0,2.0966,2.1755,2.2235,0.0,0.0,0.0,0.0,0.0,0.0,2.2994,2.2979,0.0,0.0,0.0,0.0,0.0,0.0,0.0,0.0,0.0,0.0,0.0,0.0,0.0,0.0,0.0,0.0,0.0,0.0,0.0,0.0,0.0,0.0,0.0,0.0,0.0,0.0,0.0,0.0,0.0,0.0,0.0,0.0,0.0,0.0,0.0,0.0,0.0,0.0,0.0,0.0,0.0,0.0,0.0,0.0,0.0,0.0,0.0,0.0,0.0,0.0,0.0,0.0,0.0,0.0,0.0,2.6134,2.7724,2.8937,2.9716,3.069,3.1257,3.1317,3.0031,2.9111,0.0,0.0,0.0,0.0,0.0,0.0,0.0,0.0,0.0,0.0,0.0,0.0,0.0,0.0,0.0,0.0,0.0,0.0,0.0,0.0,0.0,0.0,0.0,0.0,0.0,0.0,0.0,0.0,0.0,0.0,0.0,0.0,0.0,0.0,0.0,0.0,0.0,0.0,0.0,0.0,0.0,2.1807,2.1996,2.2077,0.0,0.0,0.0,0.0,2.2804,2.2919,0.0,0.0,0.0,0.0,0.0,0.0,0.0,0.0,0.0,0.0,0.0,0.0,0.0,0.0,0.0,0.0,0.0,0.0,0.0,0.0,0.0,0.0,0.0,0.0,0.0,0.0,0.0,0.0,0.0,0.0,0.0,0.0,0.0,0.0,0.0,0.0,0.0,0.0,0.0,0.0,0.0,0.0,0.0,0.0,0.0,0.0,0.0,0.0,0.0,0.0,0.0,0.0,0.0,0.0,0.0,0.0,2.5572,2.7234,2.8434,2.9214,3.0275,3.0885,3.0868,2.9773,2.914,0.0,0.0,0.0,0.0,0.0,0.0,0.0,0.0,0.0,0.0,0.0,0.0,0.0,0.0,0.0,0.0,0.0,0.0,0.0,0.0,0.0,0.0,0.0,0.0,0.0,0.0,0.0,0.0,0.0,0.0,0.0,0.0,0.0,0.0,0.0,0.0,0.0,0.0,0.0,0.0,0.0,2.1471,2.1471,2.1807,2.203,0.0,0.0,2.3076,2.3192,2.366,0.0,0.0,0.0,0.0,0.0,0.0,0.0,0.0,0.0,0.0,0.0,0.0,0.0,0.0,0.0,0.0,0.0,0.0,0.0,0.0,0.0,0.0,0.0,0.0,0.0,0.0,0.0,0.0,0.0,0.0,0.0,0.0,0.0,0.0,0.0,0.0,0.0,0.0,0.0,0.0,0.0,0.0,0.0,0.0,0.0,0.0,0.0,0.0,0.0,0.0,0.0,0.0,0.0,0.0,0.0,2.4239,2.6423,2.7259,2.8433,2.9935,3.0248,3.0566,3.1004,2.9453,2.8682,0.0,0.0,0.0,0.0,0.0,0.0,0.0,0.0,0.0,0.0,0.0,0.0,0.0,0.0,0.0,0.0,0.0,0.0,0.0,0.0,0.0,0.0,0.0,0.0,0.0,0.0,0.0,0.0,0.0,0.0,0.0,0.0,0.0,0.0,0.0,0.0,0.0,0.0,0.0,0.0,0.0,0.0,2.1722,2.2024,0.0,0.0,0.0,2.3409,2.3445,0.0,0.0,0.0,0.0,0.0,0.0,0.0,0.0,0.0,0.0,0.0,0.0,0.0,0.0,0.0,0.0,0.0,0.0,0.0,0.0,0.0,0.0,0.0,0.0,0.0,0.0,0.0,0.0,0.0,0.0,0.0,0.0,0.0,0.0,0.0,0.0,0.0,0.0,0.0,0.0,0.0,0.0,0.0,0.0,0.0,0.0,0.0,0.0,0.0,0.0,0.0,0.0,0.0,0.0,0.0,0.0,0.0,2.6914,2.7411,2.8558,3.0384,3.0312,3.0538,3.0998,2.9391,0.0,0.0,0.0,0.0,0.0,0.0,0.0,0.0,0.0,0.0,0.0,0.0,0.0,0.0,0.0,0.0,0.0,0.0,0.0,0.0,0.0,0.0,0.0,0.0,0.0,0.0,0.0,1.8746,0.0,0.0,0.0,0.0,0.0,0.0,0.0,0.0,0.0,0.0,0.0,0.0,0.0,0.0,2.1422,2.211,2.2331,2.2609,0.0,0.0,2.3617,2.3669,2.3793,2.3834,0.0,0.0,0.0,0.0,0.0,0.0,0.0,0.0,0.0,0.0,0.0,0.0,0.0,0.0,0.0,0.0,0.0,0.0,0.0,0.0,0.0,0.0,0.0,0.0,0.0,0.0,0.0,0.0,0.0,0.0,0.0,0.0,0.0,0.0,0.0,0.0,0.0,0.0,0.0,0.0,0.0,0.0,0.0,0.0,0.0,0.0,0.0,0.0,0.0,0.0,0.0,0.0,0.0,0.0,0.0,2.6363,2.7721,2.8886,2.9859,3.0651,3.0862,3.0526,2.9849,2.8979,0.0,0.0,0.0,0.0,0.0,0.0,0.0,0.0,0.0,0.0,0.0,0.0,0.0,0.0,0.0,0.0,0.0,0.0,0.0,0.0,0.0,0.0,0.0,0.0,0.0,0.0,0.0,0.0,0.0,0.0,0.0,0.0,0.0,0.0,0.0,0.0,0.0,0.0,0.0,0.0,0.0,2.1864,2.2471,2.2658,2.2778,0.0,0.0,2.3754,2.385,2.435,2.4525,2.3999,0.0,0.0,0.0,0.0,0.0,0.0,0.0,0.0,0.0,0.0,0.0,0.0,0.0,0.0,0.0,0.0,0.0,0.0,0.0,0.0,0.0,0.0,0.0,0.0,0.0,0.0,0.0,0.0,0.0,0.0,0.0,0.0,0.0,0.0,0.0,0.0,0.0,0.0,0.0,0.0,0.0,0.0,0.0,0.0,0.0,0.0,0.0,0.0,0.0,0.0,0.0,0.0,0.0,2.4911,2.701,2.7652,2.8789,3.0416,3.051,3.0767,3.1278,2.9864,2.8914,0.0,0.0,0.0,0.0,0.0,0.0,0.0,0.0,0.0,0.0,0.0,0.0,0.0,0.0,0.0,0.0,0.0,0.0,0.0,0.0,0.0,0.0,0.0,0.0,0.0,0.0,0.0,0.0,2.0306,2.0567,2.0371,0.0,0.0,0.0,0.0,0.0,0.0,0.0,0.0,0.0,0.0,2.204,2.2609,2.291,0.0,0.0,2.397,2.4286,2.4329,2.453,2.454,2.4173,2.3841,0.0,0.0,0.0,0.0,0.0,0.0,0.0,0.0,0.0,0.0,0.0,0.0,0.0,0.0,0.0,0.0,0.0,0.0,0.0,0.0,0.0,0.0,0.0,0.0,0.0,0.0,0.0,0.0,0.0,0.0,0.0,0.0,0.0,0.0,0.0,0.0,0.0,0.0,0.0,0.0,0.0,0.0,0.0,0.0,0.0,0.0,0.0,0.0,0.0,0.0,0.0,0.0,2.5035,2.721,2.7743,2.8868,3.0644,3.0488,3.073,3.1389,3.0079,2.9193,0.0,0.0,0.0,0.0,0.0,0.0,0.0,0.0,0.0,0.0,0.0,0.0,0.0,0.0,0.0,0.0,0.0,0.0,0.0,0.0,0.0,0.0,0.0,0.0,0.0,0.0,0.0,0.0,2.0709,2.0848,2.0712,0.0,0.0,0.0,0.0,0.0,0.0,0.0,0.0,0.0,0.0,2.2229,2.2776,2.3084,2.3399,2.3813,2.4099,2.4319,2.4332,2.4332,2.4261,2.4131,0.0,0.0,0.0,0.0,0.0,0.0,0.0,0.0,0.0,0.0,0.0,0.0,0.0,0.0,0.0,0.0,0.0,0.0,0.0,0.0,0.0,0.0,0.0,0.0,0.0,0.0,0.0,0.0,0.0,0.0,0.0,0.0,0.0,0.0,0.0,0.0,0.0,0.0,0.0,0.0,0.0,0.0,0.0,0.0,0.0,0.0,0.0,0.0,0.0,0.0,0.0,0.0,0.0,2.5444,2.6721,2.7998,2.9126,3.0115,3.0689,3.0906,3.0719,3.0684,2.9872,2.8213,0.0,0.0,0.0,0.0,0.0,0.0,0.0,0.0,0.0,0.0,0.0,0.0,0.0,0.0,0.0,0.0,0.0,0.0,0.0,0.0,0.0,0.0,0.0,0.0,0.0,0.0,2.0953,2.0799,2.0725,0.0,0.0,0.0,0.0,0.0,0.0,0.0,0.0,0.0,0.0,2.2284,2.2498,2.305,2.3258,2.339,2.3403,2.3509,2.3616,2.3616,2.3628,2.3616,0.0,0.0,0.0,0.0,0.0,0.0,0.0,0.0,0.0,0.0,0.0,0.0,0.0,0.0,0.0,0.0,0.0,0.0,0.0,0.0,0.0,0.0,0.0,0.0,0.0,0.0,0.0,1.9948,2.0172,0.0,0.0,0.0,0.0,0.0,0.0,0.0,0.0,0.0,0.0,0.0,2.5501,2.644,0.0,0.0,0.0,0.0,0.0,0.0,0.0,0.0,0.0,0.0,0.0,0.0,2.6096,2.7357,2.8209,2.9126,3.0055,3.0317,3.0497,3.0762,3.0349,2.9474,2.8196,0.0,0.0,0.0,0.0,0.0,0.0,0.0,0.0,0.0,0.0,0.0,0.0,0.0,0.0,0.0,0.0,0.0,0.0,0.0,0.0,0.0,0.0,0.0,0.0,0.0,2.1172,0.0,0.0,0.0,0.0,0.0,0.0,0.0,0.0,0.0,0.0,0.0,2.178,2.2236,2.2555,2.2786,2.2969,2.3244,2.3306,0.0,0.0,0.0,0.0,0.0,0.0,0.0,0.0,0.0,0.0,0.0,0.0,0.0,0.0,2.2936,2.3389,2.3484,2.3499,2.3494,0.0,0.0,0.0,0.0,0.0,0.0,0.0,0.0,0.0,0.0,0.0,0.0,0.0,0.0,0.0,0.0,2.1035,0.0,0.0,0.0,0.0,0.0,0.0,0.0,0.0,2.4203,2.4833,2.6145,2.7055,2.7223,0.0,2.6311,2.5772,0.0,0.0,0.0,0.0,0.0,0.0,0.0,0.0,2.6385,2.7823,2.827,2.8895,2.978,2.9808,2.9993,3.0343,2.9766,2.9103,2.8417,2.7964,2.7388,0.0,0.0,0.0,0.0,0.0,0.0,0.0,0.0,0.0,0.0,0.0,0.0,0.0,0.0,0.0,0.0,0.0,0.0,0.0,0.0,0.0,0.0,0.0,2.1723,0.0,0.0,0.0,0.0,0.0,0.0,0.0,0.0,0.0,2.149,2.1616,2.1849,2.2291,2.2524,2.2762,2.2762,0.0,0.0,0.0,0.0,0.0,0.0,0.0,2.2788,2.2787,2.2676,2.2669,2.2929,2.3042,2.3098,2.3213,0.0,0.0,2.3297,2.3352,2.3304,2.3301,2.3325,2.329,2.3117,2.3155,2.3095,0.0,0.0,0.0,0.0,0.0,0.0,0.0,0.0,2.1993,2.239,0.0,2.2977,0.0,0.0,0.0,0.0,0.0,0.0,0.0,0.0,2.4142,2.4797,2.6735,2.7693,2.7679,2.6844,2.6803,2.6702,2.6627,2.4723,0.0,0.0,0.0,0.0,0.0,0.0,2.6362,2.8098,2.8195,2.8623,2.9303,2.9317,2.9457,2.9624,2.9116,2.8824,2.8796,2.8453,2.7794,2.6722,2.6861,0.0,0.0,0.0,0.0,0.0,0.0,0.0,0.0,0.0,0.0,0.0,0.0,0.0,0.0,0.0,0.0,0.0,0.0,0.0,0.0,2.2485,0.0,0.0,0.0,0.0,0.0,0.0,0.0,0.0,0.0,0.0,2.1428,2.1675,2.2048,2.2362,0.0,0.0,0.0,0.0,2.2515,2.1993,2.2109,2.2195,2.2246,2.2246,2.2288,2.255,0.0,0.0,2.2616,2.2924,2.3232,2.3486,2.3718,2.3682,2.2844,2.2788,2.2765,2.2765,2.28,2.2662,2.2634,2.2879,2.2831,2.5242,0.0,0.0,0.0,0.0,2.3329,2.3434,2.3593,2.3718,2.3854,2.407,2.407,0.0,0.0,0.0,0.0,0.0,0.0,2.5141,2.5862,2.5641,2.6293,2.7637,2.8558,2.8946,2.8919,2.7973,2.7522,2.7442,2.5783,2.5269,2.5867,0.0,0.0,0.0,0.0,2.7144,2.8018,2.8489,2.9053,2.9754,2.9767,2.9902,3.0117,2.9501,2.9316,2.9458,2.8622,2.8092,2.7888,2.7726,0.0,0.0,0.0,0.0,0.0,0.0,0.0,0.0,0.0,0.0,0.0,0.0,0.0,0.0,0.0,0.0,0.0,0.0,0.0,2.2339,2.2283,2.2169,0.0,0.0,0.0,0.0,0.0,0.0,0.0,0.0,0.0,2.2027,2.2255,2.2555,0.0,0.0,2.2718,2.2718,2.2856,2.2822,2.2283,0.0,0.0,0.0,2.2453,2.2472,2.2398,2.2457,2.2514,2.2767,2.3043,2.3471,2.3874,2.3924,2.3781,2.3513,2.37,2.383,2.3906,2.3882,2.3802,2.3702,2.3687,2.3633,2.7472,2.6324,2.5353,2.4912,2.4912,2.4899,2.4912,2.4899,2.4958,2.5018,2.5018,2.5018,2.5018,2.5031,2.5018,0.0,0.0,0.0,2.6067,2.6581,2.6225,2.6854,2.8271,2.925,2.9566,2.928,2.8417,2.8023,2.7997,2.696,2.6747,2.7157,0.0,0.0,2.6516,2.7048,2.7538,2.7986,2.8686,2.9283,2.9904,2.9767,2.9741,2.9854,2.9507,2.9281,2.9121,2.8619,2.8153,2.783,2.7754,2.7225,0.0,0.0,0.0,0.0,0.0,0.0,0.0,0.0,0.0,0.0,0.0,2.3306,2.299,0.0,0.0,0.0,2.3058,2.2929,2.276,2.2878,0.0,0.0,0.0,0.0,0.0,0.0,0.0,2.262,2.2442,2.2343,2.2302,2.2492,2.273,2.2925,2.2865,2.2782,2.2782,0.0,2.2644,2.2183,2.2117,2.2149,2.2184,2.2138,2.2226,2.2428,2.278,2.3058,2.3199,2.3434,2.3709,2.4047,2.4023,2.3995,2.4103,2.4288,2.4395,2.4212,2.4198,2.4089,2.3978,2.4078,2.4098,2.9327,2.9091,2.6987,2.6073,2.602,2.6033,2.6033,2.602,2.6033,2.6059,2.6099,2.6099,2.6035,2.6035,2.6022,0.0,0.0,2.6388,2.6719,2.7084,2.635,2.6968,2.8656,2.9738,2.9738,2.8707,2.8464,2.8306,2.8293,2.8011,2.7925,2.7863,2.6375,2.6,2.67,2.7259,2.7686,2.8014,2.8776,2.9334,2.9757,2.9457,2.9223,2.9236,2.9184,2.8924,2.8347,2.8412,2.8011,2.7,2.7203,2.7086,2.6484,0.0,0.0,0.0,0.0,0.0,0.0,0.0,0.0,0.0,0.0,0.0,0.0,0.0,0.0,0.0,2.3037,0.0,2.3419,2.3876,0.0,0.0,0.0,2.3911,2.338,2.3167,2.2922,2.2628,0.0,0.0,2.2368,0.0,2.27,2.2761,2.2778,2.2778,2.2778,2.2573,2.2358,2.1911,2.1724,2.1626,2.1808,2.1815,2.201,2.2639,2.3253,2.3663,2.3758,2.379,2.3911,2.4178,2.4179,2.4284,2.4457,2.4478,2.4366,2.3963,2.3886,2.3875,2.3917,2.4069,2.4241,2.968,2.9222,2.8686,2.819,2.7785,2.7771,2.7771,2.7771,2.7758,2.8033,2.8464,2.8326,2.8105,2.7927,2.7927,2.794,2.8035,2.7882,2.7926,2.802,2.7938,2.8275,2.8812,2.9202,2.9391,2.9366,2.8687,2.8274,2.8262,2.7468,2.7112,2.7087,2.6676,2.6915,2.7612,2.7822,2.8176,2.8746,2.8872,2.9238,2.9745,2.9631,2.9606,2.9618,2.9163,2.8885,2.8746,2.815,2.7633,2.7365,2.7268,2.6961,2.64,2.624,0.0,0.0,0.0,0.0,0.0,0.0,0.0,0.0,0.0,2.3498,2.3223,0.0,2.4262,0.0,2.4323,2.4268,2.405,2.3993,0.0,0.0,2.3364,2.3246,2.2933,2.2514,2.2306,2.2499,2.2287,2.2131,2.2349,2.2414,2.2435,2.2467,2.253,2.2541,2.2467,2.2456,2.2413,2.2252,2.2252,2.2328,2.2645,2.2875,2.3044,2.3219,2.329,2.346,2.3815,2.3877,2.4023,2.4366,2.447,2.4426,2.4433,2.455,2.4478,2.4345,2.4303,2.4303,2.4303,2.4366,2.4459,3.0333,3.0032,3.0032,2.9693,2.8989,2.8882,2.8778,2.8791,2.8721,2.8833,2.9145,2.8918,2.8677,2.8448,2.8448,2.8388,2.828,2.8287,2.8238,2.8189,2.8595,2.879,2.8688,2.8578,2.879,2.9172,2.859,2.821,2.8017,2.743,2.7054,2.6976,2.6976,2.7198,2.7637,2.7824,2.8,2.8282,2.8427,2.8651,2.8802,2.9049,2.9061,2.8815,2.8778,2.8654,2.8408,2.7644,2.7148,2.6924,2.6728,2.6493,2.6123,2.6136,2.5986,0.0,0.0,0.0,0.0,0.0,0.0,0.0,0.0,0.0,0.0,0.0,2.462,0.0,2.4491,2.4275,2.3779,2.3874,2.3759,2.3339,2.3329,2.3338,2.3293,2.2945,2.2769,2.3198,2.2875,2.2677,2.2843,2.2808,2.273,2.273,2.273,2.2724,2.2709,2.2815,2.2843,2.2913,2.2822,2.2835,2.3123,2.3489,2.3658,2.3669,2.3743,2.3877,2.4126,2.4167,2.425,2.4402,2.4464,2.4368,2.4368,2.4282,2.4186,2.4166,2.4176,2.4282,2.4464,2.455,2.4464,3.112,3.112,3.1055,3.0641,2.9986,2.9587,2.9386,2.9321,2.9106,2.9086,2.9091,2.8809,2.8578,2.8371,2.8384,2.8175,2.7928,2.8133,2.811,2.8057,2.8676,2.8735,2.8339,2.7945,2.7956,2.8339,2.8099,2.7914,2.7649,2.751,2.7267,2.7103,2.7103,2.7103,2.7162,2.7411,2.7477,2.7406,2.7743,2.7846,2.7633,2.81,2.8112,2.7669,2.8088,2.8124,2.7669,2.7131,2.6641,2.6137,2.5972,2.5893,2.5954,2.5809,2.5685,0.0,2.5211,0.0,0.0,0.0,0.0,0.0,0.0,0.0,0.0,2.476,2.474,2.4536,2.4347,2.4066,2.3511,2.3793,2.386,2.3311,2.3463,2.3738,2.3919,2.3666,2.3595,2.4025,2.3668,2.3426,2.3384,2.3265,2.3184,2.3132,2.3194,2.3171,2.3187,2.3255,2.336,2.3462,2.3343,2.3317,2.3318,2.367,2.396,2.4002,2.4229,2.4454,2.4423,2.4348,2.4358,2.4368,2.4282,2.4196,2.4186,2.3927,2.3734,2.374,2.379,2.3831,2.4251,2.4358,2.4378,3.1806,3.1768,3.1305,3.1061,3.092,3.043,2.9941,2.9442,2.9455,2.9489,2.9618,2.9363,2.9031,2.8721,2.8733,2.859,2.8379,2.8032,2.7909,2.7829,2.8044,2.7917,2.7429,2.7047,2.7047,2.7429,2.7208,2.7138,2.7044,2.688,2.6715,2.6715,2.6727,2.6715,2.6704,0.0,0.0,0.0,2.7117,2.7117,2.7279,2.7371,2.7383,2.7279,2.7371,0.0,2.7279,2.6792,2.6479,2.6364,2.5883,0.0,0.0,0.0,0.0,0.0,0.0,0.0,0.0,0.0,0.0,0.0,2.5557,2.5396,2.453,2.5226,2.5841,2.6115,2.5929,2.562,2.5281,2.496,2.4635,2.4205,2.4048,2.3989,2.3838,2.361,2.3492,2.3566,2.3426,2.3275,2.3306,2.3184,2.3205,2.3256,2.334,2.3432,2.3443,2.3381,2.3275,2.3234,2.3494,2.3732,2.3753,2.4115,2.4289,2.4351,2.4296,2.4292,2.4196,2.4024,2.3937,2.3927,2.3927,2.382,2.3877,2.3724,2.3541,2.3553,2.3384,2.3367,2.3816,2.3953,2.3937,3.1966,0.0,3.1592,3.1293,0.0,3.0527,2.9993,2.9549,2.9618,2.9503,2.9287,2.9197,2.887,2.8486,2.8395,2.8223,2.8007,2.7522,2.7348,2.736,2.7277,2.7113,2.6857,2.6476,2.6487,2.6869,2.6798,2.6644,2.6396,2.6313,2.6135,2.5874,2.5874,2.5874,2.5874,2.5874,2.6207,2.688,2.6741,2.6628,2.6529,2.6744,2.6755,2.6529,0.0,0.0,0.0,0.0,0.0,0.0,0.0,0.0,0.0,0.0,0.0,2.6194,2.5972,2.5831,2.5819,2.5669,2.5582,2.5378,2.5695,2.5647,2.5043,2.5526,2.5861,2.5954,2.5824,2.5581,2.5216,2.4904,2.4601,2.4295,2.3988,2.3822,2.3974,2.3853,2.3783,2.3981,2.394,2.3773,2.369,2.369,2.3606,2.3523,2.3612,2.3669,2.3669,2.3581,2.3523,2.3523,2.3686,2.3859,2.388,2.4012,2.4186,2.411,2.411,2.4024,2.4024,2.3851,2.3667,2.3677,2.3493,2.3299,2.326,2.3105,2.2911,2.2785,2.2688,2.2599,2.2804,2.3096,2.3416,3.1946,3.1782,3.1682,3.1385,3.0993,3.0367,2.989,2.954,0.0,0.0,0.0,2.8633,2.8327,2.8007,2.7742,2.7499,2.736,2.6962,2.6727,2.6727,2.6467,2.6385,2.6385,2.6019,2.6063,2.6435,2.6523,2.64,2.6062,2.5986,2.5678,2.5317,2.5243,2.52,2.52,2.52,2.5538,2.6218,2.629,2.6113,2.5736,2.6102,2.6113,2.5713,2.5915,2.603,2.5935,2.5398,2.5191,2.5365,2.5054,2.506,2.5296,2.5464,2.5542,2.5633,2.5633,2.5644,2.5644,2.5633,2.5475,2.5307,2.555,2.5652,2.562,2.5665,2.5633,2.5475,2.5397,2.516,2.4832,2.4614,2.4384,2.4234,2.3911,2.3845,2.4179,2.4075,2.4052,2.4382,2.4327,2.4272,2.4155,2.4069,2.4024,2.3831,2.3607,2.3667,2.358,2.3617,2.376,2.376,2.376,2.3734,2.3754,2.3647,2.3657,2.3667,2.3667,2.3657,2.358,2.3416,2.3242,2.3144,2.2882,2.2687,2.257,2.2413,2.2208,2.1989,2.1896,2.183,2.167,2.2143,2.2634,3.2327,3.2204,3.1577,3.1211,3.1162,3.0338,2.9774,2.9294,2.8676,2.8339,2.8247,2.7846,2.7592,2.7336,2.7126,2.688,2.6715,2.6396,2.624,0.0,2.5695,2.5516,2.538,2.5776,2.5958,2.6012,2.6397,2.6601,2.6469,2.6096,2.5893,2.5753,2.5402,2.5211,2.52,2.5031,2.5031,2.5115,2.5285,2.5337,2.5273,2.5337,2.5337,2.5284,2.5326,2.5285,2.5105,2.4967,2.4935,2.4999,2.4658,2.483,2.5456,2.5262,2.5392,2.581,2.5854,2.5865,2.5854,2.5677,2.5416,2.526,2.523,2.5402,2.5777,2.5998,2.6068,2.6057,2.5694,2.5416,2.5333,2.505,2.4777,2.4724,2.4502,2.4374,2.4426,2.4255,2.42,2.4196,2.4024,2.3927,2.3841,2.3841,2.3754,2.359,2.3319,2.3057,2.2872,2.3319,2.3754,2.3754,2.3667,2.358,2.3416,2.3319,2.3222,2.3232,2.3057,2.2969,2.2969,2.2627,2.2353,2.2274,2.2087,2.1909,2.1811,2.1642,2.1535,2.1471,2.1168,2.0969,2.0922,2.1051,2.1375,3.1937,3.1749,3.1529,3.1221,3.0826,2.9933,2.9213,2.8763,2.8326,2.8107,2.8263,2.8012,2.7854,2.7612,2.726,2.7101,2.7004,2.6584,2.6325,2.6238,2.5881,2.5794,2.5987,2.6309,2.6306,2.6119,2.632,2.6246,2.5976,2.5757,2.5575,2.5465,2.5269,2.5166,2.5166,2.489,2.4801,2.4791,2.4843,2.485,2.484,2.485,2.484,2.485,2.4605,2.4433,2.4262,2.409,2.409,2.4262,2.4152,2.4386,2.4914,2.4798,2.4872,2.5084,2.5115,2.5115,2.5115,2.502,2.4935,2.485,2.485,2.4925,2.5059,2.5481,2.5695,2.5695,2.5443,2.5359,2.5274,2.4946,2.47,2.47,2.4358,2.41,2.41,2.4013,2.4013,2.3927,2.3754,2.359,2.3406,2.3319,2.3144,2.2969,2.2706,2.2451,2.2078,2.2353,2.2784,2.2969,2.296,2.2882,2.2803,2.2618,2.253,2.2353,2.2264,2.2185,2.2185,2.1919,2.1651,2.1544,2.1275,2.1105,2.1015,2.0835,2.0727,2.0628,2.0629,2.054,2.0465,2.0417,2.0702,3.1205,3.105,3.1305,3.0909,3.0158,2.9432,2.8779,2.8277,2.8188,2.8188,2.8232,2.8119,2.793,2.769,2.7326,2.7138,2.705,2.6793,2.6515,2.6515,2.6062,2.6072,2.6367,2.6472,2.6435,2.6142,2.6123,2.6002,2.5645,2.5462,2.5249,2.4985,2.4965,2.4965,2.4874,2.469,2.4506,2.4467,2.4286,2.4287,2.4451,2.4451,2.4451,2.4451,2.4122,2.3869,2.3791,2.3526,2.3389,2.3642,2.372,2.3844,2.4166,2.4155,2.4155,2.4155,2.4155,2.4155,2.4155,2.4155,2.4166,2.4166,2.4166,2.4155,2.4241,2.4498,2.4765,2.4946,2.4861,2.485,2.4775,2.4529,2.4368,2.4358,2.4024,2.3754,2.3754,2.3657,2.358,2.358,2.3416,2.3144,2.2882,2.2706,2.2539,2.2264,2.1998,2.1731,2.1553,2.1463,2.1633,2.1811,2.2078,2.2087,2.1919,2.182,2.1741,2.1463,2.1374,2.1374,2.1284,2.1203,2.1024,2.0736,2.0555,2.0443,2.0212,2.0154,2.0112,1.9978,2.0062,2.0087,2.005,2.0075,2.0358,3.0306,3.0318,3.0331,2.9828,2.905,2.9039,2.8822,2.8419,2.8347,2.8265,2.8011,2.7608,2.7259,2.6972,2.6826,2.6747,2.6758,2.6626,2.6457,2.6277,2.5986,2.5815,2.5716,2.5869,2.5855,2.5812,2.6029,2.5988,2.5882,2.5356,2.4795,2.4434,2.4394,2.4424,2.4322,2.4166,2.399,2.3701,2.3532,2.3651,2.4277,2.4277,2.4359,2.4369,2.4268,2.4195,2.39,2.3958,2.3765,2.35,2.3451,2.3357,2.33,2.3232,2.3232,2.3242,2.3251,2.3232,2.3232,2.3222,2.3242,2.3222,2.3232,2.3212,2.3222,2.3309,2.358,2.4013,2.4013,2.4003,2.3917,2.3841,2.3841,2.3841,2.358,2.3493,2.3416,2.3144,2.2882,2.2882,2.2706,2.2441,2.2274,2.2185,2.1919,2.1562,2.1275,2.1006,2.0835,2.0744,2.0744,2.0744,2.1024,2.1392,2.1392,2.1105,2.0925,2.0835,2.0564,2.049,2.0508,2.0335,2.0036,2.013,1.9929,1.9777,1.978,1.9768,1.9764,1.9698,1.9629,1.9517,1.9606,1.972,1.9992,2.9382,2.9405,2.9402,2.8894,2.8319,2.8351,2.8373,2.8186,2.8186,2.7998,2.7767,2.7408,2.7434,2.7526,2.726,2.7167,2.7167,2.69,2.6713,2.661,2.6339,2.6141,2.5879,2.5934,2.5833,2.5459,2.5441,2.5314,2.5089,2.4742,2.4369,2.4228,2.42,2.42,2.4209,2.3929,2.3736,2.3639,2.3463,2.3463,2.3671,2.355,2.3495,2.3486,2.3299,2.3214,2.313,2.2951,2.2868,2.2889,2.288,2.2899,2.3016,2.2997,2.2997,2.2997,2.3007,2.3007,2.2997,2.2762,2.2621,2.2621,2.2396,2.2255,2.2264,2.2264,2.2432,2.2706,2.3144,2.3396,2.3406,2.3232,2.3232,2.3144,2.2969,2.2803,2.2627,2.2539,2.2362,2.2185,2.1919,2.183,2.1651,2.1472,2.1114,2.0753,2.0564,2.0283,2.0119,2.0036,2.0036,1.9945,2.0127,2.04,2.0482,2.0391,2.0218,2.0036,1.9945,1.9879,1.9936,1.9876,1.9755,1.966,1.9573,1.9439,1.9341,1.9372,1.9325,1.9406,1.9618,1.9562,1.988,1.9774,1.9781,2.8456,2.8488,2.8355,2.8008,2.7432,2.7589,2.762,2.762,2.762,2.7536,2.7251,2.7167,2.7251,2.7526,2.7347,2.7262,2.7262,2.6986,2.6699,2.6699,2.64,2.6091,2.5907,2.5703,2.5518,2.5128,2.4726,2.444,2.4233,2.3935,2.3728,2.3737,2.3728,2.3628,2.3628,2.3429,2.3329,2.322,2.3129,2.3046,2.2859,2.2699,2.2697,2.2889,2.2601,2.2504,2.2496,2.2311,2.2259,2.2354,2.2354,2.2387,2.247,2.2461,2.247,2.247,2.247,2.247,2.2461,2.2191,2.2021,2.2003,2.1751,2.1608,2.1599,2.1608,2.1599,2.1708,2.2224,2.2645,2.2715,2.2618,2.253,2.2539,2.2264,2.2087,2.1928,2.182,2.1731,2.1463,2.1293,2.1122,2.0934,2.0663,2.0292,2.0127,1.9936,1.9662,1.9487,1.9396,1.9396,1.9212,1.9212,1.9387,1.9662,1.9787,1.9602,1.9483,1.9439,1.9461,1.955,1.9582,1.9511,1.9364,1.9318,1.9344,1.9307,1.9231,1.9094,1.9052,1.9162,1.9376,1.9428,1.939,1.9286,2.7904,2.7631,2.7431,2.6989,2.6305,2.6798,2.686,2.6678,2.6592,2.6592,2.6582,2.6496,2.6496,2.6592,2.6496,2.6486,2.6592,2.6496,2.6294,2.61,2.58,2.5616,2.5342,2.4833,2.4529,2.443,2.3935,2.3637,2.3447,2.3138,2.2929,2.2929,2.2728,2.2627,2.2627,2.2619,2.2426,2.2224,2.2224,2.2021,2.1818,2.1777,2.2122,2.2715,2.2659,2.2424,2.2441,2.2458,2.2304,2.197,2.1953,2.179,2.1465,2.1422,2.1448,2.1439,2.1422,2.1422,2.1439,2.1396,2.1371,2.1362,2.1293,2.1302,2.1337,2.1328,2.1234,2.1311,2.1432,2.1573,2.1753,2.1788,2.1832,2.1823,2.1616,2.1455,2.1446,2.132,2.1024,2.0797,2.0767,2.0702,2.0178,1.9762,1.9729,1.9637,1.9612,1.9412,1.902,1.8827,1.8643,1.8365,1.8365,1.845,1.9036,1.9236,1.9241,1.9162,1.9223,1.9205,1.9154,1.9086,1.9102,1.914,1.9026,1.9047,1.9197,1.9115,1.9001,1.892,1.8622,1.8688,1.8848,1.8632,1.8527,2.6976,2.688,2.6774,2.6648,2.6426,2.6572,2.6486,2.6294,2.6207,2.61,2.6004,2.582,2.5723,2.5723,2.5518,2.5713,2.6197,2.5907,2.5625,2.5323,2.502,2.4716,2.4322,2.4035,2.3827,2.3429,2.3129,2.2728,2.2333,2.2232,2.2123,2.2131,2.2021,2.2021,2.203,2.203,2.1928,2.1827,2.1818,2.1827,2.1733,2.1522,2.1623,2.1827,2.192,2.203,2.2021,2.2021,2.1963,2.1737,2.1728,2.167,2.1545,2.152,2.1528,2.1528,2.1528,2.152,2.1495,2.141,2.1293,2.1187,2.0962,2.0853,2.0837,2.0829,2.0829,2.0837,2.0837,2.0948,2.1011,2.1275,2.1453,2.1462,2.136,2.1258,2.1199,2.1096,2.0908,2.072,2.0634,2.054,2.0309,1.9971,1.9613,1.9405,1.9169,1.8785,1.8512,1.8357,1.8272,1.8179,1.8087,1.8087,1.8179,1.8652,1.882,1.9043,1.9138,1.9117,1.9109,1.8892,1.8829,1.8905,1.8825,1.8731,1.8803,1.8671,1.8587,1.8554,1.8268,1.8156,1.8436,1.8115,1.7989,2.611,2.611,2.6014,2.6004,2.6014,2.6014,2.5907,2.5703,2.5606,2.5499,2.5314,2.502,2.4932,2.4833,2.4637,2.4716,2.5206,2.503,2.4833,2.4538,2.4223,2.3945,2.3664,2.3347,2.3046,2.2745,2.2434,2.203,2.1725,2.1623,2.1522,2.1632,2.153,2.142,2.142,2.142,2.142,2.142,2.142,2.142,2.1428,2.1216,2.1019,2.1019,2.1113,2.1318,2.142,2.142,2.1428,2.1318,2.1326,2.1318,2.1208,2.1216,2.1216,2.1208,2.12,2.1216,2.1191,2.0998,2.0877,2.0869,2.056,2.0408,2.04,2.04,2.0498,2.04,2.04,2.04,2.0498,2.0679,2.0973,2.1088,2.1109,2.1021,2.0732,2.0732,2.0523,2.0216,2.0111,2.0136,2.0071,1.9771,1.9466,1.9255,1.877,1.8388,1.8112,1.7867,1.7714,1.7621,1.752,1.75,1.7581,1.7912,1.8238,1.8446,1.8748,1.8895,1.8883,1.8665,1.8561,1.8672,1.8541,1.8429,1.8297,1.8144,1.8053,1.7996,1.7806,1.7496,1.7589,1.7694,1.7364,2.5342,2.5235,2.5039,2.4932,2.4932,2.4932,2.4932,2.4833,2.4637,2.4529,2.443,2.4233,2.4026,2.4035,2.3827,2.3628,2.3529,2.4035,2.4035,2.3628,2.3429,2.3382,2.3444,2.2569,2.2241,2.2376,2.1945,2.1623,2.1522,2.1318,2.1224,2.1224,2.1019,2.0917,2.0925,2.0917,2.0925,2.0917,2.0917,2.0917,2.0925,2.0609,2.0514,2.0514,2.03,2.0395,2.0814,2.0917,2.0822,2.0624,2.0522,2.0403,2.0189,2.0189,2.0086,2.0181,2.0181,2.0078,2.0189,2.0166,2.0128,2.0128,2.004,2.0074,2.0051,2.0082,2.0089,2.0066,2.0082,2.0017,2.0097,2.0082,2.028,2.0525,2.0573,2.0484,2.0354,2.0208,1.9997,1.9654,1.9406,1.9132,1.9124,1.9216,1.9102,1.8996,1.8559,1.8045,1.7735,1.7326,1.6899,1.6683,1.6683,1.6834,1.6943,1.7064,1.7435,1.7761,1.8122,1.8323,1.8344,1.8192,1.8178,1.8122,1.801,1.7898,1.7681,1.7535,1.7318,1.7246,1.7047,1.6855,1.6842,1.6842,1.663,2.443,2.443,2.4332,2.4332,2.4332,2.4341,2.4233,2.4026,2.3926,2.3737,2.3429,2.3329,2.3238,2.3029,2.2929,2.2728,2.2535,2.2728,2.2728,2.2636,2.2526,2.2451,2.2393,2.2046,2.1733,2.1342,2.1035,2.0814,2.0601,2.049,2.0498,2.049,2.0395,2.0403,2.0395,2.0395,2.0395,2.0395,2.0388,2.0395,2.0292,2.0292,2.0197,2.0197,2.0189,2.0086,2.0094,2.03,2.03,2.0197,2.0189,2.0086,1.9879,1.968,1.9583,1.9576,1.9576,1.9576,1.9576,1.9576,1.9472,1.9576,1.9583,1.9583,1.9583,1.9576,1.9472,1.9576,1.9576,1.9576,1.9583,1.9583,1.9663,2.0194,2.028,2.0233,2.0117,2.0047,1.9976,1.9671,1.9577,1.9483,1.9271,1.9045,1.8825,1.8642,1.8059,1.7618,1.7071,1.6717,1.6407,1.6116,1.613,1.6042,1.6074,1.6126,1.639,1.6751,1.7204,1.759,1.7684,1.7687,1.7589,1.7483,1.7371,1.7259,1.7047,1.6817,1.6586,1.6411,1.6342,1.623,1.6099,1.5986,1.5779,2.3529,2.3529,2.3529,2.3529,2.3529,2.3538,2.3429,2.3229,2.3129,2.2929,2.2627,2.2526,2.2325,2.2131,2.203,2.1827,2.1522,2.1522,2.142,2.1412,2.1615,2.1758,2.1799,2.1334,2.1011,2.0609,2.0411,2.03,2.0086,2.0086,2.0086,2.0086,2.0086,2.0086,2.0086,2.0086,2.0086,2.0086,2.0086,2.0078,1.9983,1.9887,1.9768,1.9665,1.9561,1.9354,1.9153,1.9264,1.9457,1.9561,1.9465,1.9257,1.9056,1.8848,1.8646,1.8646,1.8639,1.8639,1.8639,1.8639,1.8639,1.8639,1.8639,1.8639,1.8639,1.8639,1.8639,1.8639,1.8639,1.8639,1.8646,1.8646,1.884,1.9138,1.9546,1.9672,1.9665,1.9561,1.9346,1.922,1.9131,1.8959,1.8855,1.852,1.8345,1.8032,1.7571,1.7061,1.6572,1.6082,1.573,1.5408,1.5255,1.5166,1.5172,1.5294,1.5246,1.5748,1.6208,1.6607,1.6801,1.6765,1.6743,1.663,1.6524,1.6411,1.6193,1.5825,1.5594,1.5553,1.5505,1.5279,1.5154,1.5137,1.4922,2.2426,2.2434,2.2426,2.2426,2.2426,2.2434,2.2426,2.2325,2.2123,2.2021,2.1928,2.1725,2.153,2.1318,2.1216,2.1011,2.0617,2.0609,2.0498,2.0395,2.0609,2.1051,2.1312,2.0609,2.0174,2.0086,2.0078,2.0078,1.9983,1.9983,2.0086,1.9983,1.9983,1.9983,1.9879,1.9983,1.9872,1.9872,1.9879,1.9768,1.9576,1.9368,1.9063,1.8833,1.8527,1.8318,1.801,1.7905,1.8108,1.8617,1.8318,1.8016,1.7911,1.7694,1.7477,1.7477,1.747,1.7477,1.7477,1.7477,1.7477,1.7477,1.7477,1.7477,1.7477,1.7477,1.7477,1.7477,1.7477,1.7477,1.7477,1.7477,1.7575,1.7681,1.8422,1.8945,1.8722,1.852,1.8422,1.8325,1.8115,1.7911,1.7911,1.7694,1.7569,1.7397,1.6873,1.6477,1.6036,1.5556,1.4998,1.4667,1.4467,1.4298,1.4208,1.4232,1.4285,1.4552,1.4969,1.533,1.5774,1.5753,1.5779,1.5672,1.5559,1.5452,1.5334,1.4967,1.4753,1.4702,1.452,1.4207,1.4088,1.4067,1.3948,2.1318,2.1318,2.1326,2.1318,2.1318,2.1326,2.1326,2.1326,2.1224,2.1113,2.0925,2.0822,2.0712,2.049,2.0388,2.0292,2.0189,2.0189,2.0189,2.0078,1.9983,2.0205,2.0308,1.9826,1.962,1.9768,1.9776,1.968,1.948,1.9583,1.9472,1.9472,1.9472,1.9376,1.9272,1.9272,1.9056,1.884,1.884,1.884,1.8736,1.8534,1.8331,1.822,1.7898,1.7582,1.7054,1.6636,1.6948,1.7793,1.7364,1.7054,1.6948,1.663,1.6311,1.6311,1.6311,1.6311,1.6311,1.6311,1.6318,1.6311,1.6311,1.6311,1.6311,1.6311,1.6305,1.6311,1.6311,1.6311,1.6311,1.6318,1.6311,1.6524,1.7265,1.7898,1.7891,1.7898,1.7694,1.7589,1.749,1.7173,1.6855,1.6643,1.653,1.6374,1.6002,1.5677,1.5288,1.4832,1.4255,1.3808,1.3504,1.3299,1.3147,1.3244,1.3252,1.3386,1.3751,1.4029,1.4356,1.4674,1.4657,1.4595,1.4487,1.4487,1.4358,1.4223,1.404,1.3846,1.3537,1.3222,1.3103,1.3088,1.2871,2.0601,2.0609,2.0601,2.0498,2.0609,2.0609,2.0609,2.0609,2.0609,2.0506,2.03,2.03,2.0189,1.9983,1.9975,1.9879,1.9776,1.9783,1.9783,1.9687,1.9598,1.9702,1.9672,1.9413,1.9435,1.9472,1.9576,1.948,1.9279,1.9182,1.9175,1.9071,1.8959,1.8848,1.875,1.8548,1.8443,1.822,1.8108,1.8003,1.7905,1.7589,1.7378,1.7272,1.7054,1.6624,1.5992,1.5565,1.5885,1.6524,1.6411,1.6099,1.5992,1.5565,1.5244,1.5244,1.5244,1.5131,1.5137,1.5137,1.5137,1.5137,1.5137,1.5244,1.5137,1.5137,1.5131,1.5244,1.5131,1.5244,1.5244,1.5244,1.5244,1.5244,1.5773,1.6411,1.6842,1.6836,1.6849,1.6636,1.653,1.643,1.5998,1.5785,1.5571,1.5328,1.5146,1.4778,1.4526,1.3951,1.3543,1.3227,1.2883,1.2683,1.2449,1.2454,1.2485,1.2576,1.2643,1.286,1.3229,1.3526,1.3573,1.3516,1.3408,1.3408,1.3393,1.3275,1.3063,1.2758,1.2555,1.2341,1.2332,1.2114,1.1896,1.9879,1.9975,1.9864,1.9983,1.9872,1.9879,1.9872,1.9872,1.9879,1.9879,1.9879,1.9872,1.9672,1.9576,1.9457,1.9368,1.9168,1.916,1.916,1.9175,1.9189,1.9197,1.916,1.9153,1.9153,1.9168,1.9168,1.9168,1.9071,1.8862,1.8869,1.8764,1.8534,1.8318,1.822,1.8016,1.7918,1.7701,1.7483,1.7272,1.706,1.6743,1.653,1.6217,1.5785,1.5458,1.4928,1.4606,1.4815,1.5565,1.5351,1.5143,1.4928,1.4606,1.439,1.4169,1.4169,1.4169,1.4169,1.4169,1.4169,1.4169,1.4169,1.4062,1.4169,1.4169,1.4169,1.4169,1.4062,1.4169,1.4169,1.4169,1.4169,1.4277,1.4277,1.46,1.5351,1.5678,1.5678,1.5678,1.5452,1.5345,1.5131,1.4917,1.4498,1.4493,1.4223,1.4051,1.372,1.3231,1.2982,1.2678,1.2429,1.2062,1.1851,1.1755,1.1697,1.1694,1.1787,1.1996,1.2187,1.2413,1.2427,1.2441,1.255,1.2545,1.2323,1.2209,1.1991,1.1773,1.1678,1.1568,1.1459,1.1244,1.1025,1.8736,1.8729,1.8736,1.8729,1.8729,1.8729,1.884,1.8833,1.884,1.884,1.8833,1.884,1.8736,1.8743,1.8736,1.8632,1.8639,1.8632,1.8639,1.8632,1.8541,1.8541,1.8534,1.8534,1.8632,1.8632,1.8632,1.8639,1.8527,1.8534,1.8436,1.8233,1.8016,1.7905,1.749,1.7384,1.7073,1.6755,1.6643,1.6424,1.6211,1.5885,1.5565,1.525,1.4611,1.418,1.3964,1.3748,1.3527,1.3635,1.3851,1.4072,1.3856,1.3743,1.3527,1.3418,1.3418,1.3418,1.3527,1.3418,1.3418,1.3418,1.3418,1.3527,1.3532,1.3423,1.3423,1.3527,1.3527,1.3418,1.3418,1.3423,1.3418,1.3418,1.3418,1.3527,1.3851,1.4277,1.46,1.4595,1.4487,1.4385,1.418,1.4067,1.3748,1.3635,1.3408,1.3176,1.2876,1.2554,1.237,1.2274,1.1907,1.1555,1.1447,1.1259,1.1205,1.1059,1.1087,1.1016,1.1319,1.1463,1.1573,1.1682,1.1796,1.1682,1.1455,1.1354,1.124,1.1021,1.0798,1.0798,1.0692,1.048,1.0406,1.8422,1.8422,1.8422,1.8422,1.8422,1.8422,1.8422,1.8422,1.8422,1.8422,1.8422,1.8422,1.8422,1.8422,1.8422,1.8318,1.822,1.8108,1.7905,1.8023,1.8156,1.8051,1.7687,1.7687,1.7786,1.8108,1.822,1.8115,1.8003,1.7898,1.7701,1.7602,1.7384,1.7067,1.6743,1.653,1.6336,1.6028,1.5696,1.5357,1.5137,1.4815,1.4385,1.4067,1.3532,1.3207,1.2876,1.2767,1.255,1.2441,1.255,1.2767,1.2876,1.2767,1.2659,1.255,1.255,1.255,1.255,1.255,1.2436,1.255,1.2441,1.2446,1.2555,1.2555,1.2555,1.2446,1.2446,1.2446,1.255,1.255,1.255,1.255,1.255,1.255,1.2659,1.3202,1.3743,1.363,1.363,1.3413,1.3202,1.3098,1.2989,1.2767,1.255,1.2318,1.2318,1.2018,1.1896,1.1702,1.1447,1.1142,1.0918,1.0843,1.0584,1.0551,1.0466,1.0429,1.0464,1.0586,1.0696,1.081,1.092,1.0696,1.0472,1.048,1.048,1.0366,1.0253,1.0143,1.0044,1.0067,1.0009,1.8206,1.8108,1.8101,1.8101,1.8101,1.8108,1.8108,1.8108,1.8108,1.8003,1.8101,1.8101,1.8003,1.8101,1.8108,1.801,1.7701,1.7483,1.7272,1.7073,1.7675,1.743,1.6849,1.6611,1.6717,1.7589,1.7595,1.7483,1.7378,1.7166,1.6961,1.6855,1.643,1.6111,1.5891,1.5565,1.5374,1.5409,1.4838,1.4277,1.3948,1.3743,1.3418,1.2985,1.2767,1.2441,1.2114,1.2005,1.1896,1.1568,1.1568,1.1678,1.1782,1.1891,1.1891,1.1678,1.1787,1.1787,1.1787,1.1678,1.1678,1.1568,1.1678,1.1678,1.1678,1.1787,1.1791,1.1682,1.1791,1.1791,1.1568,1.1787,1.1678,1.1678,1.1678,1.1568,1.1787,1.2446,1.2772,1.2772,1.2659,1.2545,1.2441,1.2223,1.2114,1.1896,1.1678,1.1459,1.1459,1.1455,1.1319,1.1197,1.0961,1.0692,1.0469,1.0461,1.0201,1.0132,1.0025,0.9919,0.9816,0.9926,1.004,1.0036,1.0036,0.9926,0.9923,0.9923,0.9923,0.9706,0.9596,0.9596,0.9621,0.9654,0.9626,1.7265,1.6942,1.6942,1.6942,1.7047,1.7047,1.7047,1.6942,1.7047,1.6948,1.7047,1.6942,1.7047,1.7047,1.6948,1.6849,1.6643,1.653,1.6318,1.6223,1.67,1.658,1.5992,1.5524,1.553,1.5986,1.6318,1.6424,1.6424,1.6211,1.5998,1.5779,1.5357,1.5143,1.4928,1.4606,1.4401,1.4429,1.3975,1.3413,1.297,1.2871,1.2767,1.2223,1.2005,1.1787,1.1678,1.1678,1.1459,1.1236,1.1236,1.1126,1.1017,1.1345,1.1455,1.1568,1.1459,1.1459,1.1459,1.1459,1.1568,1.1568,1.1459,1.1459,1.1568,1.1568,1.135,1.1459,1.1459,1.1573,1.1573,1.1489,1.1586,1.1581,1.1502,1.1502,1.1608,1.1726,1.1845,1.1872,1.1841,1.1787,1.1678,1.1678,1.1568,1.1459,1.124,1.1131,1.1021,1.0911,1.0794,1.0574,1.0453,1.0218,0.9995,0.9979,0.9881,0.987,0.9812,0.9592,0.9599,0.9489,0.9489,0.9485,0.9592,0.9592,0.9592,0.9478,0.9372,0.9265,0.9158,0.9051,0.9126,0.9205,0.9298,1.6743,1.653,1.653,1.6424,1.6311,1.6311,1.6311,1.6311,1.6311,1.6305,1.6311,1.6311,1.6311,1.6311,1.6311,1.6099,1.569,1.5464,1.525,1.5148,1.5505,1.5505,1.503,1.4449,1.4454,1.4691,1.4922,1.5143,1.5357,1.5137,1.4922,1.4809,1.4498,1.418,1.3959,1.3635,1.3428,1.3222,1.2994,1.2545,1.1878,1.211,1.1891,1.1678,1.135,1.124,1.1131,1.0911,1.0806,1.0696,1.0586,1.0366,1.0366,1.0476,1.0802,1.1021,1.1021,1.0911,1.0911,1.0802,1.0586,1.0696,1.0692,1.0692,1.0692,1.0582,1.0696,1.0696,1.07,1.0733,1.0715,1.083,1.0875,1.0952,1.0956,1.0952,1.0956,1.096,1.0944,1.1015,1.1249,1.1296,1.1131,1.1131,1.1021,1.0911,1.0806,1.0696,1.0582,1.0472,1.0253,1.0143,1.0033,0.9926,0.9706,0.9596,0.9485,0.9485,0.9375,0.9265,0.9154,0.9044,0.9044,0.893,0.9151,0.9261,0.9151,0.904,0.8819,0.8722,0.8644,0.8578,0.8552,0.8635,0.8852,1.6311,1.6004,1.6004,1.5897,1.5678,1.5571,1.5565,1.5565,1.5565,1.5565,1.5565,1.5577,1.5601,1.5654,1.5605,1.5418,1.4859,1.4658,1.4352,1.4243,1.4429,1.4391,1.38,1.3393,1.3259,1.3732,1.3521,1.3748,1.4175,1.4062,1.3954,1.3738,1.3527,1.3315,1.2985,1.2772,1.245,1.2232,1.2014,1.1673,1.1341,1.1236,1.124,1.0911,1.0798,1.0692,1.0472,1.0366,1.0257,1.0147,1.0033,0.9816,0.9816,0.9816,1.0036,1.0363,1.0363,1.0257,1.0147,1.0036,1.0036,1.0036,0.9816,0.9816,0.9816,1.004,0.9941,0.9853,0.9876,1.0058,1.019,1.0111,1.0167,1.0352,1.039,1.0293,1.0379,1.0478,1.0463,1.0611,1.0795,1.0727,1.06,1.0552,1.0568,1.0476,1.0363,1.0257,1.0147,1.0036,0.9926,0.9816,0.9706,0.9596,0.9375,0.9261,0.9151,0.904,0.893,0.8709,0.8598,0.8488,0.8484,0.8484,0.8598,0.8709,0.8598,0.8602,0.8488,0.8402,0.813,0.817,0.842,0.8493,0.8679,1.5458,1.5148,1.4928,1.4815,1.473,1.452,1.4396,1.4412,1.4423,1.4385,1.4445,1.4412,1.4538,1.4702,1.4793,1.4762,1.4424,1.4056,1.3703,1.3565,1.3466,1.3396,1.2894,1.2151,1.2237,1.2683,1.245,1.2767,1.3093,1.3093,1.2876,1.2654,1.2545,1.2223,1.2114,1.1896,1.1673,1.145,1.1564,1.135,1.0802,1.0586,1.0363,1.0147,1.0033,1.0033,1.0036,0.9926,0.9926,0.9816,0.9816,0.9816,0.9816,0.9816,0.9816,0.9926,0.9812,0.9812,0.9816,0.9706,0.9706,0.9706,0.9706,0.9816,0.9735,0.9765,0.9813,0.992,0.9923,0.9993,1.0119,1.0156,1.0293,1.0211,1.0259,1.0244,1.0229,0.997,1.0072,1.0047,1.017,1.017,0.9993,1.0047,0.9991,0.9891,0.9816,0.9831,0.9713,0.95,0.9375,0.9261,0.904,0.9044,0.904,0.8819,0.8709,0.8709,0.8488,0.8266,0.8266,0.8266,0.8045,0.8045,0.8162,0.8072,0.7982,0.7976,0.806,0.8036,0.7949,0.8121,0.8348,0.8378,0.8222,1.4259,1.4483,1.4374,1.4235,1.4013,1.3912,1.3684,1.3573,1.3568,1.3568,1.3568,1.3573,1.3628,1.362,1.3715,1.3616,1.3398,1.3189,1.2946,1.2731,1.2643,1.2479,1.219,1.1582,1.1372,1.1811,1.1735,1.1564,1.1896,1.2123,1.2005,1.1896,1.1782,1.1568,1.135,1.1131,1.0798,1.0578,1.0472,1.0472,1.0253,1.0033,0.9926,0.9816,0.9816,0.9816,0.9706,0.9596,0.9596,0.9485,0.9375,0.9268,0.9268,0.9268,0.9268,0.9268,0.9151,0.9261,0.9485,0.9382,0.9279,0.9272,0.9282,0.9307,0.9377,0.9469,0.9532,0.962,0.9631,0.9704,0.9817,0.9856,0.9915,0.994,0.9937,0.9832,0.9836,0.9744,0.9659,0.9639,0.9489,0.9496,0.9507,0.968,0.9731,0.9639,0.955,0.9402,0.9137,0.8755,0.8624,0.8598,0.8488,0.838,0.8377,0.8266,0.8266,0.8266,0.8156,0.8045,0.8045,0.7934,0.7736,0.7541,0.746,0.7362,0.7258,0.7452,0.7756,0.7818,0.7671,0.7749,0.7834,0.7474,0.7459,1.3141,1.3575,1.3638,1.3483,1.3288,1.3174,1.2941,1.2712,1.2698,1.2593,1.2501,1.2524,1.2556,1.2583,1.2623,1.2678,1.2302,1.228,1.2048,1.1927,1.1893,1.176,1.1458,1.0874,1.0892,1.1481,1.1044,1.0842,1.0785,1.0876,1.1198,1.1139,1.1021,1.0911,1.0582,1.0472,1.0253,1.0036,0.9926,0.9816,0.9706,0.9706,0.9596,0.9596,0.9592,0.9485,0.9482,0.9261,0.9154,0.8933,0.8823,0.8712,0.8716,0.8712,0.8712,0.8615,0.8523,0.867,0.89,0.89,0.8775,0.8782,0.8821,0.8904,0.897,0.9096,0.9182,0.9192,0.9202,0.9281,0.9384,0.9423,0.9453,0.9506,0.9546,0.9451,0.9211,0.9172,0.915,0.9258,0.9118,0.8877,0.8907,0.9308,0.9345,0.9371,0.9289,0.9094,0.8678,0.8158,0.8115,0.8091,0.8066,0.8066,0.7946,0.7832,0.7829,0.7733,0.7733,0.7527,0.7438,0.7343,0.714,0.6943,0.6754,0.6694,0.6623,0.7098,0.7477,0.7383,0.7235,0.7188,0.7099,0.6778,0.6528,1.2188,1.203,1.2431,1.2602,1.251,1.2259,1.2038,1.1731,1.1705,1.1599,1.1409,1.1507,1.1593,1.1622,1.1836,1.1902,1.1815,1.1475,1.1431,1.1387,1.1224,1.1028,1.0828,1.0492,1.0275,1.0513,1.0437,1.0247,1.0081,1.016,1.0181,0.9953,1.017,1.0044,0.9923,0.9926,0.9816,0.9596,0.9592,0.9485,0.9379,0.9379,0.9268,0.9047,0.8937,0.8823,0.8598,0.8595,0.8484,0.8266,0.8266,0.8156,0.8269,0.8295,0.8301,0.8208,0.8298,0.8338,0.8351,0.8464,0.8351,0.8271,0.845,0.8521,0.8668,0.8564,0.8515,0.8738,0.875,0.8809,0.8899,0.8961,0.8945,0.8955,0.8973,0.8851,0.8729,0.8729,0.8714,0.8848,0.8596,0.8088,0.7958,0.8119,0.8659,0.8698,0.8488,0.8299,0.8211,0.7914,0.7856,0.7927,0.7885,0.7756,0.7633,0.7427,0.7255,0.7043,0.6927,0.6721,0.6519,0.6531,0.6546,0.6484,0.6299,0.6127,0.6053,0.6224,0.635,0.664,0.6634,0.6526,0.6412,0.6166,0.5916,1.1374,1.1142,1.1537,1.1671,1.1782,1.1667,1.143,1.1193,1.1074,1.1074,1.0948,1.1025,1.1059,1.1075,1.1102,1.1152,1.1152,1.1027,1.1031,1.0899,1.0846,1.0703,1.0517,1.031,1.0215,1.0318,1.0135,0.9943,0.9878,0.9756,0.962,0.9639,0.9601,0.9614,0.9596,0.9382,0.9268,0.9158,0.904,0.8927,0.8819,0.8602,0.8491,0.838,0.838,0.8266,0.8156,0.8152,0.8152,0.8051,0.7949,0.7958,0.7865,0.8024,0.8054,0.796,0.7955,0.8014,0.8026,0.8144,0.8259,0.8289,0.8491,0.8455,0.8346,0.8518,0.8582,0.8636,0.8398,0.8308,0.8216,0.8236,0.8233,0.8238,0.8241,0.8116,0.7994,0.7997,0.7875,0.775,0.7505,0.7131,0.6884,0.6877,0.744,0.7873,0.7793,0.7592,0.7513,0.7346,0.7303,0.726,0.7225,0.7106,0.6876,0.6777,0.6565,0.6329,0.6098,0.5897,0.5807,0.5936,0.5955,0.5773,0.5576,0.5376,0.5283,0.5172,0.5331,0.5758,0.5908,0.5794,0.5677,0.5431,0.5304,1.0699,1.0517,1.0748,1.1035,1.1152,1.1027,1.0906,1.0668,1.066,1.0547,1.0547,1.0547,1.0547,1.0547,1.0547,1.0547,1.0543,1.0422,1.0425,1.0422,1.0418,1.0422,1.0382,1.0208,1.0021,1.0115,0.9937,0.9628,0.9559,0.9329,0.9169,0.9195,0.9301,0.9205,0.9113,0.8846,0.8608,0.8605,0.8488,0.8374,0.8266,0.8156,0.7934,0.7934,0.7937,0.775,0.7659,0.7567,0.7593,0.7497,0.7508,0.7497,0.7522,0.7675,0.7723,0.7659,0.7608,0.7682,0.7688,0.7805,0.806,0.8002,0.7934,0.7982,0.8133,0.8193,0.7967,0.7856,0.7864,0.7744,0.738,0.738,0.7255,0.7133,0.7136,0.7136,0.7011,0.6891,0.6891,0.6768,0.6401,0.6031,0.5786,0.5661,0.6139,0.6719,0.6815,0.6743,0.6553,0.6523,0.6403,0.6366,0.6334,0.6219,0.6109,0.597,0.583,0.5356,0.5131,0.5167,0.5072,0.5202,0.5115,0.4927,0.4714,0.4484,0.4493,0.4383,0.4648,0.5044,0.4931,0.4937,0.4689,0.4567,0.4321,1.0405,1.0297,1.0429,1.0554,1.0668,1.0539,1.0418,1.0183,1.0183,1.0061,0.9822,0.9822,0.9822,0.9822,0.9819,0.9822,0.9822,0.9822,0.9822,0.9822,0.9822,0.9819,0.9815,0.9791,0.965,0.9687,0.9513,0.9313,0.9116,0.9004,0.8704,0.8518,0.8678,0.8587,0.8697,0.823,0.8057,0.8051,0.8072,0.7976,0.7874,0.7879,0.7662,0.7556,0.7449,0.7156,0.6977,0.6878,0.6794,0.6614,0.6628,0.663,0.6645,0.6672,0.6693,0.6584,0.6679,0.6731,0.6736,0.7093,0.7253,0.7435,0.7337,0.7106,0.7006,0.7023,0.7023,0.7018,0.6648,0.6523,0.6278,0.6154,0.6029,0.5906,0.5906,0.5908,0.5908,0.5784,0.5663,0.579,0.5297,0.4926,0.4679,0.4556,0.4925,0.5287,0.5784,0.5865,0.568,0.5546,0.5425,0.5414,0.5385,0.5381,0.5255,0.5215,0.4958,0.448,0.438,0.4419,0.42,0.4089,0.4,0.3918,0.3921,0.3913,0.3805,0.3698,0.3453,0.3206,0.3948,0.3951,0.3703,0.358,0.358,0.9415,0.9464,0.9839,0.9839,0.9582,0.9576,0.9576,0.9339,0.9339,0.9339,0.9217,0.9217,0.922,0.9217,0.9217,0.922,0.922,0.922,0.922,0.922,0.9217,0.9217,0.9217,0.9217,0.9217,0.922,0.9092,0.8961,0.9026,0.8769,0.8769,0.8717,0.8132,0.8157,0.8414,0.8329,0.8205,0.797,0.7743,0.7629,0.7391,0.7153,0.6921,0.6807,0.669,0.6484,0.6179,0.6065,0.5858,0.5894,0.5785,0.5898,0.5909,0.593,0.5971,0.5988,0.6056,0.6105,0.6107,0.6231,0.6365,0.6644,0.6653,0.653,0.653,0.628,0.6158,0.5912,0.5665,0.5419,0.5051,0.4803,0.4681,0.4558,0.4558,0.4558,0.4558,0.4558,0.4558,0.4684,0.4561,0.3944,0.3452,0.3204,0.3449,0.3697,0.4064,0.4558,0.452,0.4521,0.4403,0.4403,0.4392,0.4386,0.437,0.434,0.4335,0.4102,0.3876,0.3903,0.367,0.305,0.3059,0.2951,0.3202,0.3207,0.2837,0.2345,0.1605,0.1358,0.2098,0.2716,0.2838,0.2839,0.2964,0.8857,0.8979,0.923,0.9105,0.8732,0.8723,0.8723,0.8854,0.8857,0.8857,0.8979,0.8979,0.8979,0.8979,0.8857,0.8857,0.8857,0.8857,0.8857,0.8857,0.8979,0.8976,0.8976,0.8857,0.8976,0.8857,0.8732,0.8729,0.872,0.8604,0.8474,0.808,0.7796,0.7488,0.7641,0.7578,0.7497,0.7253,0.7018,0.6793,0.6562,0.6331,0.61,0.5985,0.5756,0.542,0.5328,0.5221,0.4991,0.5006,0.5016,0.5016,0.5036,0.5059,0.5097,0.5118,0.5136,0.5168,0.5167,0.5044,0.5167,0.5542,0.579,0.579,0.579,0.5419,0.5174,0.4928,0.4682,0.4436,0.4192,0.3821,0.3452,0.3452,0.3452,0.3452,0.3575,0.3575,0.3328,0.3576,0.3082,0.259,0.2098,0.1974,0.185,0.2097,0.2221,0.2713,0.3329,0.3329,0.3329,0.3326,0.3448,0.356,0.3558,0.3679,0.3559,0.3575,0.3208,0.2838,0.222,0.1474,0.1847,0.1974,0.1727,0.1604,0.1604,0.1111,0.037,-0.0,0.0123,0.0864,0.1727,0.1851,0.1853,0.8854,0.8854,0.8604,0.8482,0.8366,0.8108,0.8355,0.8854,0.8854,0.8854,0.8854,0.8732,0.8732,0.8854,0.8854,0.8854,0.8732,0.8732,0.8732,0.8732,0.8732,0.8732,0.8732,0.8732,0.8732,0.861,0.861,0.8366,0.8369,0.8,0.7752,0.7385,0.7001,0.6731,0.6675,0.6485,0.653,0.6414,0.6178,0.5947,0.5831,0.5572,0.5345,0.511,0.4876,0.4662,0.4444,0.4219,0.4005,0.3907,0.3929,0.3933,0.3937,0.3942,0.3943,0.3942,0.3943,0.3943,0.4066,0.3943,0.3943,0.4313,0.4562,0.4564,0.4562,0.4561,0.4315,0.3944,0.3698,0.3699,0.3577,0.3085,0.259,0.259,0.259,0.259,0.2714,0.2467,0.2097,0.1727,0.111,0.0617,0.0247,0.0123,0.037,0.0247,0.0494,0.0864,0.148,0.2221,0.2344,0.2344,0.2466,0.2714,0.2714,0.2466,0.2344,0.2221,0.1603,0.111,0.0494,0.0123,0.0247,0.0247,0.0123,-0.0,-0.0,-0.0123,-0.0494,-0.0865,-0.0988,-0.0741,0.0247,0.0123,0.0123,0.8238,0.8238,0.8116,0.8113,0.7997,0.7991,0.7991,0.8116,0.8238,0.8238,0.8238,0.8238,0.8238,0.8238,0.8238,0.8238,0.8238,0.8238,0.8238,0.8238,0.8241,0.8238,0.8238,0.8238,0.8241,0.8116,0.8116,0.7875,0.7633,0.7385,0.7018,0.6648,0.6283,0.6037,0.5649,0.5251,0.5469,0.5452,0.5326,0.5205,0.4848,0.4603,0.4363,0.424,0.4121,0.402,0.3784,0.3424,0.3196,0.3202,0.3207,0.3207,0.3207,0.3207,0.3207,0.3207,0.3207,0.3207,0.3207,0.3207,0.3206,0.3083,0.3331,0.3702,0.3825,0.3577,0.333,0.296,0.2466,0.2221,0.185,0.1356,0.0987,0.0863,0.0863,0.0863,0.0863,0.074,0.037,0.0123,-0.0493,-0.0863,-0.1235,-0.1235,-0.1111,-0.1359,-0.1235,-0.0864,-0.0247,0.0494,0.0987,0.0987,0.0987,0.0987,0.0864,0.0617,0.074,0.0741,0.0123,-0.0494,-0.0987,-0.1235,-0.1359,-0.1359,-0.1235,-0.1359,-0.1482,-0.1606,-0.1482,-0.1606,-0.173,-0.1606,-0.1606,-0.1235,-0.1235,0.7872,0.7872,0.7872,0.7872,0.7872,0.7872,0.7872,0.7872,0.7872,0.7872,0.7872,0.7872,0.7872,0.7872,0.7994,0.7994,0.7994,0.7994,0.7994,0.7994,0.7872,0.7994,0.7872,0.775,0.7627,0.7627,0.7505,0.7385,0.7143,0.665,0.6283,0.6035,0.5546,0.5176,0.4802,0.4553,0.431,0.443,0.4432,0.4315,0.4069,0.3699,0.3576,0.3453,0.3455,0.3332,0.3085,0.2591,0.2221,0.2222,0.2221,0.2221,0.2097,0.1974,0.1727,0.1727,0.1727,0.1604,0.1604,0.1727,0.1728,0.1851,0.1851,0.1975,0.2097,0.2097,0.185,0.1604,0.1111,0.0617,-0.0123,-0.074,-0.0987,-0.1234,-0.1234,-0.1234,-0.1234,-0.1234,-0.1357,-0.1481,-0.1728,-0.2221,-0.2346,-0.2346,-0.2346,-0.2346,-0.2222,-0.2098,-0.1728,-0.1111,-0.0741,-0.0617,-0.0741,-0.0741,-0.0864,-0.0864,-0.0864,-0.0987,-0.1481,-0.1975,-0.247,-0.2346,-0.2222,-0.2222,-0.2346,-0.2346,-0.2223,-0.2347,-0.2347,-0.2347,-0.2347,-0.2347,-0.2099,-0.1853,-0.1852,0.7872,0.7872,0.7872,0.7872,0.7872,0.7872,0.7872,0.7872,0.7872,0.7872,0.7872,0.7872,0.7872,0.7872,0.7872,0.7872,0.7872,0.7872,0.7872,0.7872,0.775,0.775,0.763,0.7505,0.7263,0.7141,0.7021,0.7021,0.6653,0.6162,0.5546,0.5298,0.4808,0.4315,0.4069,0.3824,0.3577,0.2959,0.3083,0.3208,0.3332,0.3085,0.2714,0.259,0.2591,0.2467,0.185,0.1357,0.0865,0.0865,0.0865,0.0864,0.0617,0.037,0.0123,-0.0,-0.0,-0.0,-0.0,-0.0123,-0.0247,-0.0247,-0.0247,-0.0247,-0.0123,0.0493,0.0493,-0.0123,-0.074,-0.0987,-0.148,-0.185,-0.2097,-0.2221,-0.2221,-0.2221,-0.2221,-0.2221,-0.2221,-0.2344,-0.2468,-0.2715,-0.2715,-0.2716,-0.2716,-0.2838,-0.2838,-0.2838,-0.2716,-0.2222,-0.2099,-0.1976,-0.1852,-0.1975,-0.2097,-0.2221,-0.2467,-0.2714,-0.2838,-0.2838,-0.2716,-0.2838,-0.296,-0.2838,-0.2715,-0.2838,-0.2838,-0.2839,-0.284,-0.284,-0.284,-0.2963,-0.2717,-0.247,-0.2346,0.7872,0.7872,0.7872,0.7872,0.7872,0.7872,0.7872,0.7872,0.7872,0.7872,0.7872,0.7872,0.7872,0.7872,0.7872,0.7872,0.7869,0.775,0.775,0.763,0.7508,0.751,0.7391,0.7143,0.6896,0.6896,0.6775,0.6407,0.5916,0.53,0.4561,0.4315,0.3947,0.3824,0.3206,0.3085,0.259,0.1603,0.1233,0.1604,0.2097,0.1358,0.0741,0.0741,0.0741,0.0741,0.0247,-0.0123,-0.0371,-0.0494,-0.0494,-0.0494,-0.0494,-0.0741,-0.0988,-0.1359,-0.1482,-0.1359,-0.1482,-0.1728,-0.1851,-0.2097,-0.2097,-0.2344,-0.2097,-0.1356,-0.1233,-0.185,-0.2344,-0.2468,-0.2715,-0.2838,-0.3083,-0.3083,-0.3083,-0.3083,-0.3083,-0.3085,-0.3085,-0.3085,-0.3085,-0.3085,-0.3085,-0.3083,-0.296,-0.296,-0.2961,-0.2961,-0.3085,-0.2838,-0.2838,-0.2716,-0.2715,-0.2714,-0.296,-0.3085,-0.3085,-0.3085,-0.3085,-0.3085,-0.3085,-0.3208,-0.3208,-0.3083,-0.296,-0.3085,-0.3208,-0.2961,-0.2961,-0.3086,-0.3086,-0.321,-0.3209,-0.2839,-0.2838,0.7872,0.7872,0.7872,0.7872,0.7872,0.7872,0.7872,0.7872,0.7872,0.7872,0.7872,0.7872,0.7872,0.7872,0.775,0.763,0.7627,0.7508,0.7385,0.7266,0.7143,0.7146,0.7023,0.6778,0.628,0.6033,0.5792,0.5423,0.5054,0.4562,0.407,0.3576,0.3454,0.3085,0.2343,0.185,0.1357,0.037,-0.037,-0.0247,0.0493,-0.0247,-0.0741,-0.0741,-0.0865,-0.0865,-0.0988,-0.1235,-0.1359,-0.1482,-0.1359,-0.1729,-0.1728,-0.1851,-0.2098,-0.2346,-0.247,-0.2469,-0.2592,-0.2716,-0.296,-0.3083,-0.296,-0.2838,-0.2838,-0.2096,-0.2219,-0.2714,-0.2714,-0.2838,-0.3085,-0.3208,-0.3455,-0.3455,-0.3455,-0.3455,-0.3455,-0.3455,-0.3579,-0.3579,-0.3455,-0.3455,-0.3455,-0.3579,-0.3455,-0.3455,-0.3455,-0.3455,-0.3455,-0.3454,-0.3454,-0.3331,-0.3331,-0.3208,-0.3208,-0.3331,-0.3331,-0.3331,-0.3331,-0.3455,-0.3455,-0.3455,-0.3455,-0.3331,-0.3331,-0.3455,-0.3455,-0.3331,-0.3331,-0.3579,-0.3455,-0.3455,-0.3454,-0.3454,-0.3454,0.7872,0.7872,0.7872,0.7872,0.7872,0.7872,0.7872,0.7872,0.7869,0.7872,0.775,0.775,0.775,0.775,0.7508,0.7388,0.7266,0.7143,0.7023,0.69,0.6778,0.6778,0.653,0.6405,0.5788,0.5174,0.4682,0.4438,0.4192,0.3701,0.3454,0.3083,0.2467,0.1974,0.0863,0.0123,-0.037,-0.0617,-0.1235,-0.173,-0.173,-0.1482,-0.1483,-0.173,-0.1977,-0.1977,-0.1977,-0.1977,-0.1977,-0.2099,-0.2099,-0.2346,-0.2468,-0.259,-0.2714,-0.2961,-0.2961,-0.2838,-0.2961,-0.2961,-0.3085,-0.3085,-0.3085,-0.3208,-0.3208,-0.3331,-0.3454,-0.3454,-0.333,-0.3331,-0.3577,-0.3702,-0.3825,-0.395,-0.395,-0.395,-0.395,-0.395,-0.395,-0.395,-0.395,-0.395,-0.395,-0.4073,-0.395,-0.395,-0.395,-0.4074,-0.4073,-0.4071,-0.4071,-0.3948,-0.3947,-0.3824,-0.3579,-0.3579,-0.3579,-0.3579,-0.3702,-0.3826,-0.3826,-0.3703,-0.3702,-0.3826,-0.3826,-0.3826,-0.3826,-0.3703,-0.3826,-0.395,-0.3948,-0.3947,-0.4071,-0.4071,-0.4071,0.7872,0.7872,0.7872,0.7872,0.7872,0.7872,0.7872,0.7869,0.7627,0.7505,0.7385,0.7266,0.7266,0.751,0.7143,0.7021,0.7021,0.6775,0.6653,0.6528,0.6405,0.6283,0.6037,0.5667,0.5176,0.4561,0.419,0.3946,0.3453,0.3083,0.2343,0.1356,0.0741,0.037,0.0123,-0.0618,-0.1482,-0.1606,-0.1606,-0.1977,-0.1977,-0.1853,-0.1853,-0.1977,-0.1977,-0.1977,-0.1977,-0.1977,-0.2223,-0.2346,-0.2591,-0.2838,-0.2961,-0.296,-0.3085,-0.3208,-0.3208,-0.3085,-0.3208,-0.3331,-0.3454,-0.3454,-0.3701,-0.407,-0.407,-0.4316,-0.4316,-0.4439,-0.4316,-0.4193,-0.4441,-0.4441,-0.4564,-0.4564,-0.4566,-0.4566,-0.4566,-0.4566,-0.4566,-0.4566,-0.4566,-0.4566,-0.4566,-0.4566,-0.4566,-0.4566,-0.4566,-0.4566,-0.4566,-0.4566,-0.4689,-0.4564,-0.4441,-0.4196,-0.395,-0.395,-0.395,-0.395,-0.395,-0.4073,-0.4073,-0.395,-0.395,-0.4073,-0.4073,-0.395,-0.395,-0.4074,-0.4196,-0.4195,-0.4316,-0.4316,-0.4564,-0.4564,-0.4441]},{"header":{"parameterUnit":"m.s-1","parameterCategory":1,"la1":31.0,"la2":29.5877,"lo1":-88.7671,"lo2":-86.6584,"dy":0.0162,"dx":0.0185,"nx":115,"ny":88,"refTime":"2023-06-05T06:00:00:Z","depth":0,"parameterNumber":3,"parameterNumberName":"V-component_of_WINDS"},"data":[0.0,0.0,0.0,0.0,0.0,0.0,0.0,0.0,0.0,0.0,0.0,0.0,0.0,0.0,0.0,0.0,0.0,0.0,0.0,0.0,0.0,0.0,0.0,0.0,0.0,0.0,0.0,0.0,0.0,0.0,0.0,0.0,0.0,0.0,0.0,0.0,0.0,0.0,0.0,0.0,0.0,0.0,0.0,0.0,0.0,0.0,0.0,0.0,0.0,0.0,0.0,0.0,0.0,0.0,0.0,0.0,0.0,0.0,0.0,0.0,0.0,0.0,0.0,0.0,0.0,0.0,0.0,0.0,0.0,0.0,0.0,0.0,0.0,0.0,0.0,0.0,0.0,0.0,0.0,0.0,0.0,0.0,0.0,0.0,0.0,0.0,0.0,0.0,0.0,0.0,0.0,0.0,0.0,0.0,0.0,0.0,0.0,0.0,0.0,0.0,0.0,0.0,0.0,0.0,0.0,0.0,0.0,0.0,0.0,0.0,0.0,0.0,0.0,0.0,0.0,0.0,0.0,0.0,0.0,0.0,0.0,0.0,0.0,0.0,0.0,0.0,0.0,0.0,0.0,0.0,0.0,0.0,0.0,0.0,0.0,0.0,0.0,0.0,0.0,0.0,0.0,0.0,0.0,0.0,0.0,0.0,0.0,0.0,0.0,0.0,0.0,0.0,0.0,0.0,0.0,0.0,0.0,0.0,0.0,0.0,0.0,0.0,0.0,0.0,0.0,0.0,0.0,0.0,0.0,0.0,0.0,0.0,0.0,0.0,0.0,0.0,0.0,0.0,0.0,0.0,0.0,0.0,0.0,0.0,0.0,0.0,0.0,0.0,0.0,0.0,0.0,0.0,0.0,0.0,0.0,0.0,0.0,0.0,0.0,0.0,0.0,0.0,0.0,0.0,0.0,0.0,0.0,0.0,0.0,0.0,0.0,0.0,0.0,0.0,0.0,0.0,0.0,0.0,0.0,0.0,0.0,0.0,0.0,0.0,0.0,0.0,0.0,0.0,0.0,0.0,0.0,0.0,0.0,0.0,0.0,0.0,0.0,0.0,0.0,0.0,0.0,0.0,0.0,0.0,0.0,0.0,0.0,0.0,0.0,0.0,0.0,0.0,0.0,0.0,0.0,0.0,0.0,0.0,0.0,0.0,0.0,0.0,0.0,0.0,0.0,0.0,0.0,0.0,0.0,0.0,0.0,0.0,0.0,0.0,0.0,0.0,0.0,0.0,0.0,0.0,0.0,0.0,0.0,0.0,0.0,0.0,0.0,0.0,0.0,0.0,0.0,0.0,0.0,0.0,0.0,0.0,0.0,0.0,0.0,0.0,0.0,0.0,0.0,0.0,0.0,0.0,0.0,0.0,0.0,0.0,0.0,0.0,0.0,0.0,0.0,0.0,0.0,0.0,0.0,0.0,0.0,0.0,0.0,0.0,0.0,0.0,0.0,0.0,0.0,0.0,0.0,0.0,0.0,0.0,0.0,0.0,0.0,0.0,0.0,0.0,0.0,0.0,0.0,0.0,0.0,0.0,0.0,0.0,0.0,0.0,0.0,0.0,0.0,0.0,0.0,0.0,0.0,0.0,0.0,0.0,0.0,0.0,0.0,0.0,0.0,0.0,0.0,0.0,0.0,0.0,0.0,0.0,0.0,0.0,0.0,0.0,0.0,0.0,0.0,0.0,0.0,0.0,0.0,0.0,0.0,0.0,0.0,0.0,0.0,0.0,0.0,0.0,0.0,0.0,0.0,0.0,0.0,0.0,0.0,0.0,0.0,0.0,0.0,0.0,0.0,0.0,0.0,0.0,0.0,0.0,0.0,0.0,0.0,0.0,0.0,0.0,0.0,0.0,0.0,0.0,0.0,0.0,0.0,0.0,0.0,0.0,0.0,0.0,0.0,0.0,0.0,0.0,0.0,0.0,0.0,0.0,0.0,0.0,0.0,0.0,0.0,0.0,0.0,0.0,0.0,0.0,0.0,0.0,0.0,0.0,0.0,0.0,0.0,0.0,0.0,0.0,0.0,0.0,0.0,0.0,0.0,0.0,0.0,0.0,0.0,0.0,0.0,0.0,0.0,0.0,0.0,0.0,0.0,0.0,0.0,0.0,0.0,0.0,0.0,0.0,0.0,0.0,0.0,0.0,0.0,0.0,0.0,0.0,0.0,0.0,0.0,0.0,0.0,0.0,0.0,0.0,0.0,0.0,0.0,0.0,0.0,0.0,0.0,0.0,0.0,0.0,0.0,0.0,0.0,0.0,0.0,0.0,0.0,0.0,0.0,0.0,0.0,0.0,0.0,0.0,0.0,0.0,0.0,0.0,0.0,0.0,0.0,0.0,0.0,0.0,0.0,0.0,0.0,0.0,0.0,0.0,0.0,0.0,0.0,0.0,0.0,0.0,0.0,0.0,0.0,0.0,0.0,0.0,0.0,0.0,0.0,0.0,0.0,0.0,0.0,0.0,0.0,0.0,0.0,0.0,0.0,0.0,0.0,0.0,0.0,0.0,0.0,0.0,0.0,0.0,0.0,0.0,0.0,0.0,0.0,0.0,0.0,0.0,0.0,0.0,0.0,0.0,0.0,0.0,0.0,0.0,0.0,0.0,0.0,0.0,0.0,0.0,0.0,0.0,0.0,0.0,0.0,0.0,0.0,0.0,0.0,0.0,0.0,0.0,0.0,0.0,0.0,0.0,0.0,0.0,0.0,0.0,0.0,0.0,0.0,0.0,0.0,0.0,0.0,0.0,0.0,0.0,0.0,0.0,0.0,0.0,0.0,0.0,0.0,0.0,0.0,0.0,0.0,0.0,0.0,0.0,0.0,0.0,0.0,0.0,0.0,0.0,0.0,0.0,0.0,0.0,0.0,0.0,0.0,0.0,0.0,0.0,0.0,0.0,0.0,0.0,0.0,0.0,0.0,0.0,0.0,0.0,0.0,0.0,0.0,0.0,0.0,0.0,0.0,0.0,0.0,0.0,0.0,0.0,0.0,0.0,0.0,0.0,0.0,0.0,0.0,0.0,0.0,0.0,0.0,0.0,0.0,0.0,0.0,0.0,0.0,0.0,0.0,0.0,0.0,0.0,0.0,0.0,0.0,0.0,0.0,0.0,0.0,0.0,0.0,0.0,0.0,0.0,0.0,0.0,0.0,0.0,0.0,0.0,0.0,0.0,0.0,0.0,0.0,0.0,0.0,0.0,0.0,0.0,0.0,0.0,0.0,0.0,0.0,0.0,0.0,0.0,0.0,0.0,0.0,0.0,0.0,0.0,0.0,0.0,0.0,0.0,0.0,0.0,0.0,0.0,0.0,0.0,0.0,0.0,0.0,0.0,0.0,0.0,0.0,0.0,0.0,0.0,0.0,0.0,0.0,0.0,0.0,0.0,0.0,0.0,0.0,0.0,0.0,0.0,0.0,0.0,0.0,0.0,0.0,0.0,0.0,0.0,0.0,0.0,0.0,0.0,0.0,0.0,0.0,0.0,0.0,0.0,0.0,0.0,0.0,0.0,0.0,0.0,0.0,0.0,0.0,0.0,0.0,0.0,0.0,0.0,0.0,0.0,0.0,0.0,0.0,0.0,0.0,0.0,0.0,0.0,0.0,0.0,0.0,0.0,0.0,0.0,0.0,0.0,0.0,0.0,0.0,0.0,0.0,0.0,0.0,0.0,0.0,0.0,0.0,0.0,0.0,0.0,0.0,0.0,0.0,0.0,0.0,0.0,0.0,0.0,0.0,0.0,0.0,0.0,0.0,0.0,0.0,0.0,0.0,0.0,0.0,0.0,0.0,0.0,0.0,0.0,0.0,0.0,0.0,0.0,0.0,0.0,0.0,0.0,0.0,0.0,0.0,0.0,0.0,0.0,0.0,0.0,0.0,0.0,0.0,0.0,0.0,0.0,0.0,0.0,0.0,0.0,0.0,0.0,0.0,0.0,0.0,0.0,0.0,0.0,0.0,0.0,0.0,0.0,0.0,0.0,0.0,0.0,0.0,0.0,0.0,0.0,0.0,0.0,0.0,0.0,0.0,0.0,0.0,0.0,0.0,0.0,0.0,0.0,0.0,0.0,0.0,0.0,0.0,0.0,0.0,0.0,0.0,0.0,0.0,0.0,0.0,0.0,0.0,0.0,0.0,0.0,0.0,0.0,0.0,0.0,0.0,0.0,0.0,0.0,0.0,0.0,0.0,0.0,0.0,0.0,0.0,0.0,0.0,0.0,0.0,0.0,0.0,0.0,0.0,0.0,0.0,0.0,0.0,0.0,0.0,0.0,0.0,0.0,-0.6937,0.0,0.0,0.0,0.0,0.0,0.0,0.0,0.0,0.0,0.0,0.0,0.0,0.0,0.0,0.0,0.0,0.0,0.0,0.0,0.0,0.0,0.0,0.0,0.0,0.0,0.0,0.0,0.0,0.0,0.0,0.0,0.0,0.0,0.0,0.0,0.0,0.0,0.0,0.0,0.0,0.0,0.0,0.0,0.0,0.0,0.0,0.0,0.0,0.0,0.0,0.0,0.0,0.0,0.0,0.0,0.0,0.0,0.0,0.0,0.0,0.0,0.0,0.0,0.0,0.0,0.0,0.0,0.0,0.0,0.0,0.0,0.0,0.0,0.0,0.0,0.0,0.0,0.0,0.0,0.0,0.0,0.0,0.0,0.0,0.0,0.0,0.0,0.0,0.0,0.0,0.0,0.0,0.0,0.0,0.0,0.0,0.0,0.0,0.0,0.0,0.0,0.0,0.0,0.0,0.0,0.0,0.0,0.0,0.0,0.0,-0.6978,-0.6978,-0.7014,-0.715,-0.7435,0.0,0.0,0.0,0.0,0.0,0.0,0.0,0.0,0.0,0.0,0.0,0.0,0.0,0.0,0.0,0.0,0.0,0.0,0.0,0.0,0.0,0.0,0.0,0.0,0.0,0.0,0.0,0.0,0.0,0.0,0.0,0.0,0.0,0.0,0.0,0.0,0.0,0.0,0.0,0.0,0.0,0.0,0.0,0.0,0.0,0.0,0.0,0.0,0.0,0.0,0.0,0.0,0.0,0.0,0.0,0.0,0.0,0.0,0.0,0.0,0.0,0.0,0.0,0.0,0.0,0.0,0.0,0.0,0.0,0.0,0.0,0.0,0.0,0.0,0.0,0.0,0.0,0.0,0.0,0.0,0.0,0.0,0.0,0.0,0.0,0.0,0.0,0.0,0.0,0.0,0.0,0.0,0.0,0.0,0.0,0.0,0.0,0.0,0.0,0.0,0.0,0.0,0.0,0.0,0.0,0.0,0.0,0.0,0.0,0.0,0.0,0.0,-0.7418,-0.7542,-0.7781,0.0,0.0,0.0,0.0,0.0,0.0,0.0,0.0,0.0,0.0,0.0,0.0,0.0,0.0,0.0,0.0,0.0,0.0,0.0,0.0,0.0,0.0,0.0,0.0,0.0,0.0,0.0,0.0,0.0,0.0,0.0,0.0,0.0,0.0,0.0,0.0,0.0,0.0,0.0,0.0,0.0,0.0,0.0,0.0,0.0,0.0,0.0,0.0,0.0,0.0,0.0,0.0,0.0,0.0,0.0,0.0,0.0,0.0,0.0,0.0,0.0,0.0,0.0,0.0,0.0,0.0,0.0,0.0,0.0,0.0,0.0,0.0,0.0,0.0,0.0,0.0,0.0,0.0,0.0,0.0,0.0,0.0,0.0,0.0,0.0,0.0,0.0,0.0,0.0,0.0,0.0,0.0,0.0,0.0,0.0,0.0,0.0,0.0,0.0,0.0,0.0,0.0,0.0,0.0,0.0,0.0,0.0,0.0,0.0,0.0,-0.7308,-0.7308,-0.7557,0.0,-0.7788,0.0,0.0,0.0,0.0,0.0,0.0,0.0,0.0,0.0,0.0,0.0,0.0,0.0,0.0,0.0,0.0,0.0,0.0,0.0,0.0,0.0,0.0,0.0,0.0,0.0,0.0,0.0,0.0,0.0,0.0,0.0,0.0,0.0,0.0,0.0,0.0,0.0,0.0,0.0,0.0,0.0,0.0,0.0,0.0,0.0,0.0,0.0,0.0,0.0,0.0,0.0,0.0,0.0,0.0,0.0,0.0,0.0,0.0,0.0,0.0,0.0,0.0,0.0,0.0,0.0,0.0,0.0,0.0,0.0,0.0,0.0,0.0,0.0,0.0,0.0,0.0,0.0,0.0,0.0,0.0,0.0,0.0,0.0,0.0,0.0,0.0,0.0,0.0,0.0,0.0,0.0,0.0,0.0,0.0,0.0,0.0,0.0,0.0,0.0,0.0,0.0,0.0,0.0,0.0,0.0,0.0,0.0,0.0,0.0,0.0,-0.7782,-0.7686,-0.7707,-0.7676,0.0,0.0,0.0,0.0,0.0,0.0,0.0,0.0,0.0,0.0,0.0,0.0,0.0,0.0,0.0,0.0,0.0,0.0,0.0,0.0,0.0,0.0,0.0,0.0,0.0,0.0,0.0,0.0,0.0,0.0,0.0,0.0,0.0,0.0,0.0,0.0,0.0,0.0,0.0,0.0,0.0,0.0,0.0,0.0,0.0,0.0,0.0,0.0,0.0,0.0,0.0,0.0,0.0,0.0,0.0,0.0,0.0,0.0,0.0,0.0,0.0,0.0,0.0,0.0,0.0,0.0,0.0,0.0,0.0,0.0,0.0,0.0,0.0,0.0,0.0,0.0,0.0,0.0,0.0,0.0,0.0,0.0,0.0,0.0,0.0,0.0,0.0,0.0,0.0,0.0,0.0,0.0,0.0,0.0,0.0,0.0,0.0,0.0,0.0,0.0,0.0,0.0,0.0,0.0,0.0,0.0,0.0,0.0,0.0,0.0,-0.7899,-0.8002,-0.7883,-0.7804,-0.7754,-0.77,0.0,0.0,0.0,0.0,0.0,0.0,0.0,0.0,0.0,0.0,0.0,0.0,0.0,0.0,0.0,0.0,0.0,0.0,0.0,0.0,0.0,0.0,0.0,0.0,0.0,0.0,0.0,0.0,0.0,0.0,0.0,0.0,0.0,0.0,0.0,0.0,0.0,0.0,0.0,0.0,0.0,0.0,0.0,0.0,0.0,0.0,0.0,0.0,0.0,0.0,0.0,0.0,0.0,0.0,0.0,0.0,0.0,0.0,0.0,0.0,0.0,0.0,0.0,0.0,0.0,0.0,0.0,0.0,0.0,0.0,0.0,0.0,0.0,0.0,0.0,0.0,0.0,0.0,0.0,0.0,0.0,0.0,0.0,0.0,0.0,0.0,0.0,0.0,0.0,0.0,0.0,0.0,0.0,0.0,0.0,0.0,0.0,0.0,0.0,0.0,0.0,0.0,0.0,0.0,0.0,0.0,0.0,0.0,0.0,-0.7717,-0.7783,-0.7901,-0.7883,-0.7895,0.0,0.0,0.0,0.0,0.0,0.0,0.0,0.0,0.0,0.0,0.0,0.0,0.0,0.0,0.0,0.0,0.0,0.0,0.0,0.0,0.0,0.0,0.0,0.0,0.0,0.0,0.0,0.0,0.0,0.0,0.0,0.0,0.0,0.0,0.0,0.0,0.0,0.0,0.0,0.0,0.0,0.0,0.0,0.0,0.0,0.0,0.0,0.0,0.0,0.0,0.0,0.0,0.0,0.0,0.0,0.0,0.0,0.0,0.0,0.0,0.0,0.0,0.0,0.0,0.0,0.0,0.0,0.0,0.0,0.0,0.0,0.0,0.0,0.0,0.0,0.0,0.0,0.0,0.0,0.0,0.0,0.0,0.0,0.0,0.0,0.0,0.0,0.0,0.0,0.0,0.0,0.0,0.0,0.0,0.0,0.0,0.0,0.0,0.0,0.0,0.0,0.0,0.0,0.0,0.0,0.0,0.0,0.0,0.0,-0.802,-0.7894,-0.7871,-0.8037,-0.7949,-0.7853,0.0,0.0,0.0,0.0,0.0,0.0,0.0,0.0,0.0,0.0,0.0,0.0,0.0,0.0,0.0,0.0,0.0,0.0,0.0,0.0,0.0,0.0,0.0,0.0,0.0,0.0,0.0,0.0,0.0,0.0,0.0,0.0,0.0,0.0,0.0,0.0,0.0,0.0,0.0,0.0,0.0,0.0,0.0,0.0,0.0,0.0,0.0,0.0,0.0,0.0,0.0,0.0,0.0,0.0,0.0,0.0,0.0,0.0,0.0,0.0,0.0,0.0,0.0,0.0,0.0,0.0,0.0,0.0,0.0,0.0,0.0,0.0,0.0,0.0,0.0,0.0,0.0,0.0,0.0,0.0,0.0,0.0,0.0,0.0,0.0,0.0,0.0,0.0,0.0,0.0,0.0,0.0,0.0,0.0,0.0,0.0,0.0,0.0,0.0,0.0,0.0,0.0,0.0,0.0,0.0,0.0,0.0,0.0,0.0,-0.8214,0.0,-0.8132,0.0,-0.8214,-0.8134,0.0,0.0,0.0,0.0,0.0,0.0,0.0,0.0,0.0,0.0,0.0,0.0,0.0,0.0,0.0,0.0,0.0,0.0,0.0,0.0,0.0,0.0,0.0,0.0,0.0,0.0,0.0,0.0,0.0,0.0,0.0,0.0,0.0,0.0,0.0,0.0,0.0,0.0,0.0,0.0,0.0,0.0,0.0,0.0,0.0,0.0,0.0,0.0,0.0,0.0,0.0,0.0,0.0,0.0,0.0,0.0,0.0,0.0,0.0,0.0,0.0,0.0,0.0,0.0,0.0,0.0,0.0,0.0,0.0,0.0,0.0,0.0,0.0,0.0,0.0,0.0,0.0,0.0,0.0,0.0,0.0,0.0,0.0,0.0,0.0,0.0,0.0,0.0,0.0,0.0,0.0,0.0,0.0,0.0,0.0,0.0,0.0,0.0,0.0,0.0,0.0,0.0,0.0,0.0,0.0,0.0,0.0,0.0,-0.8654,-0.8347,-0.8439,-0.851,-0.851,-0.8657,-0.8709,0.0,0.0,0.0,0.0,0.0,0.0,0.0,0.0,0.0,0.0,0.0,0.0,0.0,0.0,0.0,0.0,0.0,0.0,0.0,0.0,0.0,0.0,0.0,0.0,0.0,0.0,0.0,0.0,0.0,0.0,0.0,0.0,0.0,0.0,0.0,0.0,0.0,0.0,0.0,0.0,0.0,0.0,0.0,0.0,0.0,0.0,0.0,0.0,0.0,0.0,0.0,0.0,0.0,0.0,0.0,0.0,0.0,0.0,0.0,0.0,0.0,0.0,0.0,0.0,0.0,0.0,0.0,0.0,0.0,0.0,0.0,0.0,0.0,0.0,0.0,0.0,0.0,0.0,0.0,0.0,0.0,0.0,0.0,0.0,0.0,0.0,0.0,0.0,0.0,0.0,0.0,0.0,0.0,0.0,0.0,0.0,0.0,0.0,0.0,0.0,0.0,0.0,0.0,0.0,0.0,0.0,0.0,0.0,0.0,-0.8825,-0.8902,-0.889,-0.8938,-0.8863,-0.8851,0.0,0.0,0.0,0.0,0.0,0.0,0.0,0.0,0.0,0.0,0.0,0.0,0.0,0.0,0.0,0.0,0.0,0.0,0.0,0.0,0.0,0.0,0.0,0.0,0.0,0.0,0.0,0.0,0.0,0.0,0.0,0.0,0.0,0.0,0.0,0.0,0.0,0.0,0.0,0.0,0.0,0.0,0.0,0.0,0.0,0.0,0.0,0.0,0.0,0.0,0.0,0.0,0.0,0.0,0.0,0.0,0.0,0.0,0.0,0.0,0.0,0.0,0.0,0.0,0.0,0.0,0.0,0.0,0.0,0.0,0.0,0.0,0.0,0.0,0.0,0.0,0.0,0.0,0.0,0.0,0.0,0.0,0.0,0.0,0.0,0.0,0.0,0.0,0.0,0.0,0.0,0.0,0.0,0.0,0.0,0.0,0.0,0.0,0.0,0.0,0.0,0.0,0.0,0.0,0.0,0.0,0.0,0.0,0.0,-0.9926,-0.9581,-0.9407,-0.9401,-0.9226,-0.9099,-0.9077,0.0,0.0,0.0,0.0,0.0,0.0,0.0,0.0,0.0,0.0,0.0,0.0,0.0,0.0,0.0,0.0,0.0,0.0,0.0,0.0,0.0,0.0,0.0,0.0,0.0,0.0,0.0,0.0,0.0,0.0,0.0,0.0,0.0,0.0,0.0,0.0,0.0,0.0,0.0,0.0,0.0,0.0,0.0,0.0,0.0,0.0,0.0,0.0,0.0,0.0,0.0,0.0,0.0,0.0,0.0,0.0,0.0,0.0,0.0,0.0,0.0,0.0,0.0,0.0,0.0,0.0,0.0,0.0,0.0,0.0,0.0,0.0,0.0,0.0,0.0,0.0,0.0,0.0,0.0,0.0,0.0,0.0,0.0,0.0,0.0,0.0,0.0,0.0,0.0,0.0,0.0,0.0,0.0,0.0,0.0,0.0,0.0,0.0,0.0,0.0,0.0,0.0,0.0,0.0,0.0,0.0,0.0,0.0,-1.1376,-1.0528,-1.0072,-1.006,-0.9672,-0.9538,0.0,0.0,0.0,0.0,0.0,0.0,0.0,0.0,0.0,0.0,0.0,0.0,0.0,0.0,0.0,0.0,0.0,0.0,0.0,0.0,0.0,0.0,0.0,0.0,0.0,0.0,0.0,0.0,0.0,0.0,0.0,0.0,0.0,0.0,0.0,0.0,0.0,0.0,0.0,0.0,0.0,0.0,0.0,0.0,0.0,0.0,0.0,0.0,0.0,0.0,0.0,0.0,0.0,0.0,0.0,0.0,0.0,0.0,0.0,0.0,0.0,0.0,0.0,0.0,0.0,0.0,0.0,0.0,0.0,0.0,0.0,0.0,0.0,0.0,0.0,0.0,0.0,0.0,0.0,0.0,0.0,0.0,0.0,0.0,0.0,0.0,0.0,0.0,0.0,0.0,0.0,0.0,0.0,0.0,0.0,0.0,0.0,0.0,0.0,0.0,0.0,0.0,0.0,0.0,0.0,0.0,0.0,0.0,0.0,-1.1999,-1.1567,-1.12,-1.0934,-1.064,-1.0356,0.0,0.0,0.0,0.0,0.0,0.0,0.0,0.0,0.0,0.0,0.0,0.0,0.0,0.0,0.0,0.0,0.0,0.0,0.0,0.0,0.0,0.0,0.0,0.0,0.0,0.0,0.0,0.0,0.0,0.0,0.0,0.0,0.0,0.0,0.0,0.0,0.0,0.0,0.0,0.0,0.0,0.0,0.0,0.0,0.0,0.0,0.0,0.0,0.0,0.0,0.0,0.0,0.0,0.0,0.0,0.0,0.0,0.0,0.0,0.0,0.0,0.0,0.0,0.0,0.0,0.0,0.0,0.0,0.0,0.0,0.0,0.0,0.0,0.0,0.0,0.0,0.0,0.0,0.0,0.0,0.0,0.0,0.0,0.0,0.0,0.0,0.0,0.0,0.0,0.0,0.0,0.0,0.0,0.0,0.0,0.0,0.0,0.0,0.0,0.0,0.0,0.0,0.0,0.0,0.0,0.0,0.0,0.0,-1.2004,-1.2694,-1.2706,-1.2446,-1.2056,-1.1354,-1.0765,0.0,0.0,0.0,0.0,0.0,0.0,0.0,0.0,0.0,0.0,0.0,0.0,0.0,0.0,0.0,0.0,0.0,0.0,0.0,0.0,0.0,0.0,0.0,0.0,0.0,0.0,0.0,0.0,0.0,0.0,0.0,0.0,0.0,0.0,0.0,0.0,0.0,0.0,0.0,0.0,0.0,0.0,0.0,0.0,0.0,0.0,0.0,0.0,0.0,0.0,0.0,0.0,0.0,0.0,0.0,0.0,0.0,0.0,0.0,0.0,0.0,0.0,0.0,0.0,0.0,0.0,0.0,0.0,0.0,0.0,0.0,0.0,0.0,0.0,0.0,0.0,0.0,0.0,0.0,0.0,0.0,0.0,0.0,0.0,0.0,0.0,0.0,0.0,0.0,0.0,0.0,0.0,0.0,0.0,0.0,0.0,0.0,0.0,0.0,0.0,0.0,0.0,0.0,0.0,0.0,0.0,0.0,0.0,-1.3019,-1.3392,-1.3805,-1.3768,-1.3194,-1.1984,-1.1012,0.0,0.0,0.0,0.0,0.0,0.0,0.0,0.0,0.0,0.0,0.0,0.0,0.0,0.0,0.0,0.0,0.0,0.0,0.0,0.0,0.0,0.0,0.0,0.0,0.0,0.0,0.0,0.0,0.0,0.0,0.0,0.0,0.0,0.0,0.0,0.0,0.0,0.0,0.0,0.0,0.0,0.0,0.0,0.0,0.0,0.0,0.0,0.0,0.0,0.0,0.0,0.0,0.0,0.0,0.0,0.0,0.0,0.0,0.0,0.0,0.0,0.0,0.0,0.0,0.0,0.0,0.0,0.0,0.0,0.0,0.0,0.0,0.0,0.0,0.0,0.0,0.0,0.0,0.0,0.0,0.0,0.0,0.0,0.0,0.0,0.0,0.0,0.0,0.0,0.0,0.0,0.0,0.0,0.0,0.0,0.0,0.0,0.0,0.0,0.0,0.0,0.0,0.0,0.0,0.0,0.0,0.0,0.0,-1.3647,-1.4189,-1.441,-1.4352,-1.3953,-1.3005,-1.1907,0.0,0.0,0.0,0.0,0.0,0.0,0.0,0.0,0.0,0.0,0.0,0.0,0.0,0.0,0.0,0.0,0.0,0.0,0.0,0.0,0.0,0.0,0.0,0.0,0.0,0.0,0.0,0.0,0.0,0.0,0.0,0.0,0.0,0.0,0.0,0.0,0.0,0.0,0.0,0.0,0.0,0.0,0.0,0.0,0.0,0.0,0.0,0.0,-1.8109,0.0,0.0,0.0,0.0,0.0,0.0,0.0,0.0,0.0,0.0,0.0,0.0,0.0,0.0,0.0,0.0,0.0,0.0,0.0,0.0,0.0,0.0,0.0,0.0,0.0,0.0,0.0,0.0,0.0,0.0,0.0,0.0,0.0,0.0,0.0,0.0,0.0,0.0,0.0,0.0,0.0,0.0,0.0,0.0,0.0,0.0,0.0,0.0,0.0,0.0,0.0,0.0,0.0,0.0,0.0,0.0,0.0,0.0,0.0,-1.451,-1.4724,-1.5121,-1.5118,-1.4607,-1.3858,-1.2765,0.0,0.0,0.0,0.0,0.0,0.0,0.0,0.0,0.0,0.0,0.0,0.0,0.0,0.0,0.0,0.0,0.0,0.0,0.0,0.0,0.0,0.0,0.0,0.0,0.0,0.0,0.0,0.0,0.0,0.0,0.0,0.0,0.0,0.0,0.0,0.0,0.0,0.0,0.0,0.0,0.0,0.0,0.0,0.0,0.0,0.0,0.0,0.0,0.0,0.0,0.0,0.0,0.0,0.0,0.0,0.0,0.0,0.0,0.0,0.0,0.0,0.0,0.0,0.0,0.0,0.0,0.0,0.0,0.0,0.0,0.0,0.0,0.0,0.0,0.0,0.0,0.0,0.0,0.0,0.0,0.0,0.0,0.0,0.0,0.0,0.0,0.0,0.0,0.0,0.0,0.0,0.0,0.0,0.0,0.0,0.0,0.0,0.0,0.0,0.0,0.0,0.0,0.0,0.0,0.0,0.0,0.0,-1.4882,-1.544,-1.5328,-1.5866,-1.5904,-1.524,-1.4614,-1.3549,-1.1986,0.0,0.0,0.0,0.0,0.0,0.0,0.0,0.0,0.0,0.0,0.0,0.0,0.0,0.0,0.0,0.0,0.0,0.0,0.0,0.0,0.0,0.0,0.0,0.0,0.0,0.0,0.0,0.0,0.0,0.0,0.0,0.0,0.0,0.0,0.0,0.0,0.0,0.0,-1.8475,-1.8895,0.0,0.0,0.0,0.0,0.0,0.0,0.0,0.0,-1.9648,0.0,0.0,0.0,0.0,0.0,0.0,0.0,0.0,0.0,0.0,0.0,0.0,0.0,0.0,0.0,0.0,0.0,0.0,0.0,0.0,0.0,0.0,0.0,0.0,0.0,0.0,0.0,0.0,0.0,0.0,0.0,0.0,0.0,0.0,0.0,0.0,0.0,0.0,0.0,0.0,0.0,0.0,0.0,0.0,0.0,0.0,0.0,0.0,0.0,0.0,0.0,0.0,0.0,0.0,0.0,0.0,-1.4043,-1.547,-1.6192,-1.6019,-1.6486,-1.6524,-1.6096,-1.5143,-1.4289,-1.353,0.0,0.0,0.0,0.0,0.0,0.0,0.0,0.0,0.0,0.0,0.0,0.0,0.0,0.0,0.0,0.0,0.0,0.0,0.0,0.0,0.0,0.0,0.0,0.0,0.0,0.0,0.0,0.0,0.0,0.0,0.0,0.0,0.0,0.0,0.0,0.0,0.0,0.0,0.0,-1.9876,-2.0375,0.0,0.0,0.0,0.0,0.0,0.0,0.0,0.0,-2.0016,0.0,0.0,0.0,0.0,0.0,0.0,0.0,0.0,0.0,0.0,0.0,0.0,0.0,0.0,0.0,0.0,0.0,0.0,0.0,0.0,0.0,0.0,0.0,0.0,0.0,0.0,0.0,0.0,0.0,0.0,0.0,0.0,0.0,0.0,0.0,0.0,0.0,0.0,0.0,0.0,0.0,0.0,0.0,0.0,0.0,0.0,0.0,0.0,0.0,0.0,0.0,0.0,0.0,0.0,0.0,-1.5245,-1.6256,-1.688,-1.6912,-1.7187,-1.7166,-1.6881,-1.5912,-1.5058,0.0,0.0,0.0,0.0,0.0,0.0,0.0,0.0,0.0,0.0,0.0,0.0,0.0,0.0,0.0,0.0,0.0,0.0,0.0,0.0,0.0,0.0,0.0,0.0,0.0,0.0,0.0,0.0,0.0,0.0,0.0,0.0,0.0,0.0,0.0,0.0,0.0,0.0,0.0,0.0,-2.0603,-2.1193,-2.1286,0.0,0.0,0.0,0.0,0.0,0.0,-2.0523,-2.051,0.0,0.0,0.0,0.0,0.0,0.0,0.0,0.0,0.0,0.0,0.0,0.0,0.0,0.0,0.0,0.0,0.0,0.0,0.0,0.0,0.0,0.0,0.0,0.0,0.0,0.0,0.0,0.0,0.0,0.0,0.0,0.0,0.0,0.0,0.0,0.0,0.0,0.0,0.0,0.0,0.0,0.0,0.0,0.0,0.0,0.0,0.0,0.0,0.0,0.0,0.0,0.0,0.0,0.0,0.0,-1.641,-1.7072,-1.7559,-1.7855,-1.7898,-1.7774,-1.7628,-1.6646,-1.5806,0.0,0.0,0.0,0.0,0.0,0.0,0.0,0.0,0.0,0.0,0.0,0.0,0.0,0.0,0.0,0.0,0.0,0.0,0.0,0.0,0.0,0.0,0.0,0.0,0.0,0.0,0.0,0.0,0.0,0.0,0.0,0.0,0.0,0.0,0.0,0.0,0.0,0.0,0.0,0.0,0.0,-2.1807,-2.1616,-2.1506,0.0,0.0,0.0,0.0,-2.108,-2.1186,0.0,0.0,0.0,0.0,0.0,0.0,0.0,0.0,0.0,0.0,0.0,0.0,0.0,0.0,0.0,0.0,0.0,0.0,0.0,0.0,0.0,0.0,0.0,0.0,0.0,0.0,0.0,0.0,0.0,0.0,0.0,0.0,0.0,0.0,0.0,0.0,0.0,0.0,0.0,0.0,0.0,0.0,0.0,0.0,0.0,0.0,0.0,0.0,0.0,0.0,0.0,0.0,0.0,0.0,0.0,0.0,-1.7168,-1.7771,-1.829,-1.8701,-1.8553,-1.8375,-1.8365,-1.7103,-1.6319,0.0,0.0,0.0,0.0,0.0,0.0,0.0,0.0,0.0,0.0,0.0,0.0,0.0,0.0,0.0,0.0,0.0,0.0,0.0,0.0,0.0,0.0,0.0,0.0,0.0,0.0,0.0,0.0,0.0,0.0,0.0,0.0,0.0,0.0,0.0,0.0,0.0,0.0,0.0,0.0,0.0,-2.2137,-2.2137,-2.1807,-2.1554,0.0,0.0,-2.2187,-2.2008,-2.2452,0.0,0.0,0.0,0.0,0.0,0.0,0.0,0.0,0.0,0.0,0.0,0.0,0.0,0.0,0.0,0.0,0.0,0.0,0.0,0.0,0.0,0.0,0.0,0.0,0.0,0.0,0.0,0.0,0.0,0.0,0.0,0.0,0.0,0.0,0.0,0.0,0.0,0.0,0.0,0.0,0.0,0.0,0.0,0.0,0.0,0.0,0.0,0.0,0.0,0.0,0.0,0.0,0.0,0.0,0.0,-1.6972,-1.8416,-1.8647,-1.9179,-2.0096,-1.955,-1.9379,-1.9562,-1.8137,-1.7149,0.0,0.0,0.0,0.0,0.0,0.0,0.0,0.0,0.0,0.0,0.0,0.0,0.0,0.0,0.0,0.0,0.0,0.0,0.0,0.0,0.0,0.0,0.0,0.0,0.0,0.0,0.0,0.0,0.0,0.0,0.0,0.0,0.0,0.0,0.0,0.0,0.0,0.0,0.0,0.0,0.0,0.0,-2.2791,-2.2608,0.0,0.0,0.0,-2.3104,-2.304,0.0,0.0,0.0,0.0,0.0,0.0,0.0,0.0,0.0,0.0,0.0,0.0,0.0,0.0,0.0,0.0,0.0,0.0,0.0,0.0,0.0,0.0,0.0,0.0,0.0,0.0,0.0,0.0,0.0,0.0,0.0,0.0,0.0,0.0,0.0,0.0,0.0,0.0,0.0,0.0,0.0,0.0,0.0,0.0,0.0,0.0,0.0,0.0,0.0,0.0,0.0,0.0,0.0,0.0,0.0,0.0,0.0,-1.9644,-1.9824,-2.037,-2.1374,-2.093,-2.0598,-2.0614,-1.9361,0.0,0.0,0.0,0.0,0.0,0.0,0.0,0.0,0.0,0.0,0.0,0.0,0.0,0.0,0.0,0.0,0.0,0.0,0.0,0.0,0.0,0.0,0.0,0.0,0.0,0.0,0.0,-1.9583,0.0,0.0,0.0,0.0,0.0,0.0,0.0,0.0,0.0,0.0,0.0,0.0,0.0,0.0,-2.3073,-2.3606,-2.3532,-2.3618,0.0,0.0,-2.4138,-2.4086,-2.4211,-2.4253,0.0,0.0,0.0,0.0,0.0,0.0,0.0,0.0,0.0,0.0,0.0,0.0,0.0,0.0,0.0,0.0,0.0,0.0,0.0,0.0,0.0,0.0,0.0,0.0,0.0,0.0,0.0,0.0,0.0,0.0,0.0,0.0,0.0,0.0,0.0,0.0,0.0,0.0,0.0,0.0,0.0,0.0,0.0,0.0,0.0,0.0,0.0,0.0,0.0,0.0,0.0,0.0,0.0,0.0,0.0,-2.0505,-2.1367,-2.1966,-2.2297,-2.2474,-2.2217,-2.1375,-2.0707,-1.9731,0.0,0.0,0.0,0.0,0.0,0.0,0.0,0.0,0.0,0.0,0.0,0.0,0.0,0.0,0.0,0.0,0.0,0.0,0.0,0.0,0.0,0.0,0.0,0.0,0.0,0.0,0.0,0.0,0.0,0.0,0.0,0.0,0.0,0.0,0.0,0.0,0.0,0.0,0.0,0.0,0.0,-2.3861,-2.4523,-2.4511,-2.4426,0.0,0.0,-2.5251,-2.5133,-2.5547,-2.5731,-2.518,0.0,0.0,0.0,0.0,0.0,0.0,0.0,0.0,0.0,0.0,0.0,0.0,0.0,0.0,0.0,0.0,0.0,0.0,0.0,0.0,0.0,0.0,0.0,0.0,0.0,0.0,0.0,0.0,0.0,0.0,0.0,0.0,0.0,0.0,0.0,0.0,0.0,0.0,0.0,0.0,0.0,0.0,0.0,0.0,0.0,0.0,0.0,0.0,0.0,0.0,0.0,0.0,0.0,-2.0444,-2.2167,-2.2492,-2.3105,-2.3978,-2.373,-2.3396,-2.3039,-2.1897,-2.0911,0.0,0.0,0.0,0.0,0.0,0.0,0.0,0.0,0.0,0.0,0.0,0.0,0.0,0.0,0.0,0.0,0.0,0.0,0.0,0.0,0.0,0.0,0.0,0.0,0.0,0.0,0.0,0.0,-2.1871,-2.2347,-2.2526,0.0,0.0,0.0,0.0,0.0,0.0,0.0,0.0,0.0,0.0,-2.4911,-2.5555,-2.5444,0.0,0.0,-2.5931,-2.593,-2.5863,-2.6076,-2.6201,-2.6036,-2.5678,0.0,0.0,0.0,0.0,0.0,0.0,0.0,0.0,0.0,0.0,0.0,0.0,0.0,0.0,0.0,0.0,0.0,0.0,0.0,0.0,0.0,0.0,0.0,0.0,0.0,0.0,0.0,0.0,0.0,0.0,0.0,0.0,0.0,0.0,0.0,0.0,0.0,0.0,0.0,0.0,0.0,0.0,0.0,0.0,0.0,0.0,0.0,0.0,0.0,0.0,0.0,0.0,-2.1572,-2.3446,-2.3695,-2.4331,-2.5373,-2.5132,-2.4774,-2.4414,-2.3394,-2.24,0.0,0.0,0.0,0.0,0.0,0.0,0.0,0.0,0.0,0.0,0.0,0.0,0.0,0.0,0.0,0.0,0.0,0.0,0.0,0.0,0.0,0.0,0.0,0.0,0.0,0.0,0.0,0.0,-2.2403,-2.2752,-2.2902,0.0,0.0,0.0,0.0,0.0,0.0,0.0,0.0,0.0,0.0,-2.5912,-2.655,-2.6438,-2.6447,-2.6916,-2.6765,-2.6539,-2.6553,-2.6553,-2.6592,-2.6683,0.0,0.0,0.0,0.0,0.0,0.0,0.0,0.0,0.0,0.0,0.0,0.0,0.0,0.0,0.0,0.0,0.0,0.0,0.0,0.0,0.0,0.0,0.0,0.0,0.0,0.0,0.0,0.0,0.0,0.0,0.0,0.0,0.0,0.0,0.0,0.0,0.0,0.0,0.0,0.0,0.0,0.0,0.0,0.0,0.0,0.0,0.0,0.0,0.0,0.0,0.0,0.0,0.0,-2.291,-2.406,-2.521,-2.5882,-2.6178,-2.6678,-2.6396,-2.5436,-2.5294,-2.4406,-2.2543,0.0,0.0,0.0,0.0,0.0,0.0,0.0,0.0,0.0,0.0,0.0,0.0,0.0,0.0,0.0,0.0,0.0,0.0,0.0,0.0,0.0,0.0,0.0,0.0,0.0,0.0,-2.2469,-2.2797,-2.2917,0.0,0.0,0.0,0.0,0.0,0.0,0.0,0.0,0.0,0.0,-2.6557,-2.6811,-2.747,-2.7473,-2.7386,-2.7401,-2.7284,-2.7167,-2.7167,-2.7181,-2.7167,0.0,0.0,0.0,0.0,0.0,0.0,0.0,0.0,0.0,0.0,0.0,0.0,0.0,0.0,0.0,0.0,0.0,0.0,0.0,0.0,0.0,0.0,0.0,0.0,0.0,0.0,0.0,-1.9688,-1.9823,0.0,0.0,0.0,0.0,0.0,0.0,0.0,0.0,0.0,0.0,0.0,-2.42,-2.4656,0.0,0.0,0.0,0.0,0.0,0.0,0.0,0.0,0.0,0.0,0.0,0.0,-2.4765,-2.5848,-2.6653,-2.716,-2.742,-2.7538,-2.7339,-2.6624,-2.6266,-2.5396,-2.3764,0.0,0.0,0.0,0.0,0.0,0.0,0.0,0.0,0.0,0.0,0.0,0.0,0.0,0.0,0.0,0.0,0.0,0.0,0.0,0.0,0.0,0.0,0.0,0.0,0.0,-2.202,0.0,0.0,0.0,0.0,0.0,0.0,0.0,0.0,0.0,0.0,0.0,-2.6896,-2.7583,-2.8103,-2.8519,-2.8747,-2.8576,-2.8273,0.0,0.0,0.0,0.0,0.0,0.0,0.0,0.0,0.0,0.0,0.0,0.0,0.0,0.0,-2.989,-2.9536,-2.9261,-2.9149,-2.9404,0.0,0.0,0.0,0.0,0.0,0.0,0.0,0.0,0.0,0.0,0.0,0.0,0.0,0.0,0.0,0.0,-2.1499,0.0,0.0,0.0,0.0,0.0,0.0,0.0,0.0,-2.4629,-2.527,-2.6031,-2.6471,-2.6635,0.0,-2.6197,-2.5548,0.0,0.0,0.0,0.0,0.0,0.0,0.0,0.0,-2.5928,-2.7223,-2.766,-2.8026,-2.826,-2.8287,-2.8091,-2.7683,-2.7157,-2.6435,-2.5475,-2.4632,-2.3808,0.0,0.0,0.0,0.0,0.0,0.0,0.0,0.0,0.0,0.0,0.0,0.0,0.0,0.0,0.0,0.0,0.0,0.0,0.0,0.0,0.0,0.0,0.0,-2.3193,0.0,0.0,0.0,0.0,0.0,0.0,0.0,0.0,0.0,-2.6302,-2.7054,-2.7965,-2.866,-2.9221,-2.9531,-2.9531,0.0,0.0,0.0,0.0,0.0,0.0,0.0,-2.8016,-2.8393,-2.8507,-2.8885,-2.9747,-3.0717,-3.1502,-3.1804,0.0,0.0,-3.0916,-3.0432,-3.037,-3.0643,-3.0674,-3.0627,-3.0538,-2.977,-2.9693,0.0,0.0,0.0,0.0,0.0,0.0,0.0,0.0,-2.3688,-2.3906,0.0,-2.4319,0.0,0.0,0.0,0.0,0.0,0.0,0.0,0.0,-2.6117,-2.6709,-2.7806,-2.7936,-2.7922,-2.7919,-2.7877,-2.7893,-2.7694,-2.5049,0.0,0.0,0.0,0.0,0.0,0.0,-2.6477,-2.8221,-2.8318,-2.8498,-2.8922,-2.8935,-2.8821,-2.8733,-2.7994,-2.7593,-2.7566,-2.6649,-2.558,-2.4379,-2.408,0.0,0.0,0.0,0.0,0.0,0.0,0.0,0.0,0.0,0.0,0.0,0.0,0.0,0.0,0.0,0.0,0.0,0.0,0.0,0.0,-2.4112,0.0,0.0,0.0,0.0,0.0,0.0,0.0,0.0,0.0,0.0,-2.7674,-2.8248,-2.8995,-2.981,0.0,0.0,0.0,0.0,-2.9474,-2.8792,-2.8554,-2.8537,-2.8473,-2.8473,-2.8786,-2.9521,0.0,0.0,-3.1128,-3.199,-3.2873,-3.3697,-3.451,-3.4298,-3.1879,-3.151,-3.1478,-3.1478,-3.1526,-3.1191,-3.0728,-3.1202,-3.2008,-2.7547,0.0,0.0,0.0,0.0,-2.5459,-2.5574,-2.5747,-2.5658,-2.5692,-2.5812,-2.5812,0.0,0.0,0.0,0.0,0.0,0.0,-2.6842,-2.7612,-2.8477,-2.9073,-2.9508,-3.0358,-3.0771,-3.0742,-2.9997,-2.9643,-2.9557,-2.8137,-2.7097,-2.6553,0.0,0.0,0.0,0.0,-2.8604,-2.9525,-3.0021,-3.0482,-3.0946,-3.096,-3.083,-3.0647,-3.0021,-2.9572,-2.9458,-2.8249,-2.7366,-2.6932,-2.6196,0.0,0.0,0.0,0.0,0.0,0.0,0.0,0.0,0.0,0.0,0.0,0.0,0.0,0.0,0.0,0.0,0.0,0.0,0.0,-2.4379,-2.4747,-2.5058,0.0,0.0,0.0,0.0,0.0,0.0,0.0,0.0,0.0,-3.0179,-3.0352,-3.0761,0.0,0.0,-3.1849,-3.1849,-3.175,-3.1268,-3.0113,0.0,0.0,0.0,-3.0206,-3.0508,-3.0828,-3.1483,-3.2303,-3.3126,-3.4002,-3.4797,-3.5561,-3.5974,-3.5929,-3.5356,-3.4972,-3.4836,-3.4784,-3.4587,-3.431,-3.4166,-3.4626,-3.537,-3.0377,-2.8728,-2.779,-2.7426,-2.7426,-2.7411,-2.7426,-2.7411,-2.7357,-2.7302,-2.7302,-2.7302,-2.7302,-2.7317,-2.7302,0.0,0.0,0.0,-2.8698,-2.9392,-3.0436,-3.1028,-3.1261,-3.206,-3.2407,-3.2376,-3.1839,-3.1535,-3.1506,-3.1014,-3.0499,-3.0029,0.0,0.0,-2.8684,-2.9389,-3.0053,-3.0675,-3.1305,-3.1818,-3.2068,-3.2062,-3.2033,-3.1874,-3.1504,-3.1126,-3.0821,-2.9896,-2.9153,-2.8568,-2.7875,-2.7106,0.0,0.0,0.0,0.0,0.0,0.0,0.0,0.0,0.0,0.0,0.0,-2.2903,-2.3192,0.0,0.0,0.0,-2.4619,-2.5243,-2.5839,-2.6203,0.0,0.0,0.0,0.0,0.0,0.0,0.0,-3.0154,-3.0747,-3.1324,-3.1999,-3.2271,-3.2462,-3.2588,-3.2654,-3.2688,-3.2688,0.0,-3.2189,-3.0814,-3.115,-3.1486,-3.139,-3.147,-3.1742,-3.2482,-3.3614,-3.4509,-3.5049,-3.5573,-3.6163,-3.6852,-3.717,-3.7305,-3.7653,-3.758,-3.7208,-3.658,-3.6214,-3.6052,-3.6056,-3.6551,-3.7285,-3.2571,-3.2309,-2.9972,-2.8956,-2.8898,-2.8913,-2.8913,-2.8898,-2.8913,-2.8942,-2.8985,-2.8985,-2.9042,-2.9042,-2.9028,0.0,0.0,-2.9827,-3.0602,-3.1294,-3.1965,-3.2569,-3.3111,-3.3173,-3.3173,-3.317,-3.3327,-3.3436,-3.3421,-3.3531,-3.3577,-3.3502,-3.0745,-2.9518,-2.9915,-3.0542,-3.1156,-3.1804,-3.2382,-3.2722,-3.276,-3.2716,-3.2742,-3.2757,-3.2698,-3.2407,-3.19,-3.1555,-3.0838,-2.9724,-2.9299,-2.8793,-2.8153,0.0,0.0,0.0,0.0,0.0,0.0,0.0,0.0,0.0,0.0,0.0,0.0,0.0,0.0,0.0,-2.5697,0.0,-2.7542,-2.8204,0.0,0.0,0.0,-3.0195,-3.0608,-3.0744,-3.0977,-3.1288,0.0,0.0,-3.3161,0.0,-3.3973,-3.2964,-3.2834,-3.2834,-3.2834,-3.2998,-3.253,-3.1438,-3.1757,-3.2366,-3.2948,-3.2803,-3.3096,-3.4366,-3.5807,-3.6612,-3.676,-3.6809,-3.7173,-3.7953,-3.8137,-3.8302,-3.9139,-3.9172,-3.8805,-3.7255,-3.6957,-3.694,-3.7006,-3.742,-3.8051,-3.2962,-3.2454,-3.1859,-3.1308,-3.0858,-3.0843,-3.0843,-3.0843,-3.0829,-3.1134,-3.1613,-3.1737,-3.1907,-3.1985,-3.1985,-3.1999,-3.1968,-3.2359,-3.2553,-3.2807,-3.3592,-3.3997,-3.4185,-3.4648,-3.4872,-3.4842,-3.4645,-3.4606,-3.459,-3.4378,-3.4237,-3.4206,-3.3536,-3.2942,-3.2616,-3.272,-3.3136,-3.3806,-3.3955,-3.4233,-3.4673,-3.4693,-3.4664,-3.4679,-3.4297,-3.3969,-3.3806,-3.267,-3.1929,-3.1619,-3.0821,-3.0075,-2.945,-2.9015,0.0,0.0,0.0,0.0,0.0,0.0,0.0,0.0,0.0,-2.5089,-2.5344,0.0,-2.7065,0.0,-2.8104,-2.8921,-2.9305,-2.9629,0.0,0.0,-3.0448,-3.0709,-3.0992,-3.1274,-3.1709,-3.2433,-3.2886,-3.3437,-3.4088,-3.435,-3.4382,-3.4105,-3.4039,-3.4056,-3.4105,-3.4088,-3.4023,-3.3779,-3.3779,-3.4219,-3.5038,-3.5563,-3.5826,-3.6271,-3.6735,-3.7182,-3.7744,-3.7843,-3.8074,-3.8805,-3.897,-3.909,-3.9292,-3.9288,-3.9172,-3.8772,-3.8705,-3.8705,-3.8705,-3.8805,-3.8954,-3.3688,-3.3354,-3.3354,-3.2977,-3.248,-3.2077,-3.1961,-3.1975,-3.2038,-3.2305,-3.2655,-3.283,-3.2989,-3.3161,-3.3161,-3.3238,-3.3406,-3.386,-3.4104,-3.4196,-3.4999,-3.5394,-3.5427,-3.5766,-3.5872,-3.5864,-3.5782,-3.5784,-3.5861,-3.5747,-3.5739,-3.5798,-3.5798,-3.5605,-3.5216,-3.4668,-3.4577,-3.4926,-3.5261,-3.5381,-3.541,-3.5713,-3.5728,-3.5425,-3.5379,-3.5228,-3.4925,-3.3834,-3.3079,-3.2808,-3.1854,-3.1157,-3.0857,-3.0332,-2.9894,0.0,0.0,0.0,0.0,0.0,0.0,0.0,0.0,0.0,0.0,0.0,-2.8699,0.0,-2.9447,-2.9978,-3.0299,-3.0695,-3.1104,-3.1397,-3.1817,-3.2269,-3.2806,-3.3074,-3.3598,-3.4392,-3.4725,-3.5087,-3.5514,-3.563,-3.5679,-3.5679,-3.5679,-3.5498,-3.5136,-3.53,-3.5514,-3.5283,-3.5481,-3.5844,-3.6471,-3.7048,-3.7496,-3.7513,-3.7812,-3.8212,-3.8609,-3.8676,-3.8808,-3.9242,-3.9342,-3.9379,-3.9379,-3.9432,-3.9468,-3.9435,-3.9451,-3.9432,-3.9342,-3.9288,-3.9342,-3.4714,-3.4714,-3.4641,-3.433,-3.3893,-3.315,-3.278,-3.2707,-3.2898,-3.302,-3.3172,-3.3288,-3.3461,-3.3662,-3.3677,-3.3877,-3.4182,-3.4896,-3.534,-3.5431,-3.6212,-3.6614,-3.66,-3.6583,-3.6599,-3.66,-3.6785,-3.6876,-3.7027,-3.7178,-3.7358,-3.7476,-3.7476,-3.7476,-3.7385,-3.6375,-3.5809,-3.5716,-3.6319,-3.629,-3.5689,-3.6291,-3.6307,-3.5735,-3.6276,-3.6322,-3.5735,-3.504,-3.4407,-3.3908,-3.2798,-3.2262,-3.2338,-3.1449,-3.102,0.0,-3.0448,0.0,0.0,0.0,0.0,0.0,0.0,0.0,0.0,-3.0036,-3.028,-3.0571,-3.0746,-3.0942,-3.1342,-3.2008,-3.2541,-3.2985,-3.3665,-3.4378,-3.513,-3.5419,-3.5817,-3.647,-3.6795,-3.6949,-3.6884,-3.7051,-3.7102,-3.7019,-3.7119,-3.6902,-3.6222,-3.6503,-3.6668,-3.6301,-3.6818,-3.7134,-3.7317,-3.788,-3.8344,-3.8411,-3.8775,-3.9325,-3.9276,-3.9345,-3.9362,-3.9379,-3.9432,-3.9484,-3.9468,-3.9625,-3.9696,-3.951,-3.9594,-3.9661,-3.9382,-3.9362,-3.9395,-3.6428,-3.6384,-3.5854,-3.5575,-3.5413,-3.4699,-3.4141,-3.3721,-3.3736,-3.4224,-3.4986,-3.5149,-3.5374,-3.5626,-3.5641,-3.5782,-3.5999,-3.6368,-3.6537,-3.6597,-3.7047,-3.7216,-3.7238,-3.7227,-3.7227,-3.7238,-3.7449,-3.7524,-3.7567,-3.7685,-3.7801,-3.7801,-3.7817,-3.7801,-3.7786,0.0,0.0,0.0,-3.7152,-3.7152,-3.7034,-3.716,-3.7175,-3.7034,-3.716,0.0,-3.7034,-3.6373,-3.5949,-3.5791,-3.4347,0.0,0.0,0.0,0.0,0.0,0.0,0.0,0.0,0.0,0.0,0.0,-3.3761,-3.3246,-3.1397,-3.2143,-3.3075,-3.3728,-3.3945,-3.4154,-3.4479,-3.4832,-3.5182,-3.555,-3.5821,-3.6072,-3.6359,-3.653,-3.6699,-3.6814,-3.6949,-3.7068,-3.7118,-3.7102,-3.7135,-3.7218,-3.7718,-3.8051,-3.7884,-3.7417,-3.7068,-3.7002,-3.7599,-3.798,-3.8013,-3.8593,-3.906,-3.9159,-3.9262,-3.9448,-3.9484,-3.959,-3.9642,-3.9625,-3.9625,-3.9644,-3.9542,-3.9679,-3.9765,-3.9394,-3.9699,-3.9868,-3.9441,-3.9473,-3.9642,-3.6936,0.0,-3.6665,-3.6639,0.0,-3.606,-3.5744,-3.5529,-3.4986,-3.516,-3.5846,-3.5894,-3.6133,-3.6461,-3.6507,-3.6616,-3.6831,-3.7194,-3.7298,-3.7314,-3.7543,-3.7662,-3.7653,-3.7636,-3.7652,-3.7669,-3.7743,-3.7876,-3.8049,-3.8107,-3.8205,-3.8359,-3.8359,-3.8359,-3.8359,-3.8359,-3.8132,-3.7685,-3.7663,-3.7504,-3.7192,-3.7494,-3.751,-3.7192,0.0,0.0,0.0,0.0,0.0,0.0,0.0,0.0,0.0,0.0,0.0,-3.4919,-3.4623,-3.4435,-3.4419,-3.4532,-3.4572,-3.477,-3.553,-3.53,-3.3537,-3.4029,-3.4632,-3.5074,-3.5219,-3.5371,-3.568,-3.5899,-3.6131,-3.636,-3.6587,-3.6858,-3.7272,-3.7442,-3.7694,-3.8008,-3.8127,-3.8231,-3.8282,-3.8282,-3.8334,-3.8385,-3.872,-3.9005,-3.9005,-3.867,-3.8385,-3.8385,-3.8652,-3.8935,-3.8968,-3.9185,-3.9468,-3.9537,-3.9537,-3.959,-3.959,-3.9694,-3.9781,-3.9798,-3.9884,-3.9952,-3.9885,-4.002,-4.0086,-3.9866,-4.0101,-4.0353,-4.0102,-4.0003,-3.9952,-3.757,-3.7709,-3.759,-3.7736,-3.7933,-3.7334,-3.7242,-3.7471,0.0,0.0,0.0,-3.6321,-3.6585,-3.6831,-3.6982,-3.7163,-3.7314,-3.7626,-3.7817,-3.7817,-3.7976,-3.8033,-3.8033,-3.8214,-3.8278,-3.8284,-3.8412,-3.8592,-3.8821,-3.8707,-3.8795,-3.8985,-3.887,-3.8805,-3.8805,-3.8805,-3.8583,-3.8148,-3.8075,-3.7817,-3.7271,-3.7801,-3.7817,-3.7239,-3.7883,-3.823,-3.827,-3.7832,-3.7524,-3.7429,-3.6625,-3.6123,-3.6126,-3.5864,-3.5808,-3.5935,-3.5935,-3.5951,-3.5951,-3.5935,-3.6047,-3.6142,-3.683,-3.6806,-3.5752,-3.5816,-3.5935,-3.6047,-3.6102,-3.6268,-3.647,-3.6664,-3.6841,-3.6963,-3.7173,-3.7609,-3.8137,-3.8342,-3.8678,-3.9209,-3.9312,-3.9415,-3.9418,-3.947,-3.959,-3.9661,-3.968,-3.9781,-3.9833,-3.9697,-3.9543,-3.9543,-3.9543,-3.9696,-3.9729,-3.9747,-3.9764,-3.9781,-3.9781,-3.9764,-3.9833,-3.9952,-4.0054,-4.0087,-4.0238,-4.0303,-4.0302,-4.0434,-4.048,-4.0288,-4.0539,-4.084,-4.097,-4.0783,-4.0624,-3.9567,-3.9592,-3.9169,-3.9062,-3.9001,-3.8484,-3.8453,-3.8698,-3.7203,-3.66,-3.6646,-3.6952,-3.7118,-3.7282,-3.7508,-3.7685,-3.7801,-3.8049,-3.818,0.0,-3.8455,-3.8551,-3.8711,-3.9315,-3.9593,-3.9674,-4.0263,-4.0573,-4.0565,-3.9993,-3.9682,-3.9657,-3.9116,-3.8821,-3.8805,-3.8914,-3.8914,-3.886,-3.875,-3.8645,-3.8547,-3.8645,-3.8645,-3.8564,-3.8629,-3.875,-3.8843,-3.8816,-3.8767,-3.8679,-3.7969,-3.7693,-3.8098,-3.7452,-3.7293,-3.7907,-3.7971,-3.7988,-3.7971,-3.8068,-3.8219,-3.8345,-3.8482,-3.8017,-3.6814,-3.7303,-3.7753,-3.7737,-3.7915,-3.8219,-3.8274,-3.839,-3.852,-3.8623,-3.8834,-3.9007,-3.909,-3.9196,-3.9299,-3.9484,-3.959,-3.9625,-3.9677,-3.9677,-3.9729,-3.9849,-3.9986,-4.0138,-4.0221,-3.9986,-3.9729,-3.9729,-3.9781,-3.9833,-3.9952,-3.9986,-4.002,-4.0037,-4.0138,-4.0188,-4.0188,-4.0404,-4.0534,-4.06,-4.068,-4.0776,-4.0806,-4.0918,-4.0931,-4.081,-4.11,-4.1377,-4.1509,-4.1992,-4.2178,-4.0331,-4.0455,-4.0355,-4.0322,-4.0355,-3.9903,-3.966,-3.9408,-3.8809,-3.8509,-3.837,-3.8555,-3.8692,-3.889,-3.9113,-3.9248,-3.9291,-3.9599,-3.9772,-3.983,-3.9853,-3.991,-4.0017,-4.032,-4.0508,-4.0606,-4.0918,-4.1198,-4.1368,-4.1021,-4.0928,-4.0951,-4.0636,-4.047,-4.047,-4.0617,-4.0671,-4.0654,-3.9566,-3.9007,-3.899,-3.9007,-3.899,-3.9007,-3.9185,-3.9292,-3.9398,-3.9504,-3.9504,-3.9398,-3.903,-3.8838,-3.892,-3.8553,-3.8482,-3.881,-3.886,-3.886,-3.886,-3.8898,-3.8952,-3.9007,-3.9007,-3.875,-3.8221,-3.8316,-3.8455,-3.8455,-3.8623,-3.8678,-3.8733,-3.8969,-3.9148,-3.9148,-3.9362,-3.952,-3.952,-3.9573,-3.9573,-3.9625,-3.9729,-3.9849,-3.9935,-3.9986,-4.0087,-4.0188,-4.0337,-4.0502,-4.0662,-4.0534,-4.0271,-4.0188,-4.0171,-4.0238,-4.0305,-4.0387,-4.0436,-4.0534,-4.0583,-4.0648,-4.0648,-4.0793,-4.0935,-4.0948,-4.1088,-4.1198,-4.1244,-4.1335,-4.1346,-4.1373,-4.1831,-4.2113,-4.2193,-4.3536,-4.4395,-4.0851,-4.1018,-4.1168,-4.1393,-4.1509,-4.1262,-4.0911,-4.0571,-4.0633,-4.0633,-4.0507,-4.0158,-4.0075,-4.0289,-4.0513,-4.0615,-4.0674,-4.0867,-4.1025,-4.1025,-4.1106,-4.1123,-4.119,-4.1354,-4.1494,-4.1633,-4.1806,-4.2019,-4.2261,-4.2167,-4.2021,-4.1997,-4.1963,-4.1963,-4.2017,-4.2126,-4.2233,-4.2165,-4.0822,-4.0024,-3.9901,-3.9901,-3.9901,-3.9901,-4.0146,-4.032,-4.0389,-4.0544,-4.051,-4.0136,-4.0068,-3.988,-3.9435,-3.9418,-3.9418,-3.9418,-3.9418,-3.9418,-3.9418,-3.9418,-3.9435,-3.9435,-3.9435,-3.9418,-3.9365,-3.9206,-3.9061,-3.8969,-3.9023,-3.9007,-3.9077,-3.9255,-3.9379,-3.9362,-3.959,-3.9729,-3.9729,-3.9764,-3.9833,-3.9833,-3.9952,-4.0087,-4.0238,-4.0337,-4.0453,-4.0583,-4.0728,-4.0871,-4.0965,-4.1012,-4.0901,-4.0806,-4.0662,-4.068,-4.0793,-4.0823,-4.0888,-4.1012,-4.1059,-4.1059,-4.1105,-4.1169,-4.1261,-4.1363,-4.1453,-4.1683,-4.1903,-4.2018,-4.193,-4.1886,-4.2538,-4.3324,-4.3491,-4.5088,-4.6266,-4.1522,-4.1538,-4.1746,-4.2011,-4.2269,-4.2252,-4.233,-4.2532,-4.2626,-4.2704,-4.2521,-4.1123,-4.0605,-4.075,-4.0916,-4.0991,-4.1007,-4.1,-4.1132,-4.1247,-4.1385,-4.1515,-4.176,-4.2422,-4.2819,-4.2959,-4.3535,-4.39,-4.394,-4.3478,-4.2946,-4.232,-4.2252,-4.2303,-4.2339,-4.2496,-4.2618,-4.2757,-4.2672,-4.2449,-4.2049,-4.2049,-4.198,-4.1996,-4.2033,-4.2119,-4.2243,-4.2345,-4.2005,-4.1325,-4.124,-4.0866,-4.0155,-4.0037,-4.0037,-4.0054,-4.0071,-4.0037,-4.0037,-4.002,-4.0054,-4.002,-4.0037,-4.0003,-4.002,-3.9969,-3.9833,-3.9573,-3.9573,-3.9556,-3.9609,-3.9677,-3.9677,-3.9677,-3.9833,-3.9884,-3.9952,-4.0087,-4.0238,-4.0238,-4.0337,-4.0485,-4.06,-4.0648,-4.0793,-4.0982,-4.1088,-4.1226,-4.1335,-4.138,-4.138,-4.138,-4.1261,-4.1093,-4.1093,-4.1198,-4.129,-4.1335,-4.1471,-4.155,-4.1585,-4.1692,-4.1771,-4.2203,-4.2017,-4.2412,-4.2906,-4.3127,-4.2871,-4.2729,-4.3576,-4.4886,-4.5634,-4.6457,-4.6532,-4.2158,-4.219,-4.2382,-4.2636,-4.2785,-4.2834,-4.2867,-4.299,-4.299,-4.3113,-4.3169,-4.261,-4.2245,-4.2185,-4.238,-4.244,-4.244,-4.2633,-4.275,-4.2792,-4.2982,-4.3079,-4.3283,-4.3591,-4.3855,-4.4096,-4.4512,-4.4742,-4.4801,-4.4636,-4.4418,-4.4162,-4.411,-4.411,-4.4127,-4.4302,-4.4406,-4.4458,-4.4595,-4.4595,-4.4285,-4.3374,-4.2826,-4.2809,-4.2911,-4.2979,-4.3047,-4.3164,-4.3009,-4.2599,-4.2582,-4.2395,-4.1953,-4.1918,-4.1918,-4.1918,-4.1936,-4.1936,-4.1918,-4.149,-4.1233,-4.1233,-4.0822,-4.0566,-4.0583,-4.0583,-4.0468,-4.0337,-4.0087,-3.9918,-3.9935,-4.0037,-4.0037,-4.0087,-4.0188,-4.0305,-4.0404,-4.0453,-4.0551,-4.0648,-4.0793,-4.084,-4.0935,-4.1029,-4.1215,-4.1398,-4.1471,-4.1587,-4.171,-4.1771,-4.1771,-4.1815,-4.1728,-4.1595,-4.1533,-4.1577,-4.1684,-4.1771,-4.1815,-4.1911,-4.251,-4.2625,-4.2853,-4.339,-4.3451,-4.3661,-4.4217,-4.4288,-4.4181,-4.4103,-4.5119,-4.665,-4.6834,-4.7155,-4.7173,-4.2789,-4.2837,-4.3043,-4.3129,-4.3267,-4.3306,-4.3355,-4.3355,-4.3355,-4.3432,-4.3611,-4.3687,-4.3611,-4.3416,-4.3552,-4.3628,-4.3628,-4.3822,-4.3998,-4.3998,-4.4155,-4.4293,-4.4423,-4.4519,-4.4648,-4.4869,-4.5069,-4.5247,-4.5336,-4.5494,-4.558,-4.5598,-4.558,-4.5632,-4.5632,-4.5735,-4.5786,-4.5819,-4.5887,-4.5972,-4.5848,-4.4791,-4.4069,-4.3969,-4.4118,-4.4167,-4.415,-4.4265,-4.416,-4.3872,-4.3872,-4.3701,-4.3395,-4.3377,-4.3395,-4.3395,-4.3395,-4.3395,-4.3377,-4.2857,-4.2528,-4.2493,-4.2007,-4.173,-4.1712,-4.173,-4.1712,-4.17,-4.136,-4.1064,-4.0355,-4.0387,-4.0436,-4.0453,-4.0583,-4.068,-4.081,-4.0823,-4.0871,-4.1012,-4.1123,-4.1233,-4.1307,-4.1443,-4.1604,-4.1728,-4.1797,-4.1927,-4.203,-4.2072,-4.2072,-4.2157,-4.2157,-4.2055,-4.1927,-4.2192,-4.2278,-4.2505,-4.2654,-4.3202,-4.3654,-4.3725,-4.3822,-4.427,-4.4695,-4.5024,-4.521,-4.5306,-4.5534,-4.5995,-4.6837,-4.7657,-4.7488,-4.7693,-4.7735,-4.3174,-4.3372,-4.3476,-4.3614,-4.3779,-4.3731,-4.3831,-4.3964,-4.4039,-4.4039,-4.4023,-4.4097,-4.4097,-4.4039,-4.4097,-4.408,-4.4039,-4.4097,-4.4196,-4.431,-4.4463,-4.4592,-4.4793,-4.5032,-4.5177,-4.523,-4.5494,-4.5649,-4.577,-4.5905,-4.5988,-4.5988,-4.6087,-4.6137,-4.6137,-4.6119,-4.6235,-4.6332,-4.6332,-4.6429,-4.6525,-4.6436,-4.6121,-4.581,-4.5947,-4.5975,-4.601,-4.6046,-4.573,-4.5045,-4.501,-4.4676,-4.4009,-4.3921,-4.3974,-4.3957,-4.3921,-4.3921,-4.3957,-4.3869,-4.3816,-4.3799,-4.3658,-4.3676,-4.3506,-4.3489,-4.3535,-4.3693,-4.346,-4.28,-4.1345,-4.1194,-4.106,-4.1043,-4.1086,-4.1215,-4.1197,-4.1395,-4.1261,-4.1485,-4.1653,-4.1751,-4.1833,-4.1902,-4.2068,-4.2111,-4.2058,-4.2108,-4.2222,-4.2287,-4.2369,-4.249,-4.249,-4.2432,-4.2258,-4.2703,-4.3215,-4.3549,-4.3948,-4.4701,-4.4851,-4.4964,-4.5,-4.509,-4.5371,-4.5701,-4.6062,-4.6434,-4.6734,-4.7125,-4.7579,-4.8057,-4.7847,-4.7911,-4.7951,-4.3805,-4.3864,-4.3906,-4.3914,-4.398,-4.4006,-4.408,-4.4196,-4.427,-4.431,-4.4367,-4.4497,-4.4553,-4.4553,-4.4648,-4.4536,-4.4253,-4.4423,-4.4609,-4.4759,-4.4906,-4.5052,-4.5266,-4.5441,-4.5529,-4.5735,-4.5887,-4.6087,-4.6301,-4.635,-4.6381,-4.6398,-4.6429,-4.6429,-4.6447,-4.6447,-4.6495,-4.6542,-4.6525,-4.6542,-4.6607,-4.6684,-4.6637,-4.6542,-4.6477,-4.6447,-4.6429,-4.6429,-4.6305,-4.6088,-4.6071,-4.5947,-4.5682,-4.5629,-4.5647,-4.5647,-4.5647,-4.5629,-4.5576,-4.5141,-4.4894,-4.4922,-4.4445,-4.4216,-4.418,-4.4163,-4.4163,-4.418,-4.418,-4.3673,-4.3318,-4.2905,-4.2795,-4.2812,-4.2841,-4.287,-4.2987,-4.3015,-4.3107,-4.3198,-4.3261,-4.3305,-4.3306,-4.3571,-4.354,-4.3077,-4.3054,-4.2946,-4.2575,-4.2472,-4.253,-4.257,-4.2609,-4.2609,-4.257,-4.3153,-4.3804,-4.4324,-4.4815,-4.5312,-4.557,-4.5892,-4.6024,-4.6499,-4.6595,-4.6654,-4.713,-4.7098,-4.7488,-4.7711,-4.8218,-4.8239,-4.8028,-4.813,-4.8114,-4.4327,-4.4327,-4.4384,-4.4367,-4.4384,-4.4384,-4.4423,-4.4519,-4.4575,-4.4614,-4.4742,-4.4906,-4.4978,-4.5032,-4.514,-4.5052,-4.478,-4.4923,-4.5032,-4.5194,-4.5319,-4.5511,-4.5702,-4.5821,-4.5972,-4.6122,-4.6253,-4.6447,-4.659,-4.6637,-4.6684,-4.6655,-4.6702,-4.6731,-4.6731,-4.6731,-4.6731,-4.6731,-4.6731,-4.6731,-4.6749,-4.6824,-4.6934,-4.6934,-4.687,-4.6778,-4.6731,-4.6731,-4.6749,-4.6778,-4.6795,-4.6778,-4.6806,-4.6824,-4.6824,-4.6806,-4.6788,-4.6824,-4.6771,-4.6344,-4.6077,-4.6059,-4.5641,-4.5303,-4.5285,-4.5285,-4.5241,-4.5285,-4.5285,-4.5285,-4.5241,-4.5115,-4.4721,-4.4212,-4.4008,-4.4071,-4.4208,-4.4208,-4.4263,-4.4361,-4.4387,-4.444,-4.4555,-4.4668,-4.4503,-4.402,-4.3953,-4.3584,-4.3192,-4.2871,-4.2765,-4.2804,-4.2824,-4.3043,-4.3242,-4.3782,-4.4303,-4.4809,-4.5825,-4.6187,-4.6445,-4.6785,-4.712,-4.7706,-4.7988,-4.801,-4.7977,-4.7889,-4.7965,-4.8132,-4.8265,-4.8399,-4.8324,-4.8286,-4.8364,-4.4793,-4.4831,-4.494,-4.4978,-4.4978,-4.4978,-4.4978,-4.5032,-4.514,-4.5177,-4.523,-4.5336,-4.5424,-4.5441,-4.5529,-4.5632,-4.5684,-4.5441,-4.5441,-4.5632,-4.5735,-4.589,-4.6012,-4.6274,-4.6368,-4.6389,-4.653,-4.6637,-4.6684,-4.6778,-4.6842,-4.6842,-4.6934,-4.698,-4.6998,-4.698,-4.6998,-4.698,-4.698,-4.698,-4.6998,-4.7116,-4.7178,-4.7178,-4.7249,-4.7187,-4.7025,-4.698,-4.7043,-4.7151,-4.7196,-4.7205,-4.7276,-4.7276,-4.732,-4.7258,-4.7258,-4.7302,-4.7276,-4.7222,-4.7132,-4.7132,-4.7212,-4.7006,-4.6952,-4.7024,-4.7042,-4.6988,-4.7024,-4.7158,-4.706,-4.7024,-4.6364,-4.4778,-4.4627,-4.4689,-4.4663,-4.46,-4.4652,-4.4932,-4.5168,-4.5072,-4.5054,-4.527,-4.5276,-4.5024,-4.4529,-4.4108,-4.3896,-4.3429,-4.3178,-4.3178,-4.3178,-4.3287,-4.3852,-4.4454,-4.4835,-4.5378,-4.66,-4.7423,-4.7478,-4.7703,-4.7667,-4.8148,-4.8169,-4.819,-4.8249,-4.8177,-4.8235,-4.8365,-4.8476,-4.8606,-4.8569,-4.8569,-4.8642,-4.523,-4.523,-4.5283,-4.5283,-4.5283,-4.53,-4.5336,-4.5424,-4.5477,-4.5598,-4.5735,-4.5786,-4.5854,-4.5938,-4.5988,-4.6087,-4.6204,-4.6087,-4.6087,-4.6154,-4.6186,-4.6288,-4.6425,-4.6482,-4.6607,-4.6831,-4.697,-4.7025,-4.7098,-4.7125,-4.7143,-4.7125,-4.7187,-4.7205,-4.7187,-4.7187,-4.7187,-4.7187,-4.7169,-4.7187,-4.7232,-4.7232,-4.7294,-4.7294,-4.7276,-4.732,-4.7338,-4.7249,-4.7249,-4.7294,-4.7276,-4.732,-4.7407,-4.7511,-4.7572,-4.7554,-4.7554,-4.7554,-4.7554,-4.7554,-4.7597,-4.7554,-4.7572,-4.7572,-4.7572,-4.7554,-4.7597,-4.7554,-4.7554,-4.7554,-4.7572,-4.7572,-4.718,-4.6444,-4.6364,-4.6257,-4.6265,-4.638,-4.6496,-4.6625,-4.6686,-4.6747,-4.6813,-4.6843,-4.6595,-4.6142,-4.5555,-4.5015,-4.4473,-4.3835,-4.3305,-4.3393,-4.3429,-4.3483,-4.3866,-4.4305,-4.4728,-4.5407,-4.6635,-4.7679,-4.7936,-4.8267,-4.8324,-4.8363,-4.8382,-4.8402,-4.8476,-4.8495,-4.8512,-4.8695,-4.8842,-4.8859,-4.882,-4.8837,-4.8925,-4.5684,-4.5684,-4.5684,-4.5684,-4.5684,-4.5701,-4.5735,-4.5837,-4.5887,-4.5988,-4.6137,-4.6186,-4.6284,-4.6398,-4.6447,-4.6542,-4.6684,-4.6684,-4.6731,-4.6713,-4.6619,-4.6661,-4.6749,-4.6813,-4.6916,-4.7116,-4.7223,-4.7249,-4.732,-4.732,-4.732,-4.732,-4.732,-4.732,-4.732,-4.732,-4.732,-4.732,-4.732,-4.7302,-4.7363,-4.7425,-4.7432,-4.7475,-4.7518,-4.7603,-4.7705,-4.7681,-4.756,-4.7518,-4.7578,-4.7663,-4.7765,-4.7847,-4.7947,-4.7947,-4.7929,-4.7929,-4.7929,-4.7929,-4.7929,-4.7929,-4.7929,-4.7929,-4.7929,-4.7929,-4.7929,-4.7929,-4.7929,-4.7929,-4.7947,-4.7947,-4.7829,-4.7669,-4.7482,-4.7493,-4.7475,-4.7518,-4.7585,-4.7572,-4.765,-4.7824,-4.7866,-4.7933,-4.7791,-4.7284,-4.6686,-4.5938,-4.5223,-4.4487,-4.4115,-4.3815,-4.3682,-4.3734,-4.3753,-4.4103,-4.4595,-4.5413,-4.6411,-4.7224,-4.7776,-4.8347,-4.8624,-4.8642,-4.8678,-4.8695,-4.8748,-4.8704,-4.8717,-4.8956,-4.9176,-4.9206,-4.9183,-4.9127,-4.9193,-4.6235,-4.6253,-4.6235,-4.6235,-4.6235,-4.6253,-4.6235,-4.6284,-4.6381,-4.6429,-4.6495,-4.659,-4.6702,-4.6778,-4.6824,-4.6916,-4.7133,-4.7116,-4.7143,-4.7187,-4.7116,-4.7005,-4.7037,-4.7116,-4.724,-4.732,-4.7302,-4.7302,-4.7363,-4.7363,-4.732,-4.7363,-4.7363,-4.7363,-4.7407,-4.7363,-4.7389,-4.7389,-4.7407,-4.7432,-4.7554,-4.7639,-4.7783,-4.7811,-4.7951,-4.8032,-4.8169,-4.8208,-4.8111,-4.7875,-4.8032,-4.8187,-4.8226,-4.8286,-4.8344,-4.8344,-4.8326,-4.8344,-4.8344,-4.8344,-4.8344,-4.8344,-4.8344,-4.8344,-4.8344,-4.8344,-4.8344,-4.8344,-4.8344,-4.8344,-4.8344,-4.8344,-4.8288,-4.8249,-4.7992,-4.7788,-4.7834,-4.7933,-4.7992,-4.805,-4.813,-4.8226,-4.8226,-4.8286,-4.8269,-4.8124,-4.7647,-4.6855,-4.6244,-4.55,-4.4823,-4.448,-4.4196,-4.4005,-4.4055,-4.4129,-4.4625,-4.5462,-4.6415,-4.7181,-4.7837,-4.8481,-4.8925,-4.8959,-4.8974,-4.9008,-4.9005,-4.8954,-4.9019,-4.9239,-4.9415,-4.9546,-4.9539,-4.9464,-4.9457,-4.6778,-4.6778,-4.6795,-4.6778,-4.6778,-4.6795,-4.6795,-4.6795,-4.6842,-4.687,-4.6998,-4.7043,-4.707,-4.7125,-4.7169,-4.7232,-4.7276,-4.7276,-4.7276,-4.7302,-4.7363,-4.7312,-4.7267,-4.7281,-4.7367,-4.7432,-4.745,-4.7511,-4.7615,-4.7572,-4.7597,-4.7597,-4.7597,-4.7657,-4.7699,-4.7699,-4.7765,-4.7829,-4.7829,-4.7829,-4.787,-4.797,-4.8068,-4.809,-4.819,-4.8306,-4.8495,-4.866,-4.8532,-4.8229,-4.8364,-4.8495,-4.8532,-4.8642,-4.875,-4.875,-4.875,-4.875,-4.875,-4.875,-4.8768,-4.875,-4.875,-4.875,-4.875,-4.875,-4.8731,-4.875,-4.875,-4.875,-4.875,-4.8768,-4.875,-4.8678,-4.842,-4.819,-4.8172,-4.819,-4.8286,-4.8324,-4.8381,-4.8494,-4.8606,-4.8679,-4.8697,-4.8584,-4.8173,-4.754,-4.7051,-4.6336,-4.5556,-4.5163,-4.4867,-4.4541,-4.4383,-4.4354,-4.4739,-4.5554,-4.6424,-4.736,-4.8078,-4.8757,-4.9089,-4.927,-4.9302,-4.9302,-4.9259,-4.9196,-4.937,-4.9506,-4.9653,-4.9778,-4.9769,-4.9712,-4.9769,-4.7098,-4.7116,-4.7098,-4.7143,-4.7116,-4.7116,-4.7116,-4.7116,-4.7116,-4.716,-4.7249,-4.7249,-4.7276,-4.7363,-4.7345,-4.7407,-4.745,-4.7468,-4.7468,-4.7529,-4.7608,-4.7565,-4.7493,-4.7452,-4.7506,-4.7597,-4.7554,-4.7615,-4.7717,-4.7777,-4.7759,-4.7801,-4.7824,-4.7847,-4.7907,-4.8006,-4.8046,-4.809,-4.8111,-4.8151,-4.8208,-4.8324,-4.8401,-4.8438,-4.8495,-4.8623,-4.8855,-4.8993,-4.889,-4.8678,-4.8695,-4.882,-4.8855,-4.8993,-4.9094,-4.9094,-4.9094,-4.9108,-4.9127,-4.9127,-4.9127,-4.9127,-4.9127,-4.9094,-4.9127,-4.9127,-4.9108,-4.9094,-4.9108,-4.9094,-4.9094,-4.9094,-4.9094,-4.9094,-4.8906,-4.8695,-4.8569,-4.855,-4.8587,-4.866,-4.8697,-4.8751,-4.8874,-4.8943,-4.9012,-4.8986,-4.8777,-4.8338,-4.7884,-4.7098,-4.6465,-4.6129,-4.5679,-4.535,-4.5273,-4.5291,-4.5404,-4.6129,-4.7183,-4.7994,-4.8522,-4.919,-4.9359,-4.9577,-4.9607,-4.9607,-4.955,-4.9541,-4.9618,-4.9778,-4.989,-4.9963,-4.9925,-4.9978,-5.0031,-4.7407,-4.7345,-4.7371,-4.7363,-4.7389,-4.7407,-4.7389,-4.7389,-4.7407,-4.7407,-4.7407,-4.7389,-4.7493,-4.7554,-4.756,-4.7639,-4.7741,-4.7723,-4.7723,-4.7759,-4.7795,-4.7814,-4.7723,-4.7705,-4.7705,-4.7741,-4.7741,-4.7741,-4.7801,-4.7884,-4.7902,-4.7943,-4.797,-4.8032,-4.809,-4.8187,-4.8245,-4.8304,-4.8363,-4.8438,-4.8513,-4.8624,-4.8697,-4.8822,-4.8943,-4.9027,-4.9211,-4.9308,-4.9225,-4.8993,-4.9061,-4.9146,-4.9211,-4.9308,-4.9371,-4.9415,-4.9415,-4.9415,-4.9415,-4.9415,-4.9415,-4.9415,-4.9415,-4.9446,-4.9415,-4.9415,-4.9415,-4.9415,-4.9446,-4.9415,-4.9415,-4.9415,-4.9415,-4.9384,-4.9384,-4.9289,-4.9061,-4.8978,-4.8978,-4.8978,-4.9008,-4.9042,-4.9108,-4.9174,-4.934,-4.9321,-4.9196,-4.9002,-4.8649,-4.8116,-4.7617,-4.7315,-4.6795,-4.6225,-4.624,-4.6284,-4.648,-4.6904,-4.8169,-4.9022,-4.9337,-4.9784,-4.9841,-4.9898,-4.9871,-4.9852,-4.9887,-4.9895,-4.9948,-5.0,-5.0082,-5.0108,-5.0133,-5.0201,-5.025,-4.787,-4.7852,-4.787,-4.7852,-4.7852,-4.7852,-4.7829,-4.7811,-4.7829,-4.7829,-4.7811,-4.7829,-4.787,-4.7888,-4.787,-4.7911,-4.7929,-4.7911,-4.7929,-4.7911,-4.7988,-4.7988,-4.797,-4.797,-4.7911,-4.7911,-4.7911,-4.7929,-4.7951,-4.797,-4.8028,-4.8126,-4.8187,-4.8208,-4.8381,-4.8419,-4.855,-4.8661,-4.8679,-4.8732,-4.8804,-4.889,-4.8993,-4.9113,-4.9327,-4.9452,-4.9514,-4.9574,-4.9615,-4.9585,-4.9525,-4.9483,-4.9544,-4.9555,-4.9615,-4.9644,-4.9644,-4.9644,-4.9615,-4.9644,-4.9644,-4.9644,-4.9644,-4.9615,-4.9634,-4.9663,-4.9663,-4.9615,-4.9615,-4.9644,-4.9644,-4.9663,-4.9644,-4.9644,-4.9644,-4.9615,-4.9525,-4.9384,-4.9289,-4.927,-4.9302,-4.9352,-4.9452,-4.9464,-4.9574,-4.9585,-4.9607,-4.9608,-4.9344,-4.8983,-4.8708,-4.8329,-4.7757,-4.722,-4.7226,-4.7352,-4.7585,-4.79,-4.8996,-4.9692,-5.0024,-5.0152,-5.0127,-5.0101,-5.0095,-5.0101,-5.0114,-5.0177,-5.0182,-5.0231,-5.0259,-5.0259,-5.0302,-5.0386,-5.0581,-4.7992,-4.7992,-4.7992,-4.7992,-4.7992,-4.7992,-4.7992,-4.7992,-4.7992,-4.7992,-4.7992,-4.7992,-4.7992,-4.7992,-4.7992,-4.8032,-4.809,-4.8111,-4.8208,-4.8206,-4.8239,-4.8279,-4.8267,-4.8267,-4.821,-4.8111,-4.809,-4.813,-4.8151,-4.819,-4.8304,-4.8361,-4.8419,-4.8532,-4.8624,-4.8697,-4.8824,-4.8967,-4.9033,-4.9079,-4.9127,-4.9225,-4.9352,-4.9464,-4.9634,-4.9721,-4.9788,-4.9816,-4.9871,-4.9898,-4.9871,-4.9816,-4.9788,-4.9816,-4.9843,-4.9871,-4.9871,-4.9871,-4.9871,-4.9871,-4.9879,-4.9871,-4.9898,-4.9917,-4.989,-4.989,-4.989,-4.9917,-4.9917,-4.9917,-4.9871,-4.9871,-4.9871,-4.9871,-4.9871,-4.9871,-4.9843,-4.9702,-4.9555,-4.9566,-4.9566,-4.9625,-4.9702,-4.975,-4.9778,-4.9816,-4.9871,-4.9868,-4.9868,-4.958,-4.9549,-4.9214,-4.8612,-4.8262,-4.8253,-4.841,-4.8747,-4.9114,-4.9771,-5.0138,-5.031,-5.0344,-5.0321,-5.0317,-5.0293,-5.0321,-5.0348,-5.0386,-5.0386,-5.039,-5.0393,-5.0416,-5.0495,-5.061,-5.09,-4.8053,-4.8111,-4.8093,-4.8093,-4.8093,-4.8111,-4.8111,-4.8111,-4.8111,-4.8151,-4.8093,-4.8093,-4.8151,-4.8093,-4.8111,-4.8169,-4.8304,-4.8363,-4.8438,-4.855,-4.8563,-4.8548,-4.8587,-4.8586,-4.855,-4.8324,-4.8343,-4.8363,-4.8401,-4.8476,-4.8569,-4.8606,-4.8751,-4.8857,-4.8909,-4.8993,-4.9135,-4.9247,-4.93,-4.9384,-4.9457,-4.9555,-4.9644,-4.9759,-4.9816,-4.9898,-4.9978,-5.0005,-5.0031,-5.0108,-5.0108,-5.0082,-5.0038,-5.0012,-5.0012,-5.0082,-5.0057,-5.0057,-5.0057,-5.0082,-5.0082,-5.0108,-5.0082,-5.0082,-5.0082,-5.0057,-5.0076,-5.0101,-5.0076,-5.0076,-5.0108,-5.0057,-5.0082,-5.0082,-5.0082,-5.0108,-5.0057,-4.9917,-4.9835,-4.9835,-4.9843,-4.9852,-4.9898,-4.9952,-4.9978,-5.0031,-5.0082,-5.0133,-5.0133,-5.0114,-5.0024,-4.9992,-4.9444,-4.9243,-4.9251,-4.9213,-4.9586,-4.98,-5.0399,-5.044,-5.05,-5.0478,-5.0476,-5.0457,-5.0457,-5.0478,-5.0459,-5.0459,-5.0459,-5.0521,-5.0542,-5.0542,-5.0677,-5.0849,-5.1312,-4.842,-4.8514,-4.8514,-4.8514,-4.8476,-4.8476,-4.8476,-4.8514,-4.8476,-4.8532,-4.8476,-4.8514,-4.8476,-4.8476,-4.8532,-4.8587,-4.8679,-4.8697,-4.8768,-4.8841,-4.8845,-4.8844,-4.8855,-4.8863,-4.8881,-4.8837,-4.8768,-4.8732,-4.8732,-4.8804,-4.8874,-4.8925,-4.9079,-4.9146,-4.9211,-4.9308,-4.9409,-4.9502,-4.9551,-4.9625,-4.9703,-4.9769,-4.9816,-4.9952,-5.0005,-5.0057,-5.0082,-5.0082,-5.0133,-5.0163,-5.0163,-5.0188,-5.0212,-5.0139,-5.0114,-5.0108,-5.0133,-5.0133,-5.0133,-5.0133,-5.0108,-5.0108,-5.0133,-5.0133,-5.0108,-5.0108,-5.0158,-5.0133,-5.0133,-5.0127,-5.0127,-5.0266,-5.0184,-5.0165,-5.0323,-5.0323,-5.0279,-5.0291,-5.0304,-5.0418,-5.0285,-5.0057,-5.0082,-5.0082,-5.0108,-5.0133,-5.0182,-5.0207,-5.0231,-5.0255,-5.024,-5.0287,-5.0252,-5.0221,-5.0246,-5.0169,-5.0248,-5.0191,-5.0481,-5.0523,-5.0562,-5.0582,-5.0582,-5.0563,-5.0523,-5.0523,-5.0523,-5.0525,-5.0565,-5.0604,-5.0643,-5.0682,-5.1105,-5.1548,-5.2067,-4.8624,-4.8697,-4.8697,-4.8732,-4.875,-4.875,-4.875,-4.875,-4.875,-4.8731,-4.875,-4.875,-4.875,-4.875,-4.875,-4.882,-4.9015,-4.9046,-4.9113,-4.9164,-4.9176,-4.9176,-4.916,-4.9171,-4.919,-4.9201,-4.9193,-4.9146,-4.9079,-4.9127,-4.9193,-4.9206,-4.934,-4.9452,-4.9495,-4.9585,-4.9682,-4.9778,-4.9797,-4.9852,-4.9955,-4.9959,-5.0012,-5.0082,-5.0158,-5.0182,-5.0207,-5.0255,-5.0298,-5.0321,-5.0344,-5.039,-5.039,-5.0367,-5.0278,-5.0231,-5.0231,-5.0255,-5.0255,-5.0278,-5.0344,-5.0321,-5.0302,-5.0302,-5.0302,-5.0325,-5.0321,-5.0321,-5.034,-5.0493,-5.0956,-5.0951,-5.1162,-5.1525,-5.1544,-5.1525,-5.1544,-5.1563,-5.1486,-5.1271,-5.0741,-5.043,-5.0207,-5.0207,-5.0231,-5.0255,-5.0298,-5.0321,-5.0325,-5.0348,-5.0393,-5.0416,-5.0438,-5.0478,-5.0521,-5.0542,-5.0563,-5.0563,-5.0584,-5.0604,-5.0624,-5.0644,-5.0644,-5.0644,-5.0605,-5.0585,-5.0605,-5.0625,-5.0664,-5.076,-5.0971,-5.126,-5.1799,-5.23,-5.2897,-4.875,-4.8892,-4.8892,-4.8927,-4.8978,-4.9012,-4.8993,-4.8993,-4.8993,-4.8993,-4.8993,-4.903,-4.9105,-4.9272,-4.9493,-4.9653,-4.9763,-4.9883,-5.0053,-5.0084,-4.9909,-4.9778,-4.9762,-4.955,-4.9485,-4.9518,-4.9596,-4.9574,-4.9434,-4.9446,-4.9476,-4.9537,-4.9615,-4.9692,-4.9759,-4.9835,-4.9936,-4.999,-5.0043,-5.0063,-5.012,-5.0163,-5.0182,-5.0255,-5.0259,-5.0302,-5.0348,-5.039,-5.0412,-5.0435,-5.0438,-5.05,-5.05,-5.05,-5.0457,-5.0371,-5.0371,-5.0412,-5.0435,-5.0457,-5.0457,-5.0457,-5.05,-5.05,-5.05,-5.0476,-5.0555,-5.0692,-5.0807,-5.1149,-5.182,-5.2015,-5.2302,-5.2644,-5.2836,-5.2954,-5.2778,-5.2679,-5.2602,-5.2154,-5.1338,-5.1013,-5.096,-5.073,-5.0807,-5.0367,-5.0371,-5.0412,-5.0435,-5.0457,-5.0478,-5.05,-5.0521,-5.0542,-5.0584,-5.0585,-5.0605,-5.0625,-5.0644,-5.0683,-5.0702,-5.072,-5.0701,-5.0701,-5.0702,-5.0683,-5.0702,-5.0721,-5.072,-5.0893,-5.1333,-5.1583,-5.1702,-5.2877,-5.4034,-4.9027,-4.9164,-4.9211,-4.9225,-4.9332,-4.9415,-4.939,-4.9446,-4.9484,-4.9352,-4.9559,-4.9446,-4.9877,-5.044,-5.1166,-5.148,-5.1575,-5.1556,-5.159,-5.1525,-5.1148,-5.0883,-5.0771,-5.013,-5.0009,-4.9938,-4.9936,-4.9816,-4.9731,-4.9731,-4.9788,-4.9824,-4.9852,-4.9952,-4.9978,-5.0031,-5.0063,-5.0095,-5.0089,-5.0158,-5.0278,-5.0344,-5.0371,-5.0435,-5.0438,-5.0438,-5.0457,-5.0478,-5.0478,-5.05,-5.05,-5.05,-5.05,-5.05,-5.05,-5.0478,-5.0481,-5.0481,-5.05,-5.0521,-5.0521,-5.0521,-5.0521,-5.05,-5.0675,-5.0828,-5.1078,-5.1634,-5.1653,-5.2017,-5.267,-5.2861,-5.2954,-5.3149,-5.3398,-5.3322,-5.3245,-5.3791,-5.3692,-5.3558,-5.2938,-5.2321,-5.2017,-5.1689,-5.1401,-5.0883,-5.05,-5.0577,-5.056,-5.064,-5.0584,-5.0585,-5.0625,-5.0644,-5.0625,-5.0664,-5.0683,-5.0683,-5.072,-5.0757,-5.0757,-5.0757,-5.0793,-5.0793,-5.0813,-5.0966,-5.1119,-5.108,-5.0889,-5.1466,-5.2408,-5.2006,-5.1258,-5.2895,-5.5014,-5.0141,-5.0097,-5.0128,-5.0472,-5.096,-5.1028,-5.1069,-5.1099,-5.108,-5.108,-5.108,-5.1099,-5.1307,-5.1733,-5.2092,-5.2178,-5.2275,-5.2409,-5.2409,-5.2522,-5.2161,-5.198,-5.1768,-5.1186,-5.0773,-5.0653,-5.033,-5.0089,-5.0031,-5.0016,-5.0005,-5.0031,-5.0038,-5.0108,-5.0158,-5.0207,-5.0259,-5.0306,-5.0348,-5.0348,-5.0393,-5.0438,-5.0478,-5.05,-5.05,-5.05,-5.0521,-5.0542,-5.0542,-5.0563,-5.0584,-5.0623,-5.0623,-5.0623,-5.0623,-5.0623,-5.0605,-5.0585,-5.0563,-5.0622,-5.0681,-5.0642,-5.07,-5.0835,-5.1219,-5.1718,-5.2064,-5.2544,-5.2602,-5.3006,-5.362,-5.3832,-5.4158,-5.4293,-5.4274,-5.4372,-5.4391,-5.4566,-5.478,-5.4664,-5.4512,-5.3857,-5.324,-5.2871,-5.2504,-5.2005,-5.1525,-5.1353,-5.1163,-5.0952,-5.0856,-5.0702,-5.072,-5.0758,-5.0739,-5.0757,-5.0757,-5.0757,-5.0775,-5.0793,-5.0793,-5.081,-5.0999,-5.1225,-5.1454,-5.1567,-5.1641,-5.1396,-5.1134,-5.231,-5.3732,-5.3445,-5.3215,-5.4036,-5.5714,-5.1272,-5.1563,-5.1345,-5.1668,-5.2323,-5.2352,-5.239,-5.2446,-5.2389,-5.2455,-5.2577,-5.2672,-5.2805,-5.2919,-5.309,-5.3318,-5.3286,-5.3191,-5.3244,-5.3251,-5.3098,-5.3048,-5.2774,-5.2279,-5.1797,-5.1789,-5.1405,-5.1009,-5.0741,-5.0622,-5.0512,-5.0245,-5.0231,-5.0255,-5.0325,-5.0348,-5.0393,-5.0457,-5.0478,-5.05,-5.0521,-5.0521,-5.0542,-5.0542,-5.0523,-5.0563,-5.0544,-5.0585,-5.0624,-5.0664,-5.0683,-5.0702,-5.0721,-5.0702,-5.0702,-5.0798,-5.0932,-5.1125,-5.1126,-5.1126,-5.1068,-5.1106,-5.1337,-5.1819,-5.2204,-5.2935,-5.3435,-5.3493,-5.3551,-5.4013,-5.461,-5.4841,-5.5014,-5.5322,-5.5553,-5.5728,-5.5788,-5.5556,-5.5421,-5.5324,-5.5229,-5.5268,-5.4689,-5.4167,-5.3685,-5.3145,-5.2683,-5.2242,-5.1857,-5.1506,-5.1236,-5.1082,-5.0928,-5.0928,-5.0887,-5.0885,-5.0866,-5.0979,-5.0979,-5.1128,-5.1299,-5.1432,-5.1618,-5.1861,-5.2182,-5.2623,-5.2986,-5.2156,-5.157,-5.3378,-5.4955,-5.5533,-5.58,-5.6214,-5.6204,-5.227,-5.3708,-5.2794,-5.2493,-5.2615,-5.2574,-5.2665,-5.2914,-5.28,-5.2864,-5.3105,-5.3563,-5.3964,-5.4098,-5.4511,-5.4816,-5.4995,-5.5167,-5.4956,-5.4746,-5.456,-5.4202,-5.3824,-5.3353,-5.2858,-5.2851,-5.2468,-5.2107,-5.1861,-5.1667,-5.1185,-5.0613,-5.055,-5.0495,-5.0459,-5.0478,-5.05,-5.0542,-5.0523,-5.0563,-5.0603,-5.0603,-5.0623,-5.0663,-5.0683,-5.0683,-5.0702,-5.0682,-5.0701,-5.0757,-5.0757,-5.0775,-5.0776,-5.093,-5.0969,-5.1103,-5.1662,-5.1913,-5.199,-5.1971,-5.199,-5.222,-5.2607,-5.305,-5.3224,-5.332,-5.3763,-5.44,-5.4477,-5.4844,-5.5403,-5.5789,-5.5692,-5.575,-5.5866,-5.5885,-5.5904,-5.5904,-5.5808,-5.5866,-5.5846,-5.5784,-5.5743,-5.5148,-5.467,-5.415,-5.359,-5.3145,-5.2585,-5.2177,-5.179,-5.1503,-5.1233,-5.1134,-5.1073,-5.1222,-5.1621,-5.1749,-5.1745,-5.193,-5.2153,-5.225,-5.2366,-5.2806,-5.3222,-5.3773,-5.4175,-5.3585,-5.3649,-5.507,-5.6054,-5.6185,-5.6276,-5.6304,-5.6291,-5.3511,-5.4159,-5.4276,-5.4327,-5.4263,-5.4308,-5.4358,-5.4407,-5.4432,-5.4432,-5.4417,-5.48,-5.4973,-5.5049,-5.5183,-5.5432,-5.5432,-5.5437,-5.5456,-5.5423,-5.5155,-5.5063,-5.4741,-5.4303,-5.3804,-5.3705,-5.3382,-5.3001,-5.2656,-5.2639,-5.2544,-5.2005,-5.1177,-5.0638,-5.0542,-5.0622,-5.0623,-5.0643,-5.0625,-5.0625,-5.0664,-5.0721,-5.074,-5.0758,-5.0758,-5.0757,-5.0775,-5.0756,-5.0756,-5.0831,-5.0906,-5.0964,-5.1097,-5.1389,-5.1582,-5.1715,-5.2447,-5.2833,-5.291,-5.2912,-5.2894,-5.3087,-5.3609,-5.4148,-5.4225,-5.4554,-5.4959,-5.5306,-5.5363,-5.5593,-5.5805,-5.594,-5.5921,-5.5959,-5.5979,-5.5977,-5.5995,-5.6014,-5.6031,-5.6029,-5.6062,-5.6052,-5.6063,-5.6005,-5.5578,-5.5144,-5.4583,-5.402,-5.3459,-5.3108,-5.2798,-5.2488,-5.2237,-5.2214,-5.2225,-5.2356,-5.2521,-5.2491,-5.2499,-5.2777,-5.3023,-5.3126,-5.3301,-5.3793,-5.4186,-5.458,-5.4863,-5.4972,-5.5369,-5.5954,-5.6214,-5.6304,-5.6375,-5.6399,-5.6372,-5.4407,-5.4741,-5.5293,-5.5476,-5.5432,-5.5437,-5.5461,-5.5527,-5.5489,-5.5551,-5.5551,-5.5551,-5.5551,-5.5551,-5.5551,-5.5551,-5.5531,-5.5554,-5.5573,-5.5554,-5.5535,-5.5554,-5.5343,-5.5078,-5.4735,-5.4578,-5.4274,-5.3913,-5.3528,-5.3589,-5.3358,-5.2819,-5.2086,-5.1548,-5.1029,-5.0818,-5.076,-5.074,-5.072,-5.072,-5.0757,-5.0775,-5.081,-5.081,-5.0829,-5.1095,-5.1247,-5.1399,-5.1573,-5.1705,-5.1783,-5.1705,-5.1879,-5.2133,-5.2462,-5.2826,-5.3288,-5.381,-5.3848,-5.3831,-5.3932,-5.4355,-5.4721,-5.5049,-5.5244,-5.565,-5.5801,-5.5896,-5.5954,-5.599,-5.6059,-5.6059,-5.6056,-5.6071,-5.6091,-5.6091,-5.6087,-5.6121,-5.6121,-5.6136,-5.6179,-5.6201,-5.6226,-5.6219,-5.6051,-5.5729,-5.5501,-5.4919,-5.4352,-5.41,-5.4095,-5.3785,-5.3513,-5.3546,-5.3618,-5.3437,-5.3236,-5.3188,-5.3289,-5.3658,-5.3902,-5.4027,-5.4369,-5.4936,-5.5268,-5.5424,-5.5541,-5.5687,-5.594,-5.6239,-5.6367,-5.6425,-5.6427,-5.6456,-5.6475,-5.4802,-5.5558,-5.5593,-5.5589,-5.5527,-5.5512,-5.5535,-5.5618,-5.5618,-5.564,-5.5703,-5.5703,-5.5703,-5.5703,-5.5684,-5.5703,-5.5703,-5.5703,-5.5703,-5.5703,-5.5703,-5.5684,-5.5665,-5.553,-5.5436,-5.5647,-5.536,-5.4919,-5.4477,-5.4535,-5.4188,-5.3783,-5.3282,-5.2723,-5.1973,-5.1238,-5.087,-5.0831,-5.0966,-5.108,-5.1155,-5.1194,-5.1266,-5.1322,-5.1377,-5.1734,-5.2113,-5.2244,-5.2492,-5.2908,-5.3025,-5.3044,-5.316,-5.3374,-5.3548,-5.3621,-5.4396,-5.4823,-5.4861,-5.4797,-5.5091,-5.554,-5.573,-5.5858,-5.6048,-5.6184,-5.6184,-5.6145,-5.617,-5.6165,-5.6193,-5.6187,-5.6181,-5.6194,-5.6194,-5.6214,-5.6214,-5.6207,-5.6239,-5.6265,-5.6294,-5.6308,-5.631,-5.632,-5.6289,-5.6197,-5.6207,-5.5806,-5.5197,-5.5073,-5.5085,-5.4968,-5.4677,-5.4638,-5.4572,-5.4163,-5.3952,-5.3916,-5.4139,-5.4626,-5.4898,-5.5024,-5.5461,-5.6035,-5.6074,-5.5957,-5.618,-5.6422,-5.6457,-5.6452,-5.6464,-5.6503,-5.65,-5.6508,-5.6508,-5.5516,-5.5805,-5.5799,-5.5799,-5.5765,-5.5726,-5.5726,-5.5806,-5.5806,-5.5806,-5.5826,-5.5826,-5.5845,-5.5826,-5.5826,-5.5845,-5.5845,-5.5845,-5.5845,-5.5845,-5.5826,-5.5826,-5.5826,-5.5826,-5.5826,-5.5845,-5.5827,-5.5789,-5.5422,-5.5364,-5.5364,-5.5036,-5.4415,-5.3779,-5.3127,-5.2587,-5.2547,-5.2543,-5.2597,-5.2614,-5.2589,-5.2562,-5.2574,-5.2589,-5.2584,-5.2806,-5.3197,-5.323,-5.3489,-5.3819,-5.3909,-5.3858,-5.3955,-5.4149,-5.4518,-5.4673,-5.5294,-5.5741,-5.576,-5.5766,-5.5869,-5.6132,-5.6209,-5.6223,-5.6223,-5.6213,-5.6226,-5.6253,-5.6258,-5.6283,-5.6317,-5.6319,-5.6329,-5.6339,-5.6339,-5.6339,-5.6339,-5.6339,-5.6339,-5.6368,-5.6378,-5.6405,-5.6437,-5.6432,-5.6398,-5.6402,-5.6357,-5.6339,-5.5872,-5.5892,-5.594,-5.594,-5.5804,-5.5726,-5.5531,-5.5142,-5.5083,-5.5199,-5.5431,-5.5821,-5.5993,-5.5874,-5.603,-5.6309,-5.6393,-5.6471,-5.6491,-5.6533,-5.6559,-5.6566,-5.6543,-5.6536,-5.6511,-5.653,-5.6563,-5.5924,-5.5904,-5.5903,-5.5904,-5.5924,-5.5866,-5.5866,-5.5905,-5.5924,-5.5924,-5.5904,-5.5904,-5.5904,-5.5904,-5.5924,-5.5924,-5.5924,-5.5924,-5.5924,-5.5924,-5.5904,-5.5885,-5.5885,-5.5924,-5.5885,-5.5924,-5.5924,-5.5904,-5.5847,-5.5904,-5.5865,-5.5726,-5.547,-5.502,-5.4368,-5.3923,-5.3343,-5.3298,-5.3309,-5.3398,-5.3446,-5.3494,-5.354,-5.3573,-5.3637,-5.3829,-5.4094,-5.4222,-5.4322,-5.4477,-5.4594,-5.4594,-5.4808,-5.5061,-5.5469,-5.5703,-5.5897,-5.6247,-5.6228,-5.6239,-5.6228,-5.6271,-5.6265,-5.6265,-5.6265,-5.6283,-5.6306,-5.6328,-5.6349,-5.6369,-5.6407,-5.6414,-5.6437,-5.6437,-5.6437,-5.6437,-5.643,-5.643,-5.6425,-5.6449,-5.6459,-5.6503,-5.6543,-5.6528,-5.6513,-5.6504,-5.6519,-5.6478,-5.6445,-5.6445,-5.6445,-5.6406,-5.6379,-5.6196,-5.6157,-5.6129,-5.6176,-5.643,-5.6491,-5.6511,-5.6499,-5.6289,-5.6434,-5.6528,-5.6536,-5.654,-5.654,-5.6551,-5.6581,-5.6601,-5.6601,-5.6575,-5.6536,-5.6552,-5.6591,-5.5905,-5.5905,-5.5904,-5.5923,-5.598,-5.5919,-5.5902,-5.5905,-5.5905,-5.5905,-5.5905,-5.5924,-5.5924,-5.5905,-5.5905,-5.5905,-5.5924,-5.5924,-5.5924,-5.5924,-5.5924,-5.5924,-5.5924,-5.5924,-5.5924,-5.5943,-5.5943,-5.598,-5.5999,-5.6033,-5.6048,-5.6098,-5.6009,-5.5826,-5.5361,-5.4793,-5.4158,-5.4192,-5.4219,-5.4304,-5.4336,-5.4148,-5.4269,-5.4311,-5.4371,-5.4665,-5.4938,-5.5151,-5.5539,-5.5879,-5.6191,-5.6249,-5.6308,-5.6366,-5.6386,-5.6366,-5.6386,-5.6386,-5.6377,-5.6386,-5.6386,-5.6378,-5.6398,-5.6417,-5.6398,-5.6378,-5.6398,-5.6405,-5.6422,-5.6441,-5.6469,-5.6498,-5.6503,-5.6503,-5.6503,-5.6503,-5.6497,-5.6509,-5.6504,-5.6516,-5.6512,-5.6539,-5.6581,-5.6582,-5.6561,-5.6581,-5.656,-5.6556,-5.6523,-5.6519,-5.6514,-5.6514,-5.6489,-5.6497,-5.6497,-5.6489,-5.6514,-5.6538,-5.652,-5.6532,-5.656,-5.6582,-5.6581,-5.6581,-5.6601,-5.6601,-5.6582,-5.6582,-5.6599,-5.6614,-5.6612,-5.6597,-5.6562,-5.6582,-5.6601,-5.5959,-5.5959,-5.5977,-5.5958,-5.6014,-5.5975,-5.5975,-5.5977,-5.5959,-5.5959,-5.5959,-5.5959,-5.5959,-5.5959,-5.5959,-5.5959,-5.5959,-5.5959,-5.5959,-5.5959,-5.5979,-5.5959,-5.5959,-5.5959,-5.5979,-5.5977,-5.5977,-5.6031,-5.6084,-5.6098,-5.6145,-5.617,-5.6232,-5.6259,-5.6103,-5.5808,-5.5532,-5.5357,-5.531,-5.5322,-5.5413,-5.5395,-5.5434,-5.5424,-5.5452,-5.5734,-5.5868,-5.5989,-5.6276,-5.6393,-5.6471,-5.6471,-5.6471,-5.6471,-5.6471,-5.6471,-5.6471,-5.6471,-5.6471,-5.6471,-5.6452,-5.6478,-5.6484,-5.648,-5.6472,-5.6469,-5.6464,-5.6485,-5.6489,-5.6519,-5.6513,-5.6507,-5.6534,-5.6536,-5.6536,-5.6536,-5.6536,-5.6538,-5.6542,-5.6543,-5.6541,-5.6536,-5.6588,-5.6588,-5.6571,-5.6605,-5.6607,-5.6575,-5.6581,-5.656,-5.6554,-5.6573,-5.6554,-5.6554,-5.6556,-5.6539,-5.6558,-5.6577,-5.6562,-5.656,-5.6573,-5.6588,-5.6605,-5.6605,-5.6588,-5.6605,-5.6602,-5.6598,-5.6602,-5.6618,-5.6614,-5.6618,-5.6618,-5.6607,-5.6588,-5.6012,-5.6012,-5.6012,-5.6012,-5.6012,-5.6012,-5.6012,-5.6012,-5.6012,-5.6012,-5.6012,-5.6012,-5.6012,-5.6012,-5.5995,-5.5995,-5.5995,-5.5995,-5.5995,-5.5995,-5.6012,-5.5995,-5.6012,-5.6029,-5.6046,-5.6046,-5.6062,-5.6098,-5.6149,-5.619,-5.6232,-5.6239,-5.6309,-5.6325,-5.6299,-5.6281,-5.6339,-5.6291,-5.631,-5.6398,-5.6416,-5.6441,-5.6449,-5.6457,-5.6496,-5.6503,-5.6498,-5.6523,-5.6538,-5.6558,-5.6538,-5.6519,-5.6523,-5.6528,-5.6536,-5.6536,-5.6536,-5.654,-5.654,-5.6536,-5.6556,-5.6552,-5.6532,-5.6547,-5.6523,-5.6504,-5.6513,-5.654,-5.6551,-5.6539,-5.6523,-5.6518,-5.6534,-5.6549,-5.6549,-5.6549,-5.6549,-5.6549,-5.6546,-5.6543,-5.6556,-5.6538,-5.6553,-5.6572,-5.6572,-5.6553,-5.6558,-5.6543,-5.6556,-5.6571,-5.6577,-5.6598,-5.6577,-5.6577,-5.6575,-5.6556,-5.6556,-5.6554,-5.6543,-5.6547,-5.6567,-5.6572,-5.6558,-5.6558,-5.6553,-5.6553,-5.6577,-5.6592,-5.6592,-5.6592,-5.6592,-5.6592,-5.6582,-5.6591,-5.6571,-5.6012,-5.6012,-5.6012,-5.6012,-5.6012,-5.6012,-5.6012,-5.6012,-5.6012,-5.6012,-5.6012,-5.6012,-5.6012,-5.6012,-5.6012,-5.6012,-5.6012,-5.6012,-5.6012,-5.6012,-5.6029,-5.6029,-5.6065,-5.6062,-5.6114,-5.613,-5.6164,-5.6164,-5.6209,-5.6265,-5.6309,-5.6314,-5.6377,-5.6398,-5.6416,-5.6453,-5.6469,-5.6465,-5.6478,-5.6491,-5.6503,-5.6498,-5.6497,-5.6503,-5.6523,-5.6509,-5.6513,-5.6546,-5.6614,-5.6614,-5.6614,-5.6595,-5.6598,-5.6581,-5.6582,-5.6582,-5.6601,-5.6582,-5.6582,-5.6562,-5.6581,-5.6581,-5.6581,-5.6562,-5.6543,-5.6502,-5.6521,-5.6543,-5.6538,-5.6534,-5.6523,-5.6513,-5.6504,-5.6519,-5.6519,-5.6519,-5.6519,-5.6519,-5.6519,-5.6514,-5.6528,-5.6517,-5.6517,-5.6536,-5.6536,-5.6511,-5.6511,-5.6511,-5.6536,-5.6558,-5.6582,-5.6586,-5.6571,-5.6547,-5.6523,-5.6519,-5.6509,-5.6497,-5.6511,-5.6511,-5.6536,-5.6511,-5.6485,-5.6511,-5.6517,-5.6511,-5.6511,-5.653,-5.655,-5.655,-5.655,-5.6543,-5.6556,-5.6567,-5.6553,-5.6012,-5.6012,-5.6012,-5.6012,-5.6012,-5.6012,-5.6012,-5.6012,-5.6012,-5.6012,-5.6012,-5.6012,-5.6012,-5.6012,-5.6012,-5.6012,-5.5993,-5.6029,-5.6029,-5.6065,-5.6082,-5.6101,-5.6137,-5.6149,-5.616,-5.616,-5.6194,-5.6238,-5.6291,-5.6333,-5.6378,-5.6398,-5.6444,-5.6453,-5.6452,-5.6498,-5.6503,-5.6501,-5.6529,-5.654,-5.6523,-5.6566,-5.6577,-5.6577,-5.6577,-5.6577,-5.6581,-5.6582,-5.662,-5.6619,-5.6619,-5.6619,-5.6619,-5.6616,-5.6612,-5.6605,-5.6602,-5.6605,-5.6582,-5.6556,-5.6532,-5.6523,-5.6523,-5.6514,-5.6523,-5.6488,-5.649,-5.6513,-5.6514,-5.6528,-5.6517,-5.6511,-5.6478,-5.6478,-5.6478,-5.6478,-5.6478,-5.6498,-5.6498,-5.6498,-5.6498,-5.6498,-5.6498,-5.6478,-5.6485,-5.6485,-5.6504,-5.6504,-5.6498,-5.6511,-5.6511,-5.6536,-5.6517,-5.6497,-5.6485,-5.6498,-5.6498,-5.6498,-5.6498,-5.6498,-5.6498,-5.6491,-5.6491,-5.6478,-5.6485,-5.6498,-5.6491,-5.6504,-5.6504,-5.6517,-5.6517,-5.653,-5.651,-5.653,-5.6511,-5.6012,-5.6012,-5.6012,-5.6012,-5.6012,-5.6012,-5.6012,-5.6012,-5.6012,-5.6012,-5.6012,-5.6012,-5.6012,-5.6012,-5.6029,-5.6065,-5.6046,-5.6082,-5.6098,-5.6133,-5.6149,-5.6168,-5.6184,-5.6214,-5.6213,-5.622,-5.6285,-5.6321,-5.6356,-5.6398,-5.6435,-5.6449,-5.6476,-5.6498,-5.6494,-5.6513,-5.6546,-5.6542,-5.6581,-5.6562,-5.6541,-5.6581,-5.6616,-5.6616,-5.6614,-5.6614,-5.6612,-5.6607,-5.6605,-5.6602,-5.6605,-5.6575,-5.6556,-5.6532,-5.6543,-5.6553,-5.6567,-5.6548,-5.6542,-5.6536,-5.6485,-5.6478,-5.6485,-5.6511,-5.6511,-5.6484,-5.648,-5.6497,-5.6497,-5.6511,-5.6498,-5.6491,-5.6496,-5.6496,-5.6496,-5.6496,-5.6496,-5.6496,-5.6488,-5.6488,-5.6496,-5.6496,-5.6496,-5.6488,-5.6496,-5.6496,-5.6496,-5.6496,-5.6496,-5.6476,-5.6476,-5.6484,-5.6484,-5.6491,-5.6491,-5.6484,-5.6484,-5.6484,-5.6484,-5.6496,-5.6496,-5.6496,-5.6496,-5.6484,-5.6484,-5.6496,-5.6496,-5.6484,-5.6484,-5.6488,-5.6496,-5.6496,-5.6476,-5.6476,-5.6476,-5.6012,-5.6012,-5.6012,-5.6012,-5.6012,-5.6012,-5.6012,-5.6012,-5.5993,-5.6012,-5.6029,-5.6029,-5.6029,-5.6029,-5.6082,-5.6117,-5.6133,-5.6149,-5.6184,-5.6199,-5.6214,-5.6214,-5.6223,-5.6218,-5.6246,-5.6306,-5.6349,-5.6388,-5.6407,-5.6461,-5.6476,-5.6478,-5.6509,-5.6528,-5.6517,-5.6562,-5.66,-5.6598,-5.6607,-5.6614,-5.6614,-5.6602,-5.6621,-5.6614,-5.6606,-5.6606,-5.6606,-5.6606,-5.6606,-5.6582,-5.6582,-5.6553,-5.6528,-5.6503,-5.6497,-5.6504,-5.6504,-5.6511,-5.6504,-5.6504,-5.6498,-5.6498,-5.6498,-5.6491,-5.6491,-5.6484,-5.6476,-5.6476,-5.6464,-5.6484,-5.6469,-5.648,-5.6472,-5.6483,-5.6483,-5.6483,-5.6483,-5.6483,-5.6483,-5.6483,-5.6483,-5.6483,-5.6483,-5.6474,-5.6483,-5.6483,-5.6483,-5.6494,-5.6474,-5.6455,-5.6455,-5.6464,-5.6444,-5.6453,-5.6488,-5.6488,-5.6488,-5.6488,-5.648,-5.6492,-5.6492,-5.65,-5.648,-5.6492,-5.6492,-5.6492,-5.6492,-5.65,-5.6492,-5.6483,-5.6464,-5.6444,-5.6455,-5.6455,-5.6455,-5.6012,-5.6012,-5.6012,-5.6012,-5.6012,-5.6012,-5.6012,-5.5993,-5.6046,-5.6062,-5.6098,-5.6133,-5.6133,-5.6101,-5.6149,-5.6164,-5.6164,-5.6194,-5.6209,-5.6204,-5.6218,-5.6232,-5.6259,-5.6278,-5.6325,-5.6378,-5.6387,-5.6425,-5.6457,-5.6478,-5.6494,-5.6507,-5.6577,-5.6581,-5.6582,-5.6618,-5.6602,-5.6618,-5.6618,-5.6606,-5.6606,-5.661,-5.661,-5.6606,-5.6606,-5.6606,-5.6606,-5.6606,-5.6577,-5.6553,-5.6523,-5.6511,-5.6504,-5.6485,-5.6498,-5.6491,-5.6491,-5.6498,-5.6491,-5.6484,-5.6476,-5.6476,-5.6461,-5.6435,-5.6435,-5.6417,-5.6417,-5.6407,-5.6417,-5.6426,-5.6427,-5.6427,-5.6417,-5.6417,-5.6437,-5.6437,-5.6437,-5.6437,-5.6437,-5.6437,-5.6437,-5.6437,-5.6437,-5.6437,-5.6437,-5.6437,-5.6437,-5.6437,-5.6437,-5.6437,-5.6427,-5.6417,-5.6427,-5.6465,-5.6483,-5.6483,-5.6483,-5.6483,-5.6483,-5.6474,-5.6474,-5.6483,-5.6483,-5.6474,-5.6474,-5.6483,-5.6483,-5.6494,-5.6465,-5.6446,-5.6417,-5.6417,-5.6417,-5.6417,-5.6427]}]]